<?xml version="1.0" encoding="UTF-8"?>
<gpx version="1.1" creator="https://www.youtrack.es" xsi:schemaLocation="http://www.topografix.com/GPX/1/1 http://www.topografix.com/GPX/1/1/gpx.xsd http://www.garmin.com/xmlschemas/GpxExtensions/v3 http://www.garmin.com/xmlschemas/GpxExtensionsv3.xsd http://www.garmin.com/xmlschemas/TrackPointExtension/v1 http://www.garmin.com/xmlschemas/TrackPointExtensionv1.xsd" xmlns:gpxtpx="http://www.garmin.com/xmlschemas/TrackPointExtension/v1" xmlns:gpxx="http://www.garmin.com/xmlschemas/GpxExtensions/v3" xmlns:xsi="http://www.w3.org/2001/XMLSchema-instance">
  <metadata>
    <author>
      <name>Juan Luis San Martín Rodríguez</name>
      <email id="juanluissanmartin" domain="euskalnet.net"/>
    </author>
    <link href="https://www.youtrack.es">
      <text>YouTrack.es</text>
    </link>
    <time>2026-05-09T08:30:10Z</time>
  </metadata>
  <trk>
    <src>https://www.youtrack.es</src>
    <link href="https://www.youtrack.es/ruta/15661-deba-zumaia">
      <text>YouTrack.es</text>
    </link>
    <trkseg>
      <trkpt lat="43.295082" lon="-2.353765">
        <ele>-2000000.0</ele>
        <time>2020-09-05T06:47:32Z</time>
      </trkpt>
      <trkpt lat="43.294804" lon="-2.3537467">
        <ele>-2000000.0</ele>
        <time>2020-09-05T06:47:37Z</time>
      </trkpt>
      <trkpt lat="43.29545" lon="-2.3537533">
        <ele>-2000000.0</ele>
        <time>2020-09-05T06:47:42Z</time>
      </trkpt>
      <trkpt lat="43.29545" lon="-2.3537524">
        <ele>-2000000.0</ele>
        <time>2020-09-05T06:47:43Z</time>
      </trkpt>
      <trkpt lat="43.29589" lon="-2.3537548">
        <ele>2844.0</ele>
        <time>2020-09-05T06:47:51Z</time>
      </trkpt>
      <trkpt lat="43.295948" lon="-2.3537114">
        <ele>2844.0</ele>
        <time>2020-09-05T06:47:54Z</time>
      </trkpt>
      <trkpt lat="43.295914" lon="-2.3536556">
        <ele>2844.0</ele>
        <time>2020-09-05T06:47:56Z</time>
      </trkpt>
      <trkpt lat="43.29586" lon="-2.3536074">
        <ele>2962.0</ele>
        <time>2020-09-05T06:47:58Z</time>
      </trkpt>
      <trkpt lat="43.295815" lon="-2.353557">
        <ele>2962.0</ele>
        <time>2020-09-05T06:48:02Z</time>
      </trkpt>
      <trkpt lat="43.29584" lon="-2.3535163">
        <ele>3089.0</ele>
        <time>2020-09-05T06:48:07Z</time>
      </trkpt>
      <trkpt lat="43.295902" lon="-2.35347">
        <ele>3225.0</ele>
        <time>2020-09-05T06:48:11Z</time>
      </trkpt>
      <trkpt lat="43.295986" lon="-2.353441">
        <ele>3362.0</ele>
        <time>2020-09-05T06:48:14Z</time>
      </trkpt>
      <trkpt lat="43.296078" lon="-2.3534217">
        <ele>3498.0</ele>
        <time>2020-09-05T06:48:16Z</time>
      </trkpt>
      <trkpt lat="43.29615" lon="-2.3533947">
        <ele>3616.0</ele>
        <time>2020-09-05T06:48:18Z</time>
      </trkpt>
      <trkpt lat="43.296005" lon="-2.3533206">
        <ele>3616.0</ele>
        <time>2020-09-05T06:48:21Z</time>
      </trkpt>
      <trkpt lat="43.296" lon="-2.353255">
        <ele>3871.0</ele>
        <time>2020-09-05T06:48:27Z</time>
      </trkpt>
      <trkpt lat="43.295963" lon="-2.3531876">
        <ele>3871.0</ele>
        <time>2020-09-05T06:48:31Z</time>
      </trkpt>
      <trkpt lat="43.29594" lon="-2.3531168">
        <ele>3998.0</ele>
        <time>2020-09-05T06:48:35Z</time>
      </trkpt>
      <trkpt lat="43.29593" lon="-2.353034">
        <ele>4134.0</ele>
        <time>2020-09-05T06:48:41Z</time>
      </trkpt>
      <trkpt lat="43.295906" lon="-2.3529556">
        <ele>4253.0</ele>
        <time>2020-09-05T06:48:46Z</time>
      </trkpt>
      <trkpt lat="43.295887" lon="-2.352879">
        <ele>4489.0</ele>
        <time>2020-09-05T06:48:51Z</time>
      </trkpt>
      <trkpt lat="43.295815" lon="-2.3528016">
        <ele>4489.0</ele>
        <time>2020-09-05T06:48:54Z</time>
      </trkpt>
      <trkpt lat="43.295734" lon="-2.3527384">
        <ele>4489.0</ele>
        <time>2020-09-05T06:48:56Z</time>
      </trkpt>
      <trkpt lat="43.29565" lon="-2.3526874">
        <ele>4625.0</ele>
        <time>2020-09-05T06:48:58Z</time>
      </trkpt>
      <trkpt lat="43.295883" lon="-2.352655">
        <ele>4625.0</ele>
        <time>2020-09-05T06:49:01Z</time>
      </trkpt>
      <trkpt lat="43.295883" lon="-2.3526523">
        <ele>4625.0</ele>
        <time>2020-09-05T06:49:02Z</time>
      </trkpt>
      <trkpt lat="43.29592" lon="-2.352595">
        <ele>4753.0</ele>
        <time>2020-09-05T06:49:08Z</time>
      </trkpt>
      <trkpt lat="43.295914" lon="-2.352543">
        <ele>4880.0</ele>
        <time>2020-09-05T06:49:13Z</time>
      </trkpt>
      <trkpt lat="43.295986" lon="-2.3524997">
        <ele>5125.0</ele>
        <time>2020-09-05T06:49:20Z</time>
      </trkpt>
      <trkpt lat="43.29604" lon="-2.352467">
        <ele>5125.0</ele>
        <time>2020-09-05T06:49:23Z</time>
      </trkpt>
      <trkpt lat="43.296066" lon="-2.352427">
        <ele>5262.0</ele>
        <time>2020-09-05T06:49:27Z</time>
      </trkpt>
      <trkpt lat="43.296085" lon="-2.3523574">
        <ele>5389.0</ele>
        <time>2020-09-05T06:49:33Z</time>
      </trkpt>
      <trkpt lat="43.296116" lon="-2.3522854">
        <ele>5507.0</ele>
        <time>2020-09-05T06:49:38Z</time>
      </trkpt>
      <trkpt lat="43.29615" lon="-2.352217">
        <ele>5634.0</ele>
        <time>2020-09-05T06:49:43Z</time>
      </trkpt>
      <trkpt lat="43.29614" lon="-2.352137">
        <ele>5634.0</ele>
        <time>2020-09-05T06:49:49Z</time>
      </trkpt>
      <trkpt lat="43.296165" lon="-2.3520756">
        <ele>3558.0</ele>
        <time>2020-09-05T06:49:55Z</time>
      </trkpt>
      <trkpt lat="43.2962" lon="-2.3520257">
        <ele>3558.0</ele>
        <time>2020-09-05T06:50:01Z</time>
      </trkpt>
      <trkpt lat="43.296246" lon="-2.3519738">
        <ele>3676.0</ele>
        <time>2020-09-05T06:50:07Z</time>
      </trkpt>
      <trkpt lat="43.29628" lon="-2.351911">
        <ele>3676.0</ele>
        <time>2020-09-05T06:50:12Z</time>
      </trkpt>
      <trkpt lat="43.296303" lon="-2.3518474">
        <ele>3676.0</ele>
        <time>2020-09-05T06:50:17Z</time>
      </trkpt>
      <trkpt lat="43.296345" lon="-2.3517804">
        <ele>3795.0</ele>
        <time>2020-09-05T06:50:22Z</time>
      </trkpt>
      <trkpt lat="43.296364" lon="-2.351715">
        <ele>3795.0</ele>
        <time>2020-09-05T06:50:28Z</time>
      </trkpt>
      <trkpt lat="43.296394" lon="-2.351642">
        <ele>3795.0</ele>
        <time>2020-09-05T06:50:34Z</time>
      </trkpt>
      <trkpt lat="43.29642" lon="-2.3515828">
        <ele>3931.0</ele>
        <time>2020-09-05T06:50:38Z</time>
      </trkpt>
      <trkpt lat="43.29645" lon="-2.3515203">
        <ele>3931.0</ele>
        <time>2020-09-05T06:50:43Z</time>
      </trkpt>
      <trkpt lat="43.296482" lon="-2.351446">
        <ele>4049.0</ele>
        <time>2020-09-05T06:50:48Z</time>
      </trkpt>
      <trkpt lat="43.2965" lon="-2.3513873">
        <ele>4049.0</ele>
        <time>2020-09-05T06:50:53Z</time>
      </trkpt>
      <trkpt lat="43.29654" lon="-2.351322">
        <ele>4176.0</ele>
        <time>2020-09-05T06:50:58Z</time>
      </trkpt>
      <trkpt lat="43.29657" lon="-2.3512683">
        <ele>4176.0</ele>
        <time>2020-09-05T06:51:02Z</time>
      </trkpt>
      <trkpt lat="43.296604" lon="-2.3512106">
        <ele>4176.0</ele>
        <time>2020-09-05T06:51:07Z</time>
      </trkpt>
      <trkpt lat="43.296623" lon="-2.3511384">
        <ele>4295.0</ele>
        <time>2020-09-05T06:51:12Z</time>
      </trkpt>
      <trkpt lat="43.296654" lon="-2.3510766">
        <ele>4295.0</ele>
        <time>2020-09-05T06:51:17Z</time>
      </trkpt>
      <trkpt lat="43.29668" lon="-2.3510237">
        <ele>4295.0</ele>
        <time>2020-09-05T06:51:21Z</time>
      </trkpt>
      <trkpt lat="43.29672" lon="-2.3509603">
        <ele>4295.0</ele>
        <time>2020-09-05T06:51:26Z</time>
      </trkpt>
      <trkpt lat="43.29675" lon="-2.3509016">
        <ele>4295.0</ele>
        <time>2020-09-05T06:51:31Z</time>
      </trkpt>
      <trkpt lat="43.29678" lon="-2.350839">
        <ele>4413.0</ele>
        <time>2020-09-05T06:51:36Z</time>
      </trkpt>
      <trkpt lat="43.296795" lon="-2.3507817">
        <ele>4413.0</ele>
        <time>2020-09-05T06:51:42Z</time>
      </trkpt>
      <trkpt lat="43.296833" lon="-2.3507133">
        <ele>4413.0</ele>
        <time>2020-09-05T06:51:48Z</time>
      </trkpt>
      <trkpt lat="43.29687" lon="-2.350668">
        <ele>4531.0</ele>
        <time>2020-09-05T06:51:52Z</time>
      </trkpt>
      <trkpt lat="43.296906" lon="-2.35062">
        <ele>4531.0</ele>
        <time>2020-09-05T06:51:57Z</time>
      </trkpt>
      <trkpt lat="43.296944" lon="-2.350553">
        <ele>4531.0</ele>
        <time>2020-09-05T06:52:04Z</time>
      </trkpt>
      <trkpt lat="43.29698" lon="-2.3504918">
        <ele>4658.0</ele>
        <time>2020-09-05T06:52:09Z</time>
      </trkpt>
      <trkpt lat="43.297024" lon="-2.350434">
        <ele>4658.0</ele>
        <time>2020-09-05T06:52:14Z</time>
      </trkpt>
      <trkpt lat="43.297054" lon="-2.3503838">
        <ele>4658.0</ele>
        <time>2020-09-05T06:52:18Z</time>
      </trkpt>
      <trkpt lat="43.297092" lon="-2.350326">
        <ele>4658.0</ele>
        <time>2020-09-05T06:52:23Z</time>
      </trkpt>
      <trkpt lat="43.297123" lon="-2.350276">
        <ele>4776.0</ele>
        <time>2020-09-05T06:52:30Z</time>
      </trkpt>
      <trkpt lat="43.29717" lon="-2.3502324">
        <ele>4776.0</ele>
        <time>2020-09-05T06:52:36Z</time>
      </trkpt>
      <trkpt lat="43.297207" lon="-2.3501804">
        <ele>4895.0</ele>
        <time>2020-09-05T06:52:45Z</time>
      </trkpt>
      <trkpt lat="43.29726" lon="-2.350148">
        <ele>5013.0</ele>
        <time>2020-09-05T06:52:51Z</time>
      </trkpt>
      <trkpt lat="43.297302" lon="-2.3501127">
        <ele>5013.0</ele>
        <time>2020-09-05T06:52:56Z</time>
      </trkpt>
      <trkpt lat="43.297398" lon="-2.3502233">
        <ele>5013.0</ele>
        <time>2020-09-05T06:53:10Z</time>
      </trkpt>
      <trkpt lat="43.297398" lon="-2.350227">
        <ele>5013.0</ele>
        <time>2020-09-05T06:53:11Z</time>
      </trkpt>
      <trkpt lat="43.297447" lon="-2.3502357">
        <ele>5149.0</ele>
        <time>2020-09-05T06:53:18Z</time>
      </trkpt>
      <trkpt lat="43.297497" lon="-2.350285">
        <ele>5149.0</ele>
        <time>2020-09-05T06:53:23Z</time>
      </trkpt>
      <trkpt lat="43.297543" lon="-2.3503">
        <ele>5149.0</ele>
        <time>2020-09-05T06:53:27Z</time>
      </trkpt>
      <trkpt lat="43.297592" lon="-2.350292">
        <ele>5149.0</ele>
        <time>2020-09-05T06:53:32Z</time>
      </trkpt>
      <trkpt lat="43.297657" lon="-2.350277">
        <ele>5149.0</ele>
        <time>2020-09-05T06:53:36Z</time>
      </trkpt>
      <trkpt lat="43.297714" lon="-2.3502584">
        <ele>5267.0</ele>
        <time>2020-09-05T06:53:39Z</time>
      </trkpt>
      <trkpt lat="43.29776" lon="-2.350236">
        <ele>5267.0</ele>
        <time>2020-09-05T06:53:43Z</time>
      </trkpt>
      <trkpt lat="43.29776" lon="-2.3502064">
        <ele>5386.0</ele>
        <time>2020-09-05T06:53:58Z</time>
      </trkpt>
      <trkpt lat="43.297775" lon="-2.350277">
        <ele>5504.0</ele>
        <time>2020-09-05T06:54:04Z</time>
      </trkpt>
      <trkpt lat="43.297817" lon="-2.3503203">
        <ele>5504.0</ele>
        <time>2020-09-05T06:54:09Z</time>
      </trkpt>
      <trkpt lat="43.29787" lon="-2.350352">
        <ele>5504.0</ele>
        <time>2020-09-05T06:54:14Z</time>
      </trkpt>
      <trkpt lat="43.29791" lon="-2.350384">
        <ele>5622.0</ele>
        <time>2020-09-05T06:54:18Z</time>
      </trkpt>
      <trkpt lat="43.297955" lon="-2.3504152">
        <ele>5622.0</ele>
        <time>2020-09-05T06:54:23Z</time>
      </trkpt>
      <trkpt lat="43.298" lon="-2.350456">
        <ele>5622.0</ele>
        <time>2020-09-05T06:54:29Z</time>
      </trkpt>
      <trkpt lat="43.298046" lon="-2.350501">
        <ele>5749.0</ele>
        <time>2020-09-05T06:54:35Z</time>
      </trkpt>
      <trkpt lat="43.298096" lon="-2.3505404">
        <ele>5749.0</ele>
        <time>2020-09-05T06:54:41Z</time>
      </trkpt>
      <trkpt lat="43.298134" lon="-2.3505816">
        <ele>5749.0</ele>
        <time>2020-09-05T06:54:46Z</time>
      </trkpt>
      <trkpt lat="43.298187" lon="-2.350628">
        <ele>5867.0</ele>
        <time>2020-09-05T06:54:52Z</time>
      </trkpt>
      <trkpt lat="43.298225" lon="-2.3506818">
        <ele>5867.0</ele>
        <time>2020-09-05T06:54:57Z</time>
      </trkpt>
      <trkpt lat="43.298267" lon="-2.350727">
        <ele>5986.0</ele>
        <time>2020-09-05T06:55:03Z</time>
      </trkpt>
      <trkpt lat="43.298313" lon="-2.3507664">
        <ele>6104.0</ele>
        <time>2020-09-05T06:55:08Z</time>
      </trkpt>
      <trkpt lat="43.29836" lon="-2.3507953">
        <ele>6104.0</ele>
        <time>2020-09-05T06:55:13Z</time>
      </trkpt>
      <trkpt lat="43.298412" lon="-2.3508158">
        <ele>6222.0</ele>
        <time>2020-09-05T06:55:18Z</time>
      </trkpt>
      <trkpt lat="43.29847" lon="-2.3508267">
        <ele>6222.0</ele>
        <time>2020-09-05T06:55:23Z</time>
      </trkpt>
      <trkpt lat="43.298523" lon="-2.350818">
        <ele>6222.0</ele>
        <time>2020-09-05T06:55:28Z</time>
      </trkpt>
      <trkpt lat="43.29857" lon="-2.3507926">
        <ele>6340.0</ele>
        <time>2020-09-05T06:55:33Z</time>
      </trkpt>
      <trkpt lat="43.298615" lon="-2.3507366">
        <ele>6340.0</ele>
        <time>2020-09-05T06:55:38Z</time>
      </trkpt>
      <trkpt lat="43.298653" lon="-2.3506656">
        <ele>6340.0</ele>
        <time>2020-09-05T06:55:43Z</time>
      </trkpt>
      <trkpt lat="43.29868" lon="-2.3505907">
        <ele>6340.0</ele>
        <time>2020-09-05T06:55:48Z</time>
      </trkpt>
      <trkpt lat="43.298683" lon="-2.3505256">
        <ele>6340.0</ele>
        <time>2020-09-05T06:55:52Z</time>
      </trkpt>
      <trkpt lat="43.298687" lon="-2.3504496">
        <ele>6467.0</ele>
        <time>2020-09-05T06:55:57Z</time>
      </trkpt>
      <trkpt lat="43.29868" lon="-2.3503776">
        <ele>6467.0</ele>
        <time>2020-09-05T06:56:01Z</time>
      </trkpt>
      <trkpt lat="43.29867" lon="-2.3502958">
        <ele>6595.0</ele>
        <time>2020-09-05T06:56:06Z</time>
      </trkpt>
      <trkpt lat="43.298668" lon="-2.3502104">
        <ele>6595.0</ele>
        <time>2020-09-05T06:56:11Z</time>
      </trkpt>
      <trkpt lat="43.298664" lon="-2.3501468">
        <ele>6713.0</ele>
        <time>2020-09-05T06:56:15Z</time>
      </trkpt>
      <trkpt lat="43.298664" lon="-2.3500617">
        <ele>6713.0</ele>
        <time>2020-09-05T06:56:20Z</time>
      </trkpt>
      <trkpt lat="43.298664" lon="-2.3499956">
        <ele>6831.0</ele>
        <time>2020-09-05T06:56:24Z</time>
      </trkpt>
      <trkpt lat="43.298664" lon="-2.349915">
        <ele>6831.0</ele>
        <time>2020-09-05T06:56:29Z</time>
      </trkpt>
      <trkpt lat="43.298664" lon="-2.3498466">
        <ele>6831.0</ele>
        <time>2020-09-05T06:56:33Z</time>
      </trkpt>
      <trkpt lat="43.298668" lon="-2.3497722">
        <ele>6949.0</ele>
        <time>2020-09-05T06:56:38Z</time>
      </trkpt>
      <trkpt lat="43.29867" lon="-2.3497057">
        <ele>6949.0</ele>
        <time>2020-09-05T06:56:43Z</time>
      </trkpt>
      <trkpt lat="43.29867" lon="-2.3496213">
        <ele>7067.0</ele>
        <time>2020-09-05T06:56:49Z</time>
      </trkpt>
      <trkpt lat="43.29867" lon="-2.3495317">
        <ele>7186.0</ele>
        <time>2020-09-05T06:56:55Z</time>
      </trkpt>
      <trkpt lat="43.29867" lon="-2.34947">
        <ele>7186.0</ele>
        <time>2020-09-05T06:56:59Z</time>
      </trkpt>
      <trkpt lat="43.29867" lon="-2.349397">
        <ele>7313.0</ele>
        <time>2020-09-05T06:57:04Z</time>
      </trkpt>
      <trkpt lat="43.29868" lon="-2.3493226">
        <ele>7313.0</ele>
        <time>2020-09-05T06:57:09Z</time>
      </trkpt>
      <trkpt lat="43.298683" lon="-2.349238">
        <ele>7313.0</ele>
        <time>2020-09-05T06:57:14Z</time>
      </trkpt>
      <trkpt lat="43.29868" lon="-2.34917">
        <ele>7431.0</ele>
        <time>2020-09-05T06:57:18Z</time>
      </trkpt>
      <trkpt lat="43.29867" lon="-2.3491013">
        <ele>7431.0</ele>
        <time>2020-09-05T06:57:23Z</time>
      </trkpt>
      <trkpt lat="43.29867" lon="-2.3490214">
        <ele>7549.0</ele>
        <time>2020-09-05T06:57:28Z</time>
      </trkpt>
      <trkpt lat="43.29867" lon="-2.348954">
        <ele>7549.0</ele>
        <time>2020-09-05T06:57:32Z</time>
      </trkpt>
      <trkpt lat="43.29867" lon="-2.348876">
        <ele>7549.0</ele>
        <time>2020-09-05T06:57:37Z</time>
      </trkpt>
      <trkpt lat="43.29867" lon="-2.3488138">
        <ele>7549.0</ele>
        <time>2020-09-05T06:57:44Z</time>
      </trkpt>
      <trkpt lat="43.29868" lon="-2.3487294">
        <ele>7549.0</ele>
        <time>2020-09-05T06:57:51Z</time>
      </trkpt>
      <trkpt lat="43.29868" lon="-2.3486643">
        <ele>7549.0</ele>
        <time>2020-09-05T06:57:56Z</time>
      </trkpt>
      <trkpt lat="43.29868" lon="-2.348576">
        <ele>7549.0</ele>
        <time>2020-09-05T06:58:03Z</time>
      </trkpt>
      <trkpt lat="43.29868" lon="-2.3484993">
        <ele>7549.0</ele>
        <time>2020-09-05T06:58:08Z</time>
      </trkpt>
      <trkpt lat="43.29868" lon="-2.3484387">
        <ele>1081.0</ele>
        <time>2020-09-05T06:58:12Z</time>
      </trkpt>
      <trkpt lat="43.29867" lon="-2.3483553">
        <ele>1081.0</ele>
        <time>2020-09-05T06:58:19Z</time>
      </trkpt>
      <trkpt lat="43.29868" lon="-2.3482907">
        <ele>772.0</ele>
        <time>2020-09-05T06:58:24Z</time>
      </trkpt>
      <trkpt lat="43.29868" lon="-2.348205">
        <ele>344.0</ele>
        <time>2020-09-05T06:58:30Z</time>
      </trkpt>
      <trkpt lat="43.29867" lon="-2.3481224">
        <ele>226.0</ele>
        <time>2020-09-05T06:58:35Z</time>
      </trkpt>
      <trkpt lat="43.29868" lon="-2.348058">
        <ele>99.0</ele>
        <time>2020-09-05T06:58:40Z</time>
      </trkpt>
      <trkpt lat="43.29867" lon="-2.347979">
        <ele>99.0</ele>
        <time>2020-09-05T06:58:45Z</time>
      </trkpt>
      <trkpt lat="43.29867" lon="-2.3479054">
        <ele>217.0</ele>
        <time>2020-09-05T06:58:50Z</time>
      </trkpt>
      <trkpt lat="43.298687" lon="-2.3478336">
        <ele>335.0</ele>
        <time>2020-09-05T06:58:55Z</time>
      </trkpt>
      <trkpt lat="43.29871" lon="-2.3477623">
        <ele>463.0</ele>
        <time>2020-09-05T06:59:00Z</time>
      </trkpt>
      <trkpt lat="43.298733" lon="-2.3476937">
        <ele>463.0</ele>
        <time>2020-09-05T06:59:04Z</time>
      </trkpt>
      <trkpt lat="43.298748" lon="-2.3476346">
        <ele>590.0</ele>
        <time>2020-09-05T06:59:08Z</time>
      </trkpt>
      <trkpt lat="43.29878" lon="-2.3475707">
        <ele>708.0</ele>
        <time>2020-09-05T06:59:13Z</time>
      </trkpt>
      <trkpt lat="43.298805" lon="-2.3475137">
        <ele>708.0</ele>
        <time>2020-09-05T06:59:18Z</time>
      </trkpt>
      <trkpt lat="43.298843" lon="-2.3474424">
        <ele>826.0</ele>
        <time>2020-09-05T06:59:24Z</time>
      </trkpt>
      <trkpt lat="43.298874" lon="-2.3473794">
        <ele>826.0</ele>
        <time>2020-09-05T06:59:28Z</time>
      </trkpt>
      <trkpt lat="43.298897" lon="-2.347325">
        <ele>953.0</ele>
        <time>2020-09-05T06:59:32Z</time>
      </trkpt>
      <trkpt lat="43.298927" lon="-2.347261">
        <ele>953.0</ele>
        <time>2020-09-05T06:59:37Z</time>
      </trkpt>
      <trkpt lat="43.298958" lon="-2.3471956">
        <ele>1072.0</ele>
        <time>2020-09-05T06:59:42Z</time>
      </trkpt>
      <trkpt lat="43.299" lon="-2.3471375">
        <ele>1199.0</ele>
        <time>2020-09-05T06:59:47Z</time>
      </trkpt>
      <trkpt lat="43.299038" lon="-2.347074">
        <ele>1199.0</ele>
        <time>2020-09-05T06:59:52Z</time>
      </trkpt>
      <trkpt lat="43.29907" lon="-2.3470023">
        <ele>1326.0</ele>
        <time>2020-09-05T06:59:57Z</time>
      </trkpt>
      <trkpt lat="43.299088" lon="-2.346935">
        <ele>1326.0</ele>
        <time>2020-09-05T07:00:01Z</time>
      </trkpt>
      <trkpt lat="43.299103" lon="-2.346862">
        <ele>1326.0</ele>
        <time>2020-09-05T07:00:06Z</time>
      </trkpt>
      <trkpt lat="43.29912" lon="-2.3468006">
        <ele>1326.0</ele>
        <time>2020-09-05T07:00:10Z</time>
      </trkpt>
      <trkpt lat="43.29915" lon="-2.3467233">
        <ele>1326.0</ele>
        <time>2020-09-05T07:00:15Z</time>
      </trkpt>
      <trkpt lat="43.299168" lon="-2.3466434">
        <ele>1172.0</ele>
        <time>2020-09-05T07:00:20Z</time>
      </trkpt>
      <trkpt lat="43.299183" lon="-2.346576">
        <ele>1017.0</ele>
        <time>2020-09-05T07:00:24Z</time>
      </trkpt>
      <trkpt lat="43.2992" lon="-2.3464997">
        <ele>735.0</ele>
        <time>2020-09-05T07:00:29Z</time>
      </trkpt>
      <trkpt lat="43.299217" lon="-2.3464336">
        <ele>735.0</ele>
        <time>2020-09-05T07:00:31Z</time>
      </trkpt>
      <trkpt lat="43.299236" lon="-2.346353">
        <ele>435.0</ele>
        <time>2020-09-05T07:00:38Z</time>
      </trkpt>
      <trkpt lat="43.299263" lon="-2.3462963">
        <ele>308.0</ele>
        <time>2020-09-05T07:00:42Z</time>
      </trkpt>
      <trkpt lat="43.299294" lon="-2.3462262">
        <ele>308.0</ele>
        <time>2020-09-05T07:00:47Z</time>
      </trkpt>
      <trkpt lat="43.299316" lon="-2.3461773">
        <ele>435.0</ele>
        <time>2020-09-05T07:00:51Z</time>
      </trkpt>
      <trkpt lat="43.29936" lon="-2.3461227">
        <ele>581.0</ele>
        <time>2020-09-05T07:00:55Z</time>
      </trkpt>
      <trkpt lat="43.29941" lon="-2.346067">
        <ele>708.0</ele>
        <time>2020-09-05T07:01:00Z</time>
      </trkpt>
      <trkpt lat="43.299458" lon="-2.34601">
        <ele>844.0</ele>
        <time>2020-09-05T07:01:05Z</time>
      </trkpt>
      <trkpt lat="43.299507" lon="-2.345966">
        <ele>963.0</ele>
        <time>2020-09-05T07:01:10Z</time>
      </trkpt>
      <trkpt lat="43.29954" lon="-2.3459218">
        <ele>1090.0</ele>
        <time>2020-09-05T07:01:14Z</time>
      </trkpt>
      <trkpt lat="43.299583" lon="-2.3458717">
        <ele>1090.0</ele>
        <time>2020-09-05T07:01:18Z</time>
      </trkpt>
      <trkpt lat="43.29961" lon="-2.3458226">
        <ele>1235.0</ele>
        <time>2020-09-05T07:01:23Z</time>
      </trkpt>
      <trkpt lat="43.29966" lon="-2.345761">
        <ele>1490.0</ele>
        <time>2020-09-05T07:01:30Z</time>
      </trkpt>
      <trkpt lat="43.29969" lon="-2.34572">
        <ele>1490.0</ele>
        <time>2020-09-05T07:01:34Z</time>
      </trkpt>
      <trkpt lat="43.29973" lon="-2.3456607">
        <ele>1617.0</ele>
        <time>2020-09-05T07:01:40Z</time>
      </trkpt>
      <trkpt lat="43.299767" lon="-2.3456044">
        <ele>1735.0</ele>
        <time>2020-09-05T07:01:45Z</time>
      </trkpt>
      <trkpt lat="43.2998" lon="-2.345538">
        <ele>1735.0</ele>
        <time>2020-09-05T07:01:50Z</time>
      </trkpt>
      <trkpt lat="43.29984" lon="-2.3454723">
        <ele>1853.0</ele>
        <time>2020-09-05T07:01:55Z</time>
      </trkpt>
      <trkpt lat="43.299866" lon="-2.3454177">
        <ele>1981.0</ele>
        <time>2020-09-05T07:01:59Z</time>
      </trkpt>
      <trkpt lat="43.2999" lon="-2.3453503">
        <ele>1981.0</ele>
        <time>2020-09-05T07:02:04Z</time>
      </trkpt>
      <trkpt lat="43.299946" lon="-2.3452883">
        <ele>2108.0</ele>
        <time>2020-09-05T07:02:09Z</time>
      </trkpt>
      <trkpt lat="43.299984" lon="-2.3452373">
        <ele>2108.0</ele>
        <time>2020-09-05T07:02:13Z</time>
      </trkpt>
      <trkpt lat="43.300026" lon="-2.3451884">
        <ele>2226.0</ele>
        <time>2020-09-05T07:02:17Z</time>
      </trkpt>
      <trkpt lat="43.300064" lon="-2.3451467">
        <ele>2226.0</ele>
        <time>2020-09-05T07:02:21Z</time>
      </trkpt>
      <trkpt lat="43.30011" lon="-2.3450994">
        <ele>2344.0</ele>
        <time>2020-09-05T07:02:25Z</time>
      </trkpt>
      <trkpt lat="43.30015" lon="-2.3450613">
        <ele>2344.0</ele>
        <time>2020-09-05T07:02:29Z</time>
      </trkpt>
      <trkpt lat="43.30021" lon="-2.3450167">
        <ele>2344.0</ele>
        <time>2020-09-05T07:02:34Z</time>
      </trkpt>
      <trkpt lat="43.300255" lon="-2.344976">
        <ele>2472.0</ele>
        <time>2020-09-05T07:02:39Z</time>
      </trkpt>
      <trkpt lat="43.300304" lon="-2.344946">
        <ele>2472.0</ele>
        <time>2020-09-05T07:02:43Z</time>
      </trkpt>
      <trkpt lat="43.300358" lon="-2.3449254">
        <ele>2590.0</ele>
        <time>2020-09-05T07:02:47Z</time>
      </trkpt>
      <trkpt lat="43.30042" lon="-2.3448954">
        <ele>2590.0</ele>
        <time>2020-09-05T07:02:52Z</time>
      </trkpt>
      <trkpt lat="43.30047" lon="-2.344877">
        <ele>2708.0</ele>
        <time>2020-09-05T07:02:57Z</time>
      </trkpt>
      <trkpt lat="43.300537" lon="-2.3448687">
        <ele>2708.0</ele>
        <time>2020-09-05T07:03:02Z</time>
      </trkpt>
      <trkpt lat="43.300587" lon="-2.3448787">
        <ele>2835.0</ele>
        <time>2020-09-05T07:03:06Z</time>
      </trkpt>
      <trkpt lat="43.300648" lon="-2.3448977">
        <ele>2835.0</ele>
        <time>2020-09-05T07:03:11Z</time>
      </trkpt>
      <trkpt lat="43.300694" lon="-2.3449256">
        <ele>2835.0</ele>
        <time>2020-09-05T07:03:15Z</time>
      </trkpt>
      <trkpt lat="43.300735" lon="-2.3449523">
        <ele>2835.0</ele>
        <time>2020-09-05T07:03:21Z</time>
      </trkpt>
      <trkpt lat="43.30078" lon="-2.345007">
        <ele>3090.0</ele>
        <time>2020-09-05T07:03:31Z</time>
      </trkpt>
      <trkpt lat="43.300842" lon="-2.3450158">
        <ele>3326.0</ele>
        <time>2020-09-05T07:04:14Z</time>
      </trkpt>
      <trkpt lat="43.300896" lon="-2.344987">
        <ele>3326.0</ele>
        <time>2020-09-05T07:04:21Z</time>
      </trkpt>
      <trkpt lat="43.300945" lon="-2.3449583">
        <ele>3608.0</ele>
        <time>2020-09-05T07:04:27Z</time>
      </trkpt>
      <trkpt lat="43.30099" lon="-2.3449557">
        <ele>3608.0</ele>
        <time>2020-09-05T07:04:33Z</time>
      </trkpt>
      <trkpt lat="43.30106" lon="-2.3449426">
        <ele>3735.0</ele>
        <time>2020-09-05T07:04:39Z</time>
      </trkpt>
      <trkpt lat="43.29855" lon="-2.3353">
        <ele>-2000000.0</ele>
        <time>2020-09-05T07:23:44Z</time>
      </trkpt>
      <trkpt lat="43.29854" lon="-2.3353">
        <ele>-2000000.0</ele>
        <time>2020-09-05T07:23:45Z</time>
      </trkpt>
      <trkpt lat="43.29854" lon="-2.335299">
        <ele>-2000000.0</ele>
        <time>2020-09-05T07:23:46Z</time>
      </trkpt>
      <trkpt lat="43.29854" lon="-2.3352983">
        <ele>-2000000.0</ele>
        <time>2020-09-05T07:23:47Z</time>
      </trkpt>
      <trkpt lat="43.29854" lon="-2.3352964">
        <ele>-2000000.0</ele>
        <time>2020-09-05T07:23:48Z</time>
      </trkpt>
      <trkpt lat="43.298534" lon="-2.3352947">
        <ele>-2000000.0</ele>
        <time>2020-09-05T07:23:49Z</time>
      </trkpt>
      <trkpt lat="43.29853" lon="-2.3352914">
        <ele>-2000000.0</ele>
        <time>2020-09-05T07:23:50Z</time>
      </trkpt>
      <trkpt lat="43.298523" lon="-2.3352883">
        <ele>-2000000.0</ele>
        <time>2020-09-05T07:23:51Z</time>
      </trkpt>
      <trkpt lat="43.298515" lon="-2.335285">
        <ele>-2000000.0</ele>
        <time>2020-09-05T07:23:52Z</time>
      </trkpt>
      <trkpt lat="43.298515" lon="-2.3352826">
        <ele>-2000000.0</ele>
        <time>2020-09-05T07:23:53Z</time>
      </trkpt>
      <trkpt lat="43.298508" lon="-2.3352814">
        <ele>3082.0</ele>
        <time>2020-09-05T07:23:54Z</time>
      </trkpt>
      <trkpt lat="43.2985" lon="-2.3352823">
        <ele>3082.0</ele>
        <time>2020-09-05T07:23:55Z</time>
      </trkpt>
      <trkpt lat="43.298492" lon="-2.3352833">
        <ele>3082.0</ele>
        <time>2020-09-05T07:23:56Z</time>
      </trkpt>
      <trkpt lat="43.298485" lon="-2.335282">
        <ele>3082.0</ele>
        <time>2020-09-05T07:23:57Z</time>
      </trkpt>
      <trkpt lat="43.298473" lon="-2.3352807">
        <ele>3082.0</ele>
        <time>2020-09-05T07:23:58Z</time>
      </trkpt>
      <trkpt lat="43.29847" lon="-2.335279">
        <ele>3082.0</ele>
        <time>2020-09-05T07:23:59Z</time>
      </trkpt>
      <trkpt lat="43.298462" lon="-2.335277">
        <ele>3082.0</ele>
        <time>2020-09-05T07:24:00Z</time>
      </trkpt>
      <trkpt lat="43.29846" lon="-2.3352737">
        <ele>3082.0</ele>
        <time>2020-09-05T07:24:01Z</time>
      </trkpt>
      <trkpt lat="43.298454" lon="-2.335269">
        <ele>3082.0</ele>
        <time>2020-09-05T07:24:02Z</time>
      </trkpt>
      <trkpt lat="43.298412" lon="-2.335238">
        <ele>3082.0</ele>
        <time>2020-09-05T07:24:08Z</time>
      </trkpt>
      <trkpt lat="43.29836" lon="-2.3352213">
        <ele>3209.0</ele>
        <time>2020-09-05T07:24:15Z</time>
      </trkpt>
      <trkpt lat="43.29832" lon="-2.3351917">
        <ele>3536.0</ele>
        <time>2020-09-05T07:24:22Z</time>
      </trkpt>
      <trkpt lat="43.298306" lon="-2.335147">
        <ele>3918.0</ele>
        <time>2020-09-05T07:24:30Z</time>
      </trkpt>
      <trkpt lat="43.29834" lon="-2.335113">
        <ele>4054.0</ele>
        <time>2020-09-05T07:24:39Z</time>
      </trkpt>
      <trkpt lat="43.29839" lon="-2.3351176">
        <ele>4191.0</ele>
        <time>2020-09-05T07:24:47Z</time>
      </trkpt>
      <trkpt lat="43.298447" lon="-2.3351226">
        <ele>4427.0</ele>
        <time>2020-09-05T07:24:54Z</time>
      </trkpt>
      <trkpt lat="43.298492" lon="-2.335086">
        <ele>4572.0</ele>
        <time>2020-09-05T07:25:00Z</time>
      </trkpt>
      <trkpt lat="43.2985" lon="-2.335036">
        <ele>4572.0</ele>
        <time>2020-09-05T07:25:10Z</time>
      </trkpt>
      <trkpt lat="43.29844" lon="-2.3350246">
        <ele>4863.0</ele>
        <time>2020-09-05T07:25:17Z</time>
      </trkpt>
      <trkpt lat="43.298397" lon="-2.3349636">
        <ele>4991.0</ele>
        <time>2020-09-05T07:25:25Z</time>
      </trkpt>
      <trkpt lat="43.298374" lon="-2.3349006">
        <ele>5118.0</ele>
        <time>2020-09-05T07:25:32Z</time>
      </trkpt>
      <trkpt lat="43.298367" lon="-2.334895">
        <ele>5363.0</ele>
        <time>2020-09-05T07:25:47Z</time>
      </trkpt>
      <trkpt lat="43.29844" lon="-2.334903">
        <ele>5482.0</ele>
        <time>2020-09-05T07:25:55Z</time>
      </trkpt>
      <trkpt lat="43.29849" lon="-2.33489">
        <ele>5482.0</ele>
        <time>2020-09-05T07:26:00Z</time>
      </trkpt>
      <trkpt lat="43.298546" lon="-2.334879">
        <ele>5609.0</ele>
        <time>2020-09-05T07:26:05Z</time>
      </trkpt>
      <trkpt lat="43.298584" lon="-2.3348622">
        <ele>5609.0</ele>
        <time>2020-09-05T07:26:11Z</time>
      </trkpt>
      <trkpt lat="43.29855" lon="-2.3348246">
        <ele>5727.0</ele>
        <time>2020-09-05T07:26:24Z</time>
      </trkpt>
      <trkpt lat="43.298515" lon="-2.3347514">
        <ele>5727.0</ele>
        <time>2020-09-05T07:26:31Z</time>
      </trkpt>
      <trkpt lat="43.29847" lon="-2.334715">
        <ele>5727.0</ele>
        <time>2020-09-05T07:26:39Z</time>
      </trkpt>
      <trkpt lat="43.298405" lon="-2.3347013">
        <ele>5591.0</ele>
        <time>2020-09-05T07:26:46Z</time>
      </trkpt>
      <trkpt lat="43.29836" lon="-2.3346794">
        <ele>5591.0</ele>
        <time>2020-09-05T07:26:53Z</time>
      </trkpt>
      <trkpt lat="43.298336" lon="-2.3346243">
        <ele>5591.0</ele>
        <time>2020-09-05T07:27:01Z</time>
      </trkpt>
      <trkpt lat="43.29831" lon="-2.3345556">
        <ele>5591.0</ele>
        <time>2020-09-05T07:27:10Z</time>
      </trkpt>
      <trkpt lat="43.29829" lon="-2.3344958">
        <ele>5709.0</ele>
        <time>2020-09-05T07:27:20Z</time>
      </trkpt>
      <trkpt lat="43.298275" lon="-2.3344297">
        <ele>5827.0</ele>
        <time>2020-09-05T07:27:29Z</time>
      </trkpt>
      <trkpt lat="43.298237" lon="-2.33444">
        <ele>5827.0</ele>
        <time>2020-09-05T07:27:40Z</time>
      </trkpt>
      <trkpt lat="43.298218" lon="-2.3343334">
        <ele>4972.0</ele>
        <time>2020-09-05T07:28:54Z</time>
      </trkpt>
      <trkpt lat="43.298164" lon="-2.3342865">
        <ele>4845.0</ele>
        <time>2020-09-05T07:29:00Z</time>
      </trkpt>
      <trkpt lat="43.29814" lon="-2.334231">
        <ele>4845.0</ele>
        <time>2020-09-05T07:29:05Z</time>
      </trkpt>
      <trkpt lat="43.29813" lon="-2.334144">
        <ele>4845.0</ele>
        <time>2020-09-05T07:29:12Z</time>
      </trkpt>
      <trkpt lat="43.29814" lon="-2.3340716">
        <ele>4845.0</ele>
        <time>2020-09-05T07:29:17Z</time>
      </trkpt>
      <trkpt lat="43.298126" lon="-2.3340034">
        <ele>4963.0</ele>
        <time>2020-09-05T07:29:23Z</time>
      </trkpt>
      <trkpt lat="43.29811" lon="-2.3339334">
        <ele>5082.0</ele>
        <time>2020-09-05T07:29:31Z</time>
      </trkpt>
      <trkpt lat="43.29808" lon="-2.3338766">
        <ele>5082.0</ele>
        <time>2020-09-05T07:29:38Z</time>
      </trkpt>
      <trkpt lat="43.29804" lon="-2.3338296">
        <ele>5082.0</ele>
        <time>2020-09-05T07:29:43Z</time>
      </trkpt>
      <trkpt lat="43.297993" lon="-2.333791">
        <ele>5082.0</ele>
        <time>2020-09-05T07:29:48Z</time>
      </trkpt>
      <trkpt lat="43.297935" lon="-2.3337862">
        <ele>5082.0</ele>
        <time>2020-09-05T07:29:53Z</time>
      </trkpt>
      <trkpt lat="43.297894" lon="-2.3337567">
        <ele>5082.0</ele>
        <time>2020-09-05T07:30:00Z</time>
      </trkpt>
      <trkpt lat="43.297848" lon="-2.3337193">
        <ele>5082.0</ele>
        <time>2020-09-05T07:30:06Z</time>
      </trkpt>
      <trkpt lat="43.29779" lon="-2.333675">
        <ele>5082.0</ele>
        <time>2020-09-05T07:30:11Z</time>
      </trkpt>
      <trkpt lat="43.29776" lon="-2.3336253">
        <ele>5082.0</ele>
        <time>2020-09-05T07:30:16Z</time>
      </trkpt>
      <trkpt lat="43.29774" lon="-2.3335574">
        <ele>5082.0</ele>
        <time>2020-09-05T07:30:23Z</time>
      </trkpt>
      <trkpt lat="43.297707" lon="-2.3335047">
        <ele>5082.0</ele>
        <time>2020-09-05T07:30:30Z</time>
      </trkpt>
      <trkpt lat="43.29767" lon="-2.3334522">
        <ele>5082.0</ele>
        <time>2020-09-05T07:30:35Z</time>
      </trkpt>
      <trkpt lat="43.297634" lon="-2.33339">
        <ele>5082.0</ele>
        <time>2020-09-05T07:30:42Z</time>
      </trkpt>
      <trkpt lat="43.297623" lon="-2.333317">
        <ele>5082.0</ele>
        <time>2020-09-05T07:30:47Z</time>
      </trkpt>
      <trkpt lat="43.297592" lon="-2.3332527">
        <ele>5082.0</ele>
        <time>2020-09-05T07:30:55Z</time>
      </trkpt>
      <trkpt lat="43.297596" lon="-2.333174">
        <ele>5082.0</ele>
        <time>2020-09-05T07:31:02Z</time>
      </trkpt>
      <trkpt lat="43.297573" lon="-2.333119">
        <ele>5082.0</ele>
        <time>2020-09-05T07:31:10Z</time>
      </trkpt>
      <trkpt lat="43.297527" lon="-2.3330727">
        <ele>5082.0</ele>
        <time>2020-09-05T07:31:15Z</time>
      </trkpt>
      <trkpt lat="43.297504" lon="-2.3330092">
        <ele>5200.0</ele>
        <time>2020-09-05T07:31:20Z</time>
      </trkpt>
      <trkpt lat="43.297543" lon="-2.3329797">
        <ele>5327.0</ele>
        <time>2020-09-05T07:31:27Z</time>
      </trkpt>
      <trkpt lat="43.297592" lon="-2.3329663">
        <ele>5327.0</ele>
        <time>2020-09-05T07:31:39Z</time>
      </trkpt>
      <trkpt lat="43.297626" lon="-2.3330123">
        <ele>5327.0</ele>
        <time>2020-09-05T07:31:48Z</time>
      </trkpt>
      <trkpt lat="43.297657" lon="-2.3330553">
        <ele>5327.0</ele>
        <time>2020-09-05T07:31:59Z</time>
      </trkpt>
      <trkpt lat="43.29768" lon="-2.3331277">
        <ele>5327.0</ele>
        <time>2020-09-05T07:32:08Z</time>
      </trkpt>
      <trkpt lat="43.29772" lon="-2.333162">
        <ele>5327.0</ele>
        <time>2020-09-05T07:32:16Z</time>
      </trkpt>
      <trkpt lat="43.297775" lon="-2.33318">
        <ele>4927.0</ele>
        <time>2020-09-05T07:32:25Z</time>
      </trkpt>
      <trkpt lat="43.29782" lon="-2.3331363">
        <ele>4663.0</ele>
        <time>2020-09-05T07:32:30Z</time>
      </trkpt>
      <trkpt lat="43.297848" lon="-2.333083">
        <ele>4527.0</ele>
        <time>2020-09-05T07:32:35Z</time>
      </trkpt>
      <trkpt lat="43.297836" lon="-2.3330133">
        <ele>4263.0</ele>
        <time>2020-09-05T07:32:43Z</time>
      </trkpt>
      <trkpt lat="43.297802" lon="-2.3329656">
        <ele>3982.0</ele>
        <time>2020-09-05T07:32:53Z</time>
      </trkpt>
      <trkpt lat="43.29779" lon="-2.3328757">
        <ele>3982.0</ele>
        <time>2020-09-05T07:33:01Z</time>
      </trkpt>
      <trkpt lat="43.297813" lon="-2.3328154">
        <ele>3863.0</ele>
        <time>2020-09-05T07:33:06Z</time>
      </trkpt>
      <trkpt lat="43.297806" lon="-2.332744">
        <ele>3863.0</ele>
        <time>2020-09-05T07:33:14Z</time>
      </trkpt>
      <trkpt lat="43.297783" lon="-2.332685">
        <ele>3863.0</ele>
        <time>2020-09-05T07:33:23Z</time>
      </trkpt>
      <trkpt lat="43.29777" lon="-2.332604">
        <ele>3863.0</ele>
        <time>2020-09-05T07:33:29Z</time>
      </trkpt>
      <trkpt lat="43.297768" lon="-2.3325357">
        <ele>4000.0</ele>
        <time>2020-09-05T07:33:35Z</time>
      </trkpt>
      <trkpt lat="43.297787" lon="-2.3324723">
        <ele>4118.0</ele>
        <time>2020-09-05T07:33:48Z</time>
      </trkpt>
      <trkpt lat="43.297886" lon="-2.3324997">
        <ele>4236.0</ele>
        <time>2020-09-05T07:34:26Z</time>
      </trkpt>
      <trkpt lat="43.297947" lon="-2.3324974">
        <ele>4236.0</ele>
        <time>2020-09-05T07:34:36Z</time>
      </trkpt>
      <trkpt lat="43.297993" lon="-2.3324687">
        <ele>4409.0</ele>
        <time>2020-09-05T07:34:42Z</time>
      </trkpt>
      <trkpt lat="43.298042" lon="-2.3324547">
        <ele>4409.0</ele>
        <time>2020-09-05T07:34:48Z</time>
      </trkpt>
      <trkpt lat="43.298096" lon="-2.3324394">
        <ele>4282.0</ele>
        <time>2020-09-05T07:34:54Z</time>
      </trkpt>
      <trkpt lat="43.29814" lon="-2.3324094">
        <ele>4282.0</ele>
        <time>2020-09-05T07:35:00Z</time>
      </trkpt>
      <trkpt lat="43.298187" lon="-2.3323736">
        <ele>4400.0</ele>
        <time>2020-09-05T07:35:07Z</time>
      </trkpt>
      <trkpt lat="43.298233" lon="-2.3323367">
        <ele>4400.0</ele>
        <time>2020-09-05T07:35:13Z</time>
      </trkpt>
      <trkpt lat="43.298264" lon="-2.3322773">
        <ele>4400.0</ele>
        <time>2020-09-05T07:35:19Z</time>
      </trkpt>
      <trkpt lat="43.29826" lon="-2.332205">
        <ele>4400.0</ele>
        <time>2020-09-05T07:35:25Z</time>
      </trkpt>
      <trkpt lat="43.298225" lon="-2.3321357">
        <ele>4527.0</ele>
        <time>2020-09-05T07:35:31Z</time>
      </trkpt>
      <trkpt lat="43.298195" lon="-2.332077">
        <ele>4527.0</ele>
        <time>2020-09-05T07:35:35Z</time>
      </trkpt>
      <trkpt lat="43.298164" lon="-2.3320184">
        <ele>4663.0</ele>
        <time>2020-09-05T07:35:40Z</time>
      </trkpt>
      <trkpt lat="43.29814" lon="-2.331957">
        <ele>4791.0</ele>
        <time>2020-09-05T07:35:46Z</time>
      </trkpt>
      <trkpt lat="43.29811" lon="-2.3319037">
        <ele>4909.0</ele>
        <time>2020-09-05T07:35:52Z</time>
      </trkpt>
      <trkpt lat="43.298073" lon="-2.3318477">
        <ele>5027.0</ele>
        <time>2020-09-05T07:36:01Z</time>
      </trkpt>
      <trkpt lat="43.298058" lon="-2.331767">
        <ele>5027.0</ele>
        <time>2020-09-05T07:36:08Z</time>
      </trkpt>
      <trkpt lat="43.298065" lon="-2.3317006">
        <ele>5027.0</ele>
        <time>2020-09-05T07:36:13Z</time>
      </trkpt>
      <trkpt lat="43.298088" lon="-2.3316503">
        <ele>5145.0</ele>
        <time>2020-09-05T07:36:18Z</time>
      </trkpt>
      <trkpt lat="43.298134" lon="-2.331596">
        <ele>5263.0</ele>
        <time>2020-09-05T07:36:28Z</time>
      </trkpt>
      <trkpt lat="43.29818" lon="-2.3315613">
        <ele>5263.0</ele>
        <time>2020-09-05T07:36:33Z</time>
      </trkpt>
      <trkpt lat="43.29822" lon="-2.3315113">
        <ele>5382.0</ele>
        <time>2020-09-05T07:36:39Z</time>
      </trkpt>
      <trkpt lat="43.29824" lon="-2.3314514">
        <ele>5382.0</ele>
        <time>2020-09-05T07:36:46Z</time>
      </trkpt>
      <trkpt lat="43.29826" lon="-2.3313837">
        <ele>5500.0</ele>
        <time>2020-09-05T07:36:53Z</time>
      </trkpt>
      <trkpt lat="43.298275" lon="-2.3313034">
        <ele>5500.0</ele>
        <time>2020-09-05T07:37:01Z</time>
      </trkpt>
      <trkpt lat="43.298275" lon="-2.3312273">
        <ele>5345.0</ele>
        <time>2020-09-05T07:37:07Z</time>
      </trkpt>
      <trkpt lat="43.298264" lon="-2.3311586">
        <ele>5063.0</ele>
        <time>2020-09-05T07:37:12Z</time>
      </trkpt>
      <trkpt lat="43.29826" lon="-2.3310864">
        <ele>4936.0</ele>
        <time>2020-09-05T07:37:18Z</time>
      </trkpt>
      <trkpt lat="43.298225" lon="-2.331017">
        <ele>4936.0</ele>
        <time>2020-09-05T07:37:24Z</time>
      </trkpt>
      <trkpt lat="43.298206" lon="-2.3309584">
        <ele>4936.0</ele>
        <time>2020-09-05T07:37:30Z</time>
      </trkpt>
      <trkpt lat="43.29818" lon="-2.3308926">
        <ele>4936.0</ele>
        <time>2020-09-05T07:37:37Z</time>
      </trkpt>
      <trkpt lat="43.29815" lon="-2.3308287">
        <ele>4936.0</ele>
        <time>2020-09-05T07:37:43Z</time>
      </trkpt>
      <trkpt lat="43.298126" lon="-2.3307748">
        <ele>4936.0</ele>
        <time>2020-09-05T07:37:51Z</time>
      </trkpt>
      <trkpt lat="43.298103" lon="-2.330692">
        <ele>4936.0</ele>
        <time>2020-09-05T07:38:00Z</time>
      </trkpt>
      <trkpt lat="43.297997" lon="-2.3305986">
        <ele>4936.0</ele>
        <time>2020-09-05T07:39:22Z</time>
      </trkpt>
      <trkpt lat="43.297955" lon="-2.3305416">
        <ele>3809.0</ele>
        <time>2020-09-05T07:39:30Z</time>
      </trkpt>
      <trkpt lat="43.297947" lon="-2.3304713">
        <ele>3354.0</ele>
        <time>2020-09-05T07:39:40Z</time>
      </trkpt>
      <trkpt lat="43.29792" lon="-2.330386">
        <ele>3227.0</ele>
        <time>2020-09-05T07:39:49Z</time>
      </trkpt>
      <trkpt lat="43.297916" lon="-2.3302944">
        <ele>3109.0</ele>
        <time>2020-09-05T07:40:01Z</time>
      </trkpt>
      <trkpt lat="43.2979" lon="-2.3302164">
        <ele>3109.0</ele>
        <time>2020-09-05T07:40:07Z</time>
      </trkpt>
      <trkpt lat="43.297863" lon="-2.3301544">
        <ele>2991.0</ele>
        <time>2020-09-05T07:40:13Z</time>
      </trkpt>
      <trkpt lat="43.29783" lon="-2.3301017">
        <ele>2991.0</ele>
        <time>2020-09-05T07:40:18Z</time>
      </trkpt>
      <trkpt lat="43.29779" lon="-2.330057">
        <ele>2991.0</ele>
        <time>2020-09-05T07:40:23Z</time>
      </trkpt>
      <trkpt lat="43.29774" lon="-2.3299847">
        <ele>2872.0</ele>
        <time>2020-09-05T07:40:29Z</time>
      </trkpt>
      <trkpt lat="43.297695" lon="-2.3299313">
        <ele>2872.0</ele>
        <time>2020-09-05T07:40:35Z</time>
      </trkpt>
      <trkpt lat="43.297665" lon="-2.329879">
        <ele>2872.0</ele>
        <time>2020-09-05T07:40:40Z</time>
      </trkpt>
      <trkpt lat="43.297626" lon="-2.3298278">
        <ele>2754.0</ele>
        <time>2020-09-05T07:40:46Z</time>
      </trkpt>
      <trkpt lat="43.297604" lon="-2.3297634">
        <ele>2754.0</ele>
        <time>2020-09-05T07:40:52Z</time>
      </trkpt>
      <trkpt lat="43.297565" lon="-2.3297098">
        <ele>2627.0</ele>
        <time>2020-09-05T07:40:59Z</time>
      </trkpt>
      <trkpt lat="43.297527" lon="-2.3296597">
        <ele>2627.0</ele>
        <time>2020-09-05T07:41:07Z</time>
      </trkpt>
      <trkpt lat="43.29749" lon="-2.3296037">
        <ele>2627.0</ele>
        <time>2020-09-05T07:41:12Z</time>
      </trkpt>
      <trkpt lat="43.297455" lon="-2.3295386">
        <ele>2627.0</ele>
        <time>2020-09-05T07:41:17Z</time>
      </trkpt>
      <trkpt lat="43.297424" lon="-2.3294704">
        <ele>2627.0</ele>
        <time>2020-09-05T07:41:23Z</time>
      </trkpt>
      <trkpt lat="43.297386" lon="-2.3294294">
        <ele>2627.0</ele>
        <time>2020-09-05T07:41:27Z</time>
      </trkpt>
      <trkpt lat="43.297348" lon="-2.3293843">
        <ele>2627.0</ele>
        <time>2020-09-05T07:41:32Z</time>
      </trkpt>
      <trkpt lat="43.29732" lon="-2.3293242">
        <ele>2627.0</ele>
        <time>2020-09-05T07:41:38Z</time>
      </trkpt>
      <trkpt lat="43.297287" lon="-2.3292646">
        <ele>2454.0</ele>
        <time>2020-09-05T07:41:44Z</time>
      </trkpt>
      <trkpt lat="43.297245" lon="-2.3292127">
        <ele>2454.0</ele>
        <time>2020-09-05T07:41:49Z</time>
      </trkpt>
      <trkpt lat="43.29719" lon="-2.3291664">
        <ele>2454.0</ele>
        <time>2020-09-05T07:41:55Z</time>
      </trkpt>
      <trkpt lat="43.297157" lon="-2.3291128">
        <ele>2454.0</ele>
        <time>2020-09-05T07:42:00Z</time>
      </trkpt>
      <trkpt lat="43.297115" lon="-2.3290563">
        <ele>2336.0</ele>
        <time>2020-09-05T07:42:05Z</time>
      </trkpt>
      <trkpt lat="43.297073" lon="-2.3290043">
        <ele>2336.0</ele>
        <time>2020-09-05T07:42:10Z</time>
      </trkpt>
      <trkpt lat="43.297043" lon="-2.32895">
        <ele>2336.0</ele>
        <time>2020-09-05T07:42:15Z</time>
      </trkpt>
      <trkpt lat="43.297005" lon="-2.328897">
        <ele>2218.0</ele>
        <time>2020-09-05T07:42:21Z</time>
      </trkpt>
      <trkpt lat="43.296967" lon="-2.3288503">
        <ele>2218.0</ele>
        <time>2020-09-05T07:42:26Z</time>
      </trkpt>
      <trkpt lat="43.29693" lon="-2.3287947">
        <ele>2218.0</ele>
        <time>2020-09-05T07:42:31Z</time>
      </trkpt>
      <trkpt lat="43.296906" lon="-2.328733">
        <ele>2100.0</ele>
        <time>2020-09-05T07:42:35Z</time>
      </trkpt>
      <trkpt lat="43.296864" lon="-2.3286693">
        <ele>2100.0</ele>
        <time>2020-09-05T07:42:40Z</time>
      </trkpt>
      <trkpt lat="43.29684" lon="-2.328614">
        <ele>1982.0</ele>
        <time>2020-09-05T07:42:44Z</time>
      </trkpt>
      <trkpt lat="43.296795" lon="-2.3285518">
        <ele>1982.0</ele>
        <time>2020-09-05T07:42:49Z</time>
      </trkpt>
      <trkpt lat="43.296753" lon="-2.3285024">
        <ele>1863.0</ele>
        <time>2020-09-05T07:42:54Z</time>
      </trkpt>
      <trkpt lat="43.29672" lon="-2.3284538">
        <ele>1863.0</ele>
        <time>2020-09-05T07:42:58Z</time>
      </trkpt>
      <trkpt lat="43.296684" lon="-2.3283937">
        <ele>1863.0</ele>
        <time>2020-09-05T07:43:03Z</time>
      </trkpt>
      <trkpt lat="43.29664" lon="-2.3283374">
        <ele>1863.0</ele>
        <time>2020-09-05T07:43:08Z</time>
      </trkpt>
      <trkpt lat="43.296608" lon="-2.328293">
        <ele>1863.0</ele>
        <time>2020-09-05T07:43:12Z</time>
      </trkpt>
      <trkpt lat="43.296577" lon="-2.328231">
        <ele>1863.0</ele>
        <time>2020-09-05T07:43:17Z</time>
      </trkpt>
      <trkpt lat="43.29653" lon="-2.3281703">
        <ele>1863.0</ele>
        <time>2020-09-05T07:43:23Z</time>
      </trkpt>
      <trkpt lat="43.296497" lon="-2.3281107">
        <ele>1863.0</ele>
        <time>2020-09-05T07:43:28Z</time>
      </trkpt>
      <trkpt lat="43.296467" lon="-2.3280528">
        <ele>1863.0</ele>
        <time>2020-09-05T07:43:33Z</time>
      </trkpt>
      <trkpt lat="43.29643" lon="-2.3279824">
        <ele>1863.0</ele>
        <time>2020-09-05T07:43:40Z</time>
      </trkpt>
      <trkpt lat="43.2964" lon="-2.3279357">
        <ele>1863.0</ele>
        <time>2020-09-05T07:43:45Z</time>
      </trkpt>
      <trkpt lat="43.29636" lon="-2.327884">
        <ele>1863.0</ele>
        <time>2020-09-05T07:43:50Z</time>
      </trkpt>
      <trkpt lat="43.29633" lon="-2.3278272">
        <ele>1863.0</ele>
        <time>2020-09-05T07:43:55Z</time>
      </trkpt>
      <trkpt lat="43.296288" lon="-2.3277717">
        <ele>1863.0</ele>
        <time>2020-09-05T07:44:00Z</time>
      </trkpt>
      <trkpt lat="43.29625" lon="-2.327715">
        <ele>1863.0</ele>
        <time>2020-09-05T07:44:05Z</time>
      </trkpt>
      <trkpt lat="43.29622" lon="-2.3276584">
        <ele>1863.0</ele>
        <time>2020-09-05T07:44:13Z</time>
      </trkpt>
      <trkpt lat="43.296196" lon="-2.327587">
        <ele>1863.0</ele>
        <time>2020-09-05T07:44:19Z</time>
      </trkpt>
      <trkpt lat="43.296165" lon="-2.3275256">
        <ele>1863.0</ele>
        <time>2020-09-05T07:44:25Z</time>
      </trkpt>
      <trkpt lat="43.296127" lon="-2.3274686">
        <ele>1545.0</ele>
        <time>2020-09-05T07:44:31Z</time>
      </trkpt>
      <trkpt lat="43.296097" lon="-2.327395">
        <ele>1082.0</ele>
        <time>2020-09-05T07:44:37Z</time>
      </trkpt>
      <trkpt lat="43.29607" lon="-2.327338">
        <ele>945.0</ele>
        <time>2020-09-05T07:44:42Z</time>
      </trkpt>
      <trkpt lat="43.296055" lon="-2.3272624">
        <ele>945.0</ele>
        <time>2020-09-05T07:44:48Z</time>
      </trkpt>
      <trkpt lat="43.296032" lon="-2.3272014">
        <ele>945.0</ele>
        <time>2020-09-05T07:44:53Z</time>
      </trkpt>
      <trkpt lat="43.296" lon="-2.3271372">
        <ele>1072.0</ele>
        <time>2020-09-05T07:44:58Z</time>
      </trkpt>
      <trkpt lat="43.295975" lon="-2.3270698">
        <ele>1072.0</ele>
        <time>2020-09-05T07:45:03Z</time>
      </trkpt>
      <trkpt lat="43.295956" lon="-2.3269963">
        <ele>1191.0</ele>
        <time>2020-09-05T07:45:08Z</time>
      </trkpt>
      <trkpt lat="43.295944" lon="-2.326926">
        <ele>1191.0</ele>
        <time>2020-09-05T07:45:13Z</time>
      </trkpt>
      <trkpt lat="43.29592" lon="-2.32685">
        <ele>1309.0</ele>
        <time>2020-09-05T07:45:19Z</time>
      </trkpt>
      <trkpt lat="43.295914" lon="-2.326776">
        <ele>1309.0</ele>
        <time>2020-09-05T07:45:24Z</time>
      </trkpt>
      <trkpt lat="43.2959" lon="-2.3267043">
        <ele>1427.0</ele>
        <time>2020-09-05T07:45:29Z</time>
      </trkpt>
      <trkpt lat="43.295883" lon="-2.3266277">
        <ele>1427.0</ele>
        <time>2020-09-05T07:45:34Z</time>
      </trkpt>
      <trkpt lat="43.29587" lon="-2.3265524">
        <ele>1545.0</ele>
        <time>2020-09-05T07:45:39Z</time>
      </trkpt>
      <trkpt lat="43.29586" lon="-2.3264756">
        <ele>1545.0</ele>
        <time>2020-09-05T07:45:44Z</time>
      </trkpt>
      <trkpt lat="43.295845" lon="-2.3263984">
        <ele>1545.0</ele>
        <time>2020-09-05T07:45:50Z</time>
      </trkpt>
      <trkpt lat="43.29584" lon="-2.3263314">
        <ele>1545.0</ele>
        <time>2020-09-05T07:45:55Z</time>
      </trkpt>
      <trkpt lat="43.295845" lon="-2.3262484">
        <ele>1545.0</ele>
        <time>2020-09-05T07:46:01Z</time>
      </trkpt>
      <trkpt lat="43.295845" lon="-2.3261867">
        <ele>1545.0</ele>
        <time>2020-09-05T07:46:06Z</time>
      </trkpt>
      <trkpt lat="43.29584" lon="-2.326106">
        <ele>1663.0</ele>
        <time>2020-09-05T07:46:12Z</time>
      </trkpt>
      <trkpt lat="43.295826" lon="-2.326025">
        <ele>1663.0</ele>
        <time>2020-09-05T07:46:18Z</time>
      </trkpt>
      <trkpt lat="43.295746" lon="-2.3259566">
        <ele>1663.0</ele>
        <time>2020-09-05T07:46:51Z</time>
      </trkpt>
      <trkpt lat="43.29583" lon="-2.3259366">
        <ele>1182.0</ele>
        <time>2020-09-05T07:48:41Z</time>
      </trkpt>
      <trkpt lat="43.29583" lon="-2.325875">
        <ele>1182.0</ele>
        <time>2020-09-05T07:48:59Z</time>
      </trkpt>
      <trkpt lat="43.29584" lon="-2.3257923">
        <ele>972.0</ele>
        <time>2020-09-05T07:49:06Z</time>
      </trkpt>
      <trkpt lat="43.295853" lon="-2.3257167">
        <ele>845.0</ele>
        <time>2020-09-05T07:49:11Z</time>
      </trkpt>
      <trkpt lat="43.295856" lon="-2.3256536">
        <ele>1009.0</ele>
        <time>2020-09-05T07:49:16Z</time>
      </trkpt>
      <trkpt lat="43.295822" lon="-2.3255386">
        <ele>1600.0</ele>
        <time>2020-09-05T07:49:39Z</time>
      </trkpt>
      <trkpt lat="43.295822" lon="-2.325459">
        <ele>1600.0</ele>
        <time>2020-09-05T07:49:46Z</time>
      </trkpt>
      <trkpt lat="43.29581" lon="-2.3253803">
        <ele>1718.0</ele>
        <time>2020-09-05T07:49:53Z</time>
      </trkpt>
      <trkpt lat="43.29581" lon="-2.3253093">
        <ele>1845.0</ele>
        <time>2020-09-05T07:49:58Z</time>
      </trkpt>
      <trkpt lat="43.29581" lon="-2.3252304">
        <ele>1972.0</ele>
        <time>2020-09-05T07:50:04Z</time>
      </trkpt>
      <trkpt lat="43.29581" lon="-2.3251767">
        <ele>2100.0</ele>
        <time>2020-09-05T07:50:10Z</time>
      </trkpt>
      <trkpt lat="43.29577" lon="-2.3251553">
        <ele>1791.0</ele>
        <time>2020-09-05T07:50:22Z</time>
      </trkpt>
      <trkpt lat="43.295727" lon="-2.3252478">
        <ele>2418.0</ele>
        <time>2020-09-05T07:51:17Z</time>
      </trkpt>
      <trkpt lat="43.295708" lon="-2.3251956">
        <ele>6118.0</ele>
        <time>2020-09-05T07:51:41Z</time>
      </trkpt>
      <trkpt lat="43.29576" lon="-2.324555">
        <ele>6791.0</ele>
        <time>2020-09-05T07:52:48Z</time>
      </trkpt>
      <trkpt lat="43.29569" lon="-2.3246098">
        <ele>6791.0</ele>
        <time>2020-09-05T07:53:14Z</time>
      </trkpt>
      <trkpt lat="43.29565" lon="-2.3245656">
        <ele>6791.0</ele>
        <time>2020-09-05T07:54:12Z</time>
      </trkpt>
      <trkpt lat="43.29565" lon="-2.3245296">
        <ele>6909.0</ele>
        <time>2020-09-05T07:54:32Z</time>
      </trkpt>
      <trkpt lat="43.295635" lon="-2.3244596">
        <ele>6909.0</ele>
        <time>2020-09-05T07:54:37Z</time>
      </trkpt>
      <trkpt lat="43.295635" lon="-2.3244216">
        <ele>6909.0</ele>
        <time>2020-09-05T07:55:28Z</time>
      </trkpt>
      <trkpt lat="43.29562" lon="-2.324362">
        <ele>6909.0</ele>
        <time>2020-09-05T07:55:33Z</time>
      </trkpt>
      <trkpt lat="43.295628" lon="-2.3242748">
        <ele>6909.0</ele>
        <time>2020-09-05T07:55:49Z</time>
      </trkpt>
      <trkpt lat="43.295628" lon="-2.3242054">
        <ele>6909.0</ele>
        <time>2020-09-05T07:55:55Z</time>
      </trkpt>
      <trkpt lat="43.295605" lon="-2.32411">
        <ele>6909.0</ele>
        <time>2020-09-05T07:56:04Z</time>
      </trkpt>
      <trkpt lat="43.29559" lon="-2.3240287">
        <ele>6909.0</ele>
        <time>2020-09-05T07:56:09Z</time>
      </trkpt>
      <trkpt lat="43.295586" lon="-2.323955">
        <ele>6909.0</ele>
        <time>2020-09-05T07:56:16Z</time>
      </trkpt>
      <trkpt lat="43.295567" lon="-2.323887">
        <ele>6909.0</ele>
        <time>2020-09-05T07:56:25Z</time>
      </trkpt>
      <trkpt lat="43.29554" lon="-2.3238063">
        <ele>6909.0</ele>
        <time>2020-09-05T07:56:31Z</time>
      </trkpt>
      <trkpt lat="43.295532" lon="-2.323741">
        <ele>7027.0</ele>
        <time>2020-09-05T07:56:35Z</time>
      </trkpt>
      <trkpt lat="43.295525" lon="-2.3236613">
        <ele>7027.0</ele>
        <time>2020-09-05T07:56:40Z</time>
      </trkpt>
      <trkpt lat="43.29551" lon="-2.3235984">
        <ele>7027.0</ele>
        <time>2020-09-05T07:56:44Z</time>
      </trkpt>
      <trkpt lat="43.295486" lon="-2.3235183">
        <ele>7146.0</ele>
        <time>2020-09-05T07:56:49Z</time>
      </trkpt>
      <trkpt lat="43.29547" lon="-2.3234453">
        <ele>7146.0</ele>
        <time>2020-09-05T07:56:54Z</time>
      </trkpt>
      <trkpt lat="43.295456" lon="-2.323382">
        <ele>7273.0</ele>
        <time>2020-09-05T07:56:59Z</time>
      </trkpt>
      <trkpt lat="43.29545" lon="-2.323298">
        <ele>7273.0</ele>
        <time>2020-09-05T07:57:05Z</time>
      </trkpt>
      <trkpt lat="43.295437" lon="-2.3232176">
        <ele>7391.0</ele>
        <time>2020-09-05T07:57:10Z</time>
      </trkpt>
      <trkpt lat="43.29542" lon="-2.3231413">
        <ele>7391.0</ele>
        <time>2020-09-05T07:57:15Z</time>
      </trkpt>
      <trkpt lat="43.295403" lon="-2.3230793">
        <ele>7518.0</ele>
        <time>2020-09-05T07:57:19Z</time>
      </trkpt>
      <trkpt lat="43.295372" lon="-2.3230042">
        <ele>7518.0</ele>
        <time>2020-09-05T07:57:24Z</time>
      </trkpt>
      <trkpt lat="43.295357" lon="-2.32294">
        <ele>7637.0</ele>
        <time>2020-09-05T07:57:28Z</time>
      </trkpt>
      <trkpt lat="43.29533" lon="-2.3228836">
        <ele>7637.0</ele>
        <time>2020-09-05T07:57:33Z</time>
      </trkpt>
      <trkpt lat="43.295315" lon="-2.322815">
        <ele>7637.0</ele>
        <time>2020-09-05T07:57:39Z</time>
      </trkpt>
      <trkpt lat="43.2953" lon="-2.322736">
        <ele>7755.0</ele>
        <time>2020-09-05T07:57:47Z</time>
      </trkpt>
      <trkpt lat="43.295284" lon="-2.322667">
        <ele>7755.0</ele>
        <time>2020-09-05T07:57:52Z</time>
      </trkpt>
      <trkpt lat="43.29526" lon="-2.3225956">
        <ele>7755.0</ele>
        <time>2020-09-05T07:57:57Z</time>
      </trkpt>
      <trkpt lat="43.295242" lon="-2.3225203">
        <ele>7746.0</ele>
        <time>2020-09-05T07:58:03Z</time>
      </trkpt>
      <trkpt lat="43.295227" lon="-2.3224456">
        <ele>7746.0</ele>
        <time>2020-09-05T07:58:08Z</time>
      </trkpt>
      <trkpt lat="43.2952" lon="-2.3223734">
        <ele>7873.0</ele>
        <time>2020-09-05T07:58:13Z</time>
      </trkpt>
      <trkpt lat="43.295177" lon="-2.3223114">
        <ele>7991.0</ele>
        <time>2020-09-05T07:58:18Z</time>
      </trkpt>
      <trkpt lat="43.295143" lon="-2.322304">
        <ele>7991.0</ele>
        <time>2020-09-05T07:58:31Z</time>
      </trkpt>
      <trkpt lat="43.29509" lon="-2.3223414">
        <ele>8109.0</ele>
        <time>2020-09-05T07:58:40Z</time>
      </trkpt>
      <trkpt lat="43.295044" lon="-2.3224072">
        <ele>8109.0</ele>
        <time>2020-09-05T07:59:03Z</time>
      </trkpt>
      <trkpt lat="43.295033" lon="-2.322479">
        <ele>8109.0</ele>
        <time>2020-09-05T07:59:10Z</time>
      </trkpt>
      <trkpt lat="43.295036" lon="-2.3225596">
        <ele>8109.0</ele>
        <time>2020-09-05T07:59:19Z</time>
      </trkpt>
      <trkpt lat="43.295048" lon="-2.322634">
        <ele>8109.0</ele>
        <time>2020-09-05T07:59:24Z</time>
      </trkpt>
      <trkpt lat="43.295033" lon="-2.3226967">
        <ele>8109.0</ele>
        <time>2020-09-05T07:59:30Z</time>
      </trkpt>
      <trkpt lat="43.295" lon="-2.3227386">
        <ele>8109.0</ele>
        <time>2020-09-05T07:59:39Z</time>
      </trkpt>
      <trkpt lat="43.29495" lon="-2.3227844">
        <ele>8109.0</ele>
        <time>2020-09-05T07:59:50Z</time>
      </trkpt>
      <trkpt lat="43.294903" lon="-2.3228087">
        <ele>8109.0</ele>
        <time>2020-09-05T07:59:59Z</time>
      </trkpt>
      <trkpt lat="43.294853" lon="-2.3228407">
        <ele>8273.0</ele>
        <time>2020-09-05T08:00:09Z</time>
      </trkpt>
      <trkpt lat="43.294804" lon="-2.322857">
        <ele>8273.0</ele>
        <time>2020-09-05T08:00:19Z</time>
      </trkpt>
      <trkpt lat="43.294724" lon="-2.322874">
        <ele>8273.0</ele>
        <time>2020-09-05T08:00:34Z</time>
      </trkpt>
      <trkpt lat="43.294678" lon="-2.3229167">
        <ele>8273.0</ele>
        <time>2020-09-05T08:00:46Z</time>
      </trkpt>
      <trkpt lat="43.294647" lon="-2.322977">
        <ele>8073.0</ele>
        <time>2020-09-05T08:00:55Z</time>
      </trkpt>
      <trkpt lat="43.294617" lon="-2.3230474">
        <ele>8073.0</ele>
        <time>2020-09-05T08:01:05Z</time>
      </trkpt>
      <trkpt lat="43.294586" lon="-2.3231063">
        <ele>8073.0</ele>
        <time>2020-09-05T08:01:18Z</time>
      </trkpt>
      <trkpt lat="43.29456" lon="-2.3231666">
        <ele>8073.0</ele>
        <time>2020-09-05T08:01:30Z</time>
      </trkpt>
      <trkpt lat="43.29453" lon="-2.3232403">
        <ele>8073.0</ele>
        <time>2020-09-05T08:01:44Z</time>
      </trkpt>
      <trkpt lat="43.2945" lon="-2.3233182">
        <ele>8073.0</ele>
        <time>2020-09-05T08:01:57Z</time>
      </trkpt>
      <trkpt lat="43.294483" lon="-2.323375">
        <ele>8073.0</ele>
        <time>2020-09-05T08:02:07Z</time>
      </trkpt>
      <trkpt lat="43.294464" lon="-2.3234434">
        <ele>8073.0</ele>
        <time>2020-09-05T08:02:14Z</time>
      </trkpt>
      <trkpt lat="43.29445" lon="-2.3235314">
        <ele>8073.0</ele>
        <time>2020-09-05T08:02:27Z</time>
      </trkpt>
      <trkpt lat="43.294434" lon="-2.3235958">
        <ele>8073.0</ele>
        <time>2020-09-05T08:02:37Z</time>
      </trkpt>
      <trkpt lat="43.294403" lon="-2.3236513">
        <ele>8073.0</ele>
        <time>2020-09-05T08:02:48Z</time>
      </trkpt>
      <trkpt lat="43.29436" lon="-2.3235674">
        <ele>8073.0</ele>
        <time>2020-09-05T08:03:06Z</time>
      </trkpt>
      <trkpt lat="43.294334" lon="-2.3235083">
        <ele>8073.0</ele>
        <time>2020-09-05T08:03:12Z</time>
      </trkpt>
      <trkpt lat="43.294304" lon="-2.323438">
        <ele>8073.0</ele>
        <time>2020-09-05T08:03:19Z</time>
      </trkpt>
      <trkpt lat="43.294266" lon="-2.3233893">
        <ele>8073.0</ele>
        <time>2020-09-05T08:03:24Z</time>
      </trkpt>
      <trkpt lat="43.294235" lon="-2.3233306">
        <ele>7791.0</ele>
        <time>2020-09-05T08:03:30Z</time>
      </trkpt>
      <trkpt lat="43.294212" lon="-2.323254">
        <ele>7537.0</ele>
        <time>2020-09-05T08:03:37Z</time>
      </trkpt>
      <trkpt lat="43.294186" lon="-2.3232007">
        <ele>7400.0</ele>
        <time>2020-09-05T08:03:42Z</time>
      </trkpt>
      <trkpt lat="43.29415" lon="-2.32314">
        <ele>7282.0</ele>
        <time>2020-09-05T08:03:48Z</time>
      </trkpt>
      <trkpt lat="43.294132" lon="-2.3230767">
        <ele>7409.0</ele>
        <time>2020-09-05T08:03:56Z</time>
      </trkpt>
      <trkpt lat="43.294136" lon="-2.323003">
        <ele>7409.0</ele>
        <time>2020-09-05T08:04:01Z</time>
      </trkpt>
      <trkpt lat="43.29414" lon="-2.3229246">
        <ele>7527.0</ele>
        <time>2020-09-05T08:04:07Z</time>
      </trkpt>
      <trkpt lat="43.29411" lon="-2.3228753">
        <ele>7527.0</ele>
        <time>2020-09-05T08:04:13Z</time>
      </trkpt>
      <trkpt lat="43.29411" lon="-2.3227887">
        <ele>7527.0</ele>
        <time>2020-09-05T08:04:20Z</time>
      </trkpt>
      <trkpt lat="43.29411" lon="-2.3227212">
        <ele>7527.0</ele>
        <time>2020-09-05T08:04:26Z</time>
      </trkpt>
      <trkpt lat="43.2941" lon="-2.3226564">
        <ele>7527.0</ele>
        <time>2020-09-05T08:04:33Z</time>
      </trkpt>
      <trkpt lat="43.2941" lon="-2.3225827">
        <ele>7527.0</ele>
        <time>2020-09-05T08:04:41Z</time>
      </trkpt>
      <trkpt lat="43.294086" lon="-2.3225107">
        <ele>7527.0</ele>
        <time>2020-09-05T08:04:49Z</time>
      </trkpt>
      <trkpt lat="43.294056" lon="-2.322457">
        <ele>7527.0</ele>
        <time>2020-09-05T08:04:57Z</time>
      </trkpt>
      <trkpt lat="43.29401" lon="-2.3223953">
        <ele>7527.0</ele>
        <time>2020-09-05T08:05:06Z</time>
      </trkpt>
      <trkpt lat="43.29397" lon="-2.322359">
        <ele>7655.0</ele>
        <time>2020-09-05T08:05:12Z</time>
      </trkpt>
      <trkpt lat="43.293915" lon="-2.322318">
        <ele>7655.0</ele>
        <time>2020-09-05T08:05:18Z</time>
      </trkpt>
      <trkpt lat="43.29387" lon="-2.322307">
        <ele>7655.0</ele>
        <time>2020-09-05T08:05:23Z</time>
      </trkpt>
      <trkpt lat="43.293816" lon="-2.322287">
        <ele>7655.0</ele>
        <time>2020-09-05T08:05:30Z</time>
      </trkpt>
      <trkpt lat="43.29378" lon="-2.3222606">
        <ele>7655.0</ele>
        <time>2020-09-05T08:05:42Z</time>
      </trkpt>
      <trkpt lat="43.293766" lon="-2.3222196">
        <ele>7655.0</ele>
        <time>2020-09-05T08:05:56Z</time>
      </trkpt>
      <trkpt lat="43.293762" lon="-2.3221366">
        <ele>7418.0</ele>
        <time>2020-09-05T08:06:11Z</time>
      </trkpt>
      <trkpt lat="43.29378" lon="-2.3220747">
        <ele>7418.0</ele>
        <time>2020-09-05T08:06:21Z</time>
      </trkpt>
      <trkpt lat="43.29375" lon="-2.321969">
        <ele>7055.0</ele>
        <time>2020-09-05T08:07:24Z</time>
      </trkpt>
      <trkpt lat="43.29375" lon="-2.32188">
        <ele>6700.0</ele>
        <time>2020-09-05T08:07:32Z</time>
      </trkpt>
      <trkpt lat="43.293747" lon="-2.3218133">
        <ele>6582.0</ele>
        <time>2020-09-05T08:07:39Z</time>
      </trkpt>
      <trkpt lat="43.293743" lon="-2.3217397">
        <ele>6582.0</ele>
        <time>2020-09-05T08:07:49Z</time>
      </trkpt>
      <trkpt lat="43.293747" lon="-2.3216724">
        <ele>6464.0</ele>
        <time>2020-09-05T08:07:58Z</time>
      </trkpt>
      <trkpt lat="43.29375" lon="-2.3216014">
        <ele>6227.0</ele>
        <time>2020-09-05T08:08:10Z</time>
      </trkpt>
      <trkpt lat="43.293736" lon="-2.3215327">
        <ele>6227.0</ele>
        <time>2020-09-05T08:08:21Z</time>
      </trkpt>
      <trkpt lat="43.29375" lon="-2.3214648">
        <ele>6227.0</ele>
        <time>2020-09-05T08:08:36Z</time>
      </trkpt>
      <trkpt lat="43.29376" lon="-2.3213654">
        <ele>6227.0</ele>
        <time>2020-09-05T08:08:47Z</time>
      </trkpt>
      <trkpt lat="43.29376" lon="-2.3213003">
        <ele>6227.0</ele>
        <time>2020-09-05T08:08:53Z</time>
      </trkpt>
      <trkpt lat="43.293762" lon="-2.3212323">
        <ele>6227.0</ele>
        <time>2020-09-05T08:09:06Z</time>
      </trkpt>
      <trkpt lat="43.293766" lon="-2.321165">
        <ele>6227.0</ele>
        <time>2020-09-05T08:09:24Z</time>
      </trkpt>
      <trkpt lat="43.293736" lon="-2.3211083">
        <ele>6227.0</ele>
        <time>2020-09-05T08:09:39Z</time>
      </trkpt>
      <trkpt lat="43.293766" lon="-2.3210547">
        <ele>6227.0</ele>
        <time>2020-09-05T08:09:46Z</time>
      </trkpt>
      <trkpt lat="43.293808" lon="-2.3210018">
        <ele>6346.0</ele>
        <time>2020-09-05T08:09:52Z</time>
      </trkpt>
      <trkpt lat="43.293777" lon="-2.320945">
        <ele>6346.0</ele>
        <time>2020-09-05T08:10:11Z</time>
      </trkpt>
      <trkpt lat="43.293823" lon="-2.3209102">
        <ele>6218.0</ele>
        <time>2020-09-05T08:10:21Z</time>
      </trkpt>
      <trkpt lat="43.293854" lon="-2.3208537">
        <ele>6218.0</ele>
        <time>2020-09-05T08:10:28Z</time>
      </trkpt>
      <trkpt lat="43.29389" lon="-2.320796">
        <ele>6218.0</ele>
        <time>2020-09-05T08:10:35Z</time>
      </trkpt>
      <trkpt lat="43.29393" lon="-2.3207498">
        <ele>6218.0</ele>
        <time>2020-09-05T08:10:40Z</time>
      </trkpt>
      <trkpt lat="43.293976" lon="-2.3206635">
        <ele>6218.0</ele>
        <time>2020-09-05T08:11:04Z</time>
      </trkpt>
      <trkpt lat="43.294025" lon="-2.320611">
        <ele>6418.0</ele>
        <time>2020-09-05T08:11:10Z</time>
      </trkpt>
      <trkpt lat="43.29405" lon="-2.3205566">
        <ele>6418.0</ele>
        <time>2020-09-05T08:11:15Z</time>
      </trkpt>
      <trkpt lat="43.29409" lon="-2.3205106">
        <ele>5964.0</ele>
        <time>2020-09-05T08:11:21Z</time>
      </trkpt>
      <trkpt lat="43.29414" lon="-2.3204718">
        <ele>5818.0</ele>
        <time>2020-09-05T08:11:27Z</time>
      </trkpt>
      <trkpt lat="43.294178" lon="-2.320417">
        <ele>5818.0</ele>
        <time>2020-09-05T08:11:33Z</time>
      </trkpt>
      <trkpt lat="43.294205" lon="-2.320369">
        <ele>5818.0</ele>
        <time>2020-09-05T08:11:38Z</time>
      </trkpt>
      <trkpt lat="43.294266" lon="-2.3202972">
        <ele>6064.0</ele>
        <time>2020-09-05T08:12:19Z</time>
      </trkpt>
      <trkpt lat="43.294304" lon="-2.3202558">
        <ele>6064.0</ele>
        <time>2020-09-05T08:12:26Z</time>
      </trkpt>
      <trkpt lat="43.29435" lon="-2.3202038">
        <ele>6064.0</ele>
        <time>2020-09-05T08:12:33Z</time>
      </trkpt>
      <trkpt lat="43.29438" lon="-2.3201632">
        <ele>6064.0</ele>
        <time>2020-09-05T08:12:42Z</time>
      </trkpt>
      <trkpt lat="43.294445" lon="-2.3200984">
        <ele>6064.0</ele>
        <time>2020-09-05T08:12:59Z</time>
      </trkpt>
      <trkpt lat="43.294483" lon="-2.3200507">
        <ele>6064.0</ele>
        <time>2020-09-05T08:13:06Z</time>
      </trkpt>
      <trkpt lat="43.2945" lon="-2.320001">
        <ele>6064.0</ele>
        <time>2020-09-05T08:13:21Z</time>
      </trkpt>
      <trkpt lat="43.294556" lon="-2.319963">
        <ele>6064.0</ele>
        <time>2020-09-05T08:13:29Z</time>
      </trkpt>
      <trkpt lat="43.294594" lon="-2.3199253">
        <ele>6064.0</ele>
        <time>2020-09-05T08:13:36Z</time>
      </trkpt>
      <trkpt lat="43.294632" lon="-2.319879">
        <ele>5864.0</ele>
        <time>2020-09-05T08:13:54Z</time>
      </trkpt>
      <trkpt lat="43.294678" lon="-2.3198373">
        <ele>5864.0</ele>
        <time>2020-09-05T08:14:02Z</time>
      </trkpt>
      <trkpt lat="43.29473" lon="-2.3197944">
        <ele>5864.0</ele>
        <time>2020-09-05T08:14:10Z</time>
      </trkpt>
      <trkpt lat="43.294777" lon="-2.319745">
        <ele>5864.0</ele>
        <time>2020-09-05T08:14:16Z</time>
      </trkpt>
      <trkpt lat="43.29482" lon="-2.3196943">
        <ele>5864.0</ele>
        <time>2020-09-05T08:14:21Z</time>
      </trkpt>
      <trkpt lat="43.294853" lon="-2.3196473">
        <ele>5864.0</ele>
        <time>2020-09-05T08:14:26Z</time>
      </trkpt>
      <trkpt lat="43.294888" lon="-2.3195972">
        <ele>5864.0</ele>
        <time>2020-09-05T08:14:32Z</time>
      </trkpt>
      <trkpt lat="43.294933" lon="-2.319551">
        <ele>5864.0</ele>
        <time>2020-09-05T08:14:38Z</time>
      </trkpt>
      <trkpt lat="43.294975" lon="-2.319477">
        <ele>5982.0</ele>
        <time>2020-09-05T08:14:54Z</time>
      </trkpt>
      <trkpt lat="43.295006" lon="-2.3194134">
        <ele>5982.0</ele>
        <time>2020-09-05T08:15:02Z</time>
      </trkpt>
      <trkpt lat="43.295044" lon="-2.3193524">
        <ele>5855.0</ele>
        <time>2020-09-05T08:15:08Z</time>
      </trkpt>
      <trkpt lat="43.295074" lon="-2.3192966">
        <ele>5855.0</ele>
        <time>2020-09-05T08:15:13Z</time>
      </trkpt>
      <trkpt lat="43.295105" lon="-2.3192303">
        <ele>5582.0</ele>
        <time>2020-09-05T08:15:19Z</time>
      </trkpt>
      <trkpt lat="43.295128" lon="-2.3191674">
        <ele>5455.0</ele>
        <time>2020-09-05T08:15:24Z</time>
      </trkpt>
      <trkpt lat="43.295162" lon="-2.3190937">
        <ele>5455.0</ele>
        <time>2020-09-05T08:15:29Z</time>
      </trkpt>
      <trkpt lat="43.295177" lon="-2.3190258">
        <ele>5455.0</ele>
        <time>2020-09-05T08:15:34Z</time>
      </trkpt>
      <trkpt lat="43.295193" lon="-2.3189456">
        <ele>5455.0</ele>
        <time>2020-09-05T08:15:40Z</time>
      </trkpt>
      <trkpt lat="43.295208" lon="-2.3188863">
        <ele>5573.0</ele>
        <time>2020-09-05T08:15:45Z</time>
      </trkpt>
      <trkpt lat="43.295223" lon="-2.3188167">
        <ele>5573.0</ele>
        <time>2020-09-05T08:15:52Z</time>
      </trkpt>
      <trkpt lat="43.295254" lon="-2.3187513">
        <ele>5573.0</ele>
        <time>2020-09-05T08:16:00Z</time>
      </trkpt>
      <trkpt lat="43.295288" lon="-2.3186994">
        <ele>5573.0</ele>
        <time>2020-09-05T08:16:05Z</time>
      </trkpt>
      <trkpt lat="43.2953" lon="-2.3186264">
        <ele>5455.0</ele>
        <time>2020-09-05T08:16:11Z</time>
      </trkpt>
      <trkpt lat="43.29532" lon="-2.318558">
        <ele>5455.0</ele>
        <time>2020-09-05T08:16:16Z</time>
      </trkpt>
      <trkpt lat="43.29533" lon="-2.3184814">
        <ele>5455.0</ele>
        <time>2020-09-05T08:16:22Z</time>
      </trkpt>
      <trkpt lat="43.295338" lon="-2.3184257">
        <ele>5327.0</ele>
        <time>2020-09-05T08:16:29Z</time>
      </trkpt>
      <trkpt lat="43.295303" lon="-2.3183806">
        <ele>5082.0</ele>
        <time>2020-09-05T08:17:39Z</time>
      </trkpt>
      <trkpt lat="43.2953" lon="-2.3183">
        <ele>5082.0</ele>
        <time>2020-09-05T08:17:46Z</time>
      </trkpt>
      <trkpt lat="43.295303" lon="-2.3182294">
        <ele>6582.0</ele>
        <time>2020-09-05T08:17:54Z</time>
      </trkpt>
      <trkpt lat="43.295338" lon="-2.318151">
        <ele>7000.0</ele>
        <time>2020-09-05T08:18:11Z</time>
      </trkpt>
      <trkpt lat="43.295338" lon="-2.3180788">
        <ele>7118.0</ele>
        <time>2020-09-05T08:18:18Z</time>
      </trkpt>
      <trkpt lat="43.295338" lon="-2.3180013">
        <ele>7237.0</ele>
        <time>2020-09-05T08:18:25Z</time>
      </trkpt>
      <trkpt lat="43.295357" lon="-2.3179233">
        <ele>7637.0</ele>
        <time>2020-09-05T08:18:35Z</time>
      </trkpt>
      <trkpt lat="43.295364" lon="-2.3178487">
        <ele>7755.0</ele>
        <time>2020-09-05T08:18:40Z</time>
      </trkpt>
      <trkpt lat="43.295395" lon="-2.317784">
        <ele>7891.0</ele>
        <time>2020-09-05T08:18:44Z</time>
      </trkpt>
      <trkpt lat="43.295433" lon="-2.3177216">
        <ele>8009.0</ele>
        <time>2020-09-05T08:18:49Z</time>
      </trkpt>
      <trkpt lat="43.295456" lon="-2.3176844">
        <ele>8273.0</ele>
        <time>2020-09-05T08:18:57Z</time>
      </trkpt>
      <trkpt lat="43.295494" lon="-2.317621">
        <ele>8391.0</ele>
        <time>2020-09-05T08:19:03Z</time>
      </trkpt>
      <trkpt lat="43.295544" lon="-2.3175843">
        <ele>8509.0</ele>
        <time>2020-09-05T08:19:10Z</time>
      </trkpt>
      <trkpt lat="43.295597" lon="-2.3175564">
        <ele>8637.0</ele>
        <time>2020-09-05T08:19:15Z</time>
      </trkpt>
      <trkpt lat="43.29566" lon="-2.317524">
        <ele>8773.0</ele>
        <time>2020-09-05T08:19:20Z</time>
      </trkpt>
      <trkpt lat="43.295704" lon="-2.317485">
        <ele>8909.0</ele>
        <time>2020-09-05T08:19:25Z</time>
      </trkpt>
      <trkpt lat="43.295753" lon="-2.317461">
        <ele>9027.0</ele>
        <time>2020-09-05T08:19:34Z</time>
      </trkpt>
      <trkpt lat="43.295795" lon="-2.317428">
        <ele>9027.0</ele>
        <time>2020-09-05T08:19:39Z</time>
      </trkpt>
      <trkpt lat="43.295856" lon="-2.3173985">
        <ele>9164.0</ele>
        <time>2020-09-05T08:19:45Z</time>
      </trkpt>
      <trkpt lat="43.2959" lon="-2.3173628">
        <ele>9282.0</ele>
        <time>2020-09-05T08:19:50Z</time>
      </trkpt>
      <trkpt lat="43.295956" lon="-2.3173203">
        <ele>9282.0</ele>
        <time>2020-09-05T08:19:56Z</time>
      </trkpt>
      <trkpt lat="43.296" lon="-2.3172727">
        <ele>9282.0</ele>
        <time>2020-09-05T08:20:01Z</time>
      </trkpt>
      <trkpt lat="43.29604" lon="-2.3172293">
        <ele>9282.0</ele>
        <time>2020-09-05T08:20:06Z</time>
      </trkpt>
      <trkpt lat="43.296085" lon="-2.3171754">
        <ele>9282.0</ele>
        <time>2020-09-05T08:20:11Z</time>
      </trkpt>
      <trkpt lat="43.296124" lon="-2.3171186">
        <ele>9282.0</ele>
        <time>2020-09-05T08:20:17Z</time>
      </trkpt>
      <trkpt lat="43.296154" lon="-2.3170617">
        <ele>9282.0</ele>
        <time>2020-09-05T08:20:23Z</time>
      </trkpt>
      <trkpt lat="43.296173" lon="-2.3169904">
        <ele>9282.0</ele>
        <time>2020-09-05T08:20:34Z</time>
      </trkpt>
      <trkpt lat="43.296165" lon="-2.316919">
        <ele>9282.0</ele>
        <time>2020-09-05T08:20:40Z</time>
      </trkpt>
      <trkpt lat="43.296124" lon="-2.3167818">
        <ele>4440.0</ele>
        <time>2020-09-05T08:21:18Z</time>
      </trkpt>
      <trkpt lat="43.296124" lon="-2.3167794">
        <ele>4440.0</ele>
        <time>2020-09-05T08:21:19Z</time>
      </trkpt>
      <trkpt lat="43.296085" lon="-2.316674">
        <ele>5013.0</ele>
        <time>2020-09-05T08:21:47Z</time>
      </trkpt>
      <trkpt lat="43.296135" lon="-2.3166273">
        <ele>5267.0</ele>
        <time>2020-09-05T08:21:56Z</time>
      </trkpt>
      <trkpt lat="43.296196" lon="-2.3166084">
        <ele>5513.0</ele>
        <time>2020-09-05T08:22:03Z</time>
      </trkpt>
      <trkpt lat="43.296234" lon="-2.3165903">
        <ele>5513.0</ele>
        <time>2020-09-05T08:22:08Z</time>
      </trkpt>
      <trkpt lat="43.296288" lon="-2.3165996">
        <ele>5640.0</ele>
        <time>2020-09-05T08:22:16Z</time>
      </trkpt>
      <trkpt lat="43.296345" lon="-2.316595">
        <ele>5640.0</ele>
        <time>2020-09-05T08:22:22Z</time>
      </trkpt>
      <trkpt lat="43.296375" lon="-2.316574">
        <ele>5758.0</ele>
        <time>2020-09-05T08:22:30Z</time>
      </trkpt>
      <trkpt lat="43.296413" lon="-2.316514">
        <ele>5876.0</ele>
        <time>2020-09-05T08:22:47Z</time>
      </trkpt>
      <trkpt lat="43.29646" lon="-2.3164847">
        <ele>5876.0</ele>
        <time>2020-09-05T08:22:52Z</time>
      </trkpt>
      <trkpt lat="43.296505" lon="-2.3164597">
        <ele>5876.0</ele>
        <time>2020-09-05T08:22:59Z</time>
      </trkpt>
      <trkpt lat="43.29657" lon="-2.3164527">
        <ele>5876.0</ele>
        <time>2020-09-05T08:23:07Z</time>
      </trkpt>
      <trkpt lat="43.296623" lon="-2.3164532">
        <ele>5758.0</ele>
        <time>2020-09-05T08:23:13Z</time>
      </trkpt>
      <trkpt lat="43.296684" lon="-2.3164546">
        <ele>5758.0</ele>
        <time>2020-09-05T08:23:19Z</time>
      </trkpt>
      <trkpt lat="43.29674" lon="-2.3164577">
        <ele>5622.0</ele>
        <time>2020-09-05T08:23:24Z</time>
      </trkpt>
      <trkpt lat="43.296795" lon="-2.3164172">
        <ele>5494.0</ele>
        <time>2020-09-05T08:23:30Z</time>
      </trkpt>
      <trkpt lat="43.296833" lon="-2.316376">
        <ele>4867.0</ele>
        <time>2020-09-05T08:23:35Z</time>
      </trkpt>
      <trkpt lat="43.296886" lon="-2.3163524">
        <ele>4467.0</ele>
        <time>2020-09-05T08:23:42Z</time>
      </trkpt>
      <trkpt lat="43.296913" lon="-2.3163">
        <ele>4185.0</ele>
        <time>2020-09-05T08:23:52Z</time>
      </trkpt>
      <trkpt lat="43.29696" lon="-2.316244">
        <ele>4185.0</ele>
        <time>2020-09-05T08:24:01Z</time>
      </trkpt>
      <trkpt lat="43.29698" lon="-2.3161867">
        <ele>4185.0</ele>
        <time>2020-09-05T08:24:11Z</time>
      </trkpt>
      <trkpt lat="43.297028" lon="-2.3161643">
        <ele>4185.0</ele>
        <time>2020-09-05T08:24:25Z</time>
      </trkpt>
      <trkpt lat="43.29708" lon="-2.3161254">
        <ele>3567.0</ele>
        <time>2020-09-05T08:24:31Z</time>
      </trkpt>
      <trkpt lat="43.297127" lon="-2.316089">
        <ele>3231.0</ele>
        <time>2020-09-05T08:24:35Z</time>
      </trkpt>
      <trkpt lat="43.297176" lon="-2.3160462">
        <ele>3094.0</ele>
        <time>2020-09-05T08:24:41Z</time>
      </trkpt>
      <trkpt lat="43.297215" lon="-2.316015">
        <ele>3094.0</ele>
        <time>2020-09-05T08:24:47Z</time>
      </trkpt>
      <trkpt lat="43.297253" lon="-2.315969">
        <ele>3094.0</ele>
        <time>2020-09-05T08:24:54Z</time>
      </trkpt>
      <trkpt lat="43.297295" lon="-2.315905">
        <ele>2958.0</ele>
        <time>2020-09-05T08:25:05Z</time>
      </trkpt>
      <trkpt lat="43.297253" lon="-2.315833">
        <ele>2840.0</ele>
        <time>2020-09-05T08:28:13Z</time>
      </trkpt>
      <trkpt lat="43.297207" lon="-2.3158054">
        <ele>2840.0</ele>
        <time>2020-09-05T08:28:24Z</time>
      </trkpt>
      <trkpt lat="43.29717" lon="-2.315771">
        <ele>1085.0</ele>
        <time>2020-09-05T08:28:31Z</time>
      </trkpt>
      <trkpt lat="43.29706" lon="-2.315722">
        <ele>158.0</ele>
        <time>2020-09-05T08:30:04Z</time>
      </trkpt>
      <trkpt lat="43.29701" lon="-2.3157043">
        <ele>-586.0</ele>
        <time>2020-09-05T08:30:16Z</time>
      </trkpt>
      <trkpt lat="43.29696" lon="-2.3156912">
        <ele>-1368.0</ele>
        <time>2020-09-05T08:30:26Z</time>
      </trkpt>
      <trkpt lat="43.296906" lon="-2.315671">
        <ele>-1486.0</ele>
        <time>2020-09-05T08:30:39Z</time>
      </trkpt>
      <trkpt lat="43.29685" lon="-2.315644">
        <ele>-1723.0</ele>
        <time>2020-09-05T08:30:48Z</time>
      </trkpt>
      <trkpt lat="43.296825" lon="-2.3155766">
        <ele>-1986.0</ele>
        <time>2020-09-05T08:30:58Z</time>
      </trkpt>
      <trkpt lat="43.296795" lon="-2.3155134">
        <ele>-2241.0</ele>
        <time>2020-09-05T08:31:09Z</time>
      </trkpt>
      <trkpt lat="43.296707" lon="-2.3152673">
        <ele>-2241.0</ele>
        <time>2020-09-05T08:32:10Z</time>
      </trkpt>
      <trkpt lat="43.29667" lon="-2.3151953">
        <ele>-2241.0</ele>
        <time>2020-09-05T08:32:17Z</time>
      </trkpt>
      <trkpt lat="43.29665" lon="-2.3151243">
        <ele>-1923.0</ele>
        <time>2020-09-05T08:32:23Z</time>
      </trkpt>
      <trkpt lat="43.29662" lon="-2.3150406">
        <ele>-1768.0</ele>
        <time>2020-09-05T08:32:38Z</time>
      </trkpt>
      <trkpt lat="43.296555" lon="-2.314928">
        <ele>-1641.0</ele>
        <time>2020-09-05T08:32:54Z</time>
      </trkpt>
      <trkpt lat="43.296505" lon="-2.314894">
        <ele>-1641.0</ele>
        <time>2020-09-05T08:33:00Z</time>
      </trkpt>
      <trkpt lat="43.296455" lon="-2.3148756">
        <ele>-1641.0</ele>
        <time>2020-09-05T08:33:07Z</time>
      </trkpt>
      <trkpt lat="43.296406" lon="-2.314845">
        <ele>-1641.0</ele>
        <time>2020-09-05T08:33:14Z</time>
      </trkpt>
      <trkpt lat="43.29636" lon="-2.314814">
        <ele>-1641.0</ele>
        <time>2020-09-05T08:33:23Z</time>
      </trkpt>
      <trkpt lat="43.296307" lon="-2.3147774">
        <ele>-1641.0</ele>
        <time>2020-09-05T08:33:29Z</time>
      </trkpt>
      <trkpt lat="43.29625" lon="-2.314736">
        <ele>-1641.0</ele>
        <time>2020-09-05T08:33:34Z</time>
      </trkpt>
      <trkpt lat="43.29621" lon="-2.314706">
        <ele>-1641.0</ele>
        <time>2020-09-05T08:33:39Z</time>
      </trkpt>
      <trkpt lat="43.296185" lon="-2.314654">
        <ele>-1914.0</ele>
        <time>2020-09-05T08:33:45Z</time>
      </trkpt>
      <trkpt lat="43.2962" lon="-2.3145814">
        <ele>-2050.0</ele>
        <time>2020-09-05T08:33:50Z</time>
      </trkpt>
      <trkpt lat="43.296204" lon="-2.314511">
        <ele>-2177.0</ele>
        <time>2020-09-05T08:33:55Z</time>
      </trkpt>
      <trkpt lat="43.296196" lon="-2.314266">
        <ele>-2305.0</ele>
        <time>2020-09-05T08:34:56Z</time>
      </trkpt>
      <trkpt lat="43.29625" lon="-2.3142056">
        <ele>-2305.0</ele>
        <time>2020-09-05T08:35:03Z</time>
      </trkpt>
      <trkpt lat="43.29628" lon="-2.3141627">
        <ele>-2305.0</ele>
        <time>2020-09-05T08:35:08Z</time>
      </trkpt>
      <trkpt lat="43.29633" lon="-2.3141153">
        <ele>-2305.0</ele>
        <time>2020-09-05T08:35:18Z</time>
      </trkpt>
      <trkpt lat="43.29636" lon="-2.3140597">
        <ele>-2305.0</ele>
        <time>2020-09-05T08:35:24Z</time>
      </trkpt>
      <trkpt lat="43.29639" lon="-2.313992">
        <ele>-2305.0</ele>
        <time>2020-09-05T08:35:30Z</time>
      </trkpt>
      <trkpt lat="43.29639" lon="-2.3139262">
        <ele>-1923.0</ele>
        <time>2020-09-05T08:35:37Z</time>
      </trkpt>
      <trkpt lat="43.296394" lon="-2.31386">
        <ele>-1805.0</ele>
        <time>2020-09-05T08:35:46Z</time>
      </trkpt>
      <trkpt lat="43.29638" lon="-2.3137894">
        <ele>-1805.0</ele>
        <time>2020-09-05T08:36:00Z</time>
      </trkpt>
      <trkpt lat="43.296375" lon="-2.31372">
        <ele>-1686.0</ele>
        <time>2020-09-05T08:36:10Z</time>
      </trkpt>
      <trkpt lat="43.296375" lon="-2.3136477">
        <ele>-1686.0</ele>
        <time>2020-09-05T08:36:25Z</time>
      </trkpt>
      <trkpt lat="43.29639" lon="-2.3135686">
        <ele>-1686.0</ele>
        <time>2020-09-05T08:36:33Z</time>
      </trkpt>
      <trkpt lat="43.296368" lon="-2.3134997">
        <ele>-1686.0</ele>
        <time>2020-09-05T08:36:42Z</time>
      </trkpt>
      <trkpt lat="43.29633" lon="-2.3134644">
        <ele>-1686.0</ele>
        <time>2020-09-05T08:36:49Z</time>
      </trkpt>
      <trkpt lat="43.296272" lon="-2.3134313">
        <ele>-1686.0</ele>
        <time>2020-09-05T08:36:58Z</time>
      </trkpt>
      <trkpt lat="43.29623" lon="-2.3133554">
        <ele>-1686.0</ele>
        <time>2020-09-05T08:37:11Z</time>
      </trkpt>
      <trkpt lat="43.29622" lon="-2.3132906">
        <ele>-1686.0</ele>
        <time>2020-09-05T08:37:15Z</time>
      </trkpt>
      <trkpt lat="43.296196" lon="-2.3132114">
        <ele>-1686.0</ele>
        <time>2020-09-05T08:37:20Z</time>
      </trkpt>
      <trkpt lat="43.296173" lon="-2.3131382">
        <ele>-1686.0</ele>
        <time>2020-09-05T08:37:25Z</time>
      </trkpt>
      <trkpt lat="43.29617" lon="-2.31307">
        <ele>-1686.0</ele>
        <time>2020-09-05T08:37:29Z</time>
      </trkpt>
      <trkpt lat="43.296143" lon="-2.3129997">
        <ele>-1686.0</ele>
        <time>2020-09-05T08:37:34Z</time>
      </trkpt>
      <trkpt lat="43.2961" lon="-2.3129363">
        <ele>-1686.0</ele>
        <time>2020-09-05T08:37:39Z</time>
      </trkpt>
      <trkpt lat="43.296078" lon="-2.3128734">
        <ele>-1568.0</ele>
        <time>2020-09-05T08:37:44Z</time>
      </trkpt>
      <trkpt lat="43.296055" lon="-2.312798">
        <ele>-1568.0</ele>
        <time>2020-09-05T08:37:49Z</time>
      </trkpt>
      <trkpt lat="43.296032" lon="-2.312736">
        <ele>-1450.0</ele>
        <time>2020-09-05T08:37:54Z</time>
      </trkpt>
      <trkpt lat="43.296017" lon="-2.3127117">
        <ele>-1450.0</ele>
        <time>2020-09-05T08:38:09Z</time>
      </trkpt>
      <trkpt lat="43.296154" lon="-2.312345">
        <ele>-1450.0</ele>
        <time>2020-09-05T08:46:52Z</time>
      </trkpt>
      <trkpt lat="43.296127" lon="-2.3121574">
        <ele>-1450.0</ele>
        <time>2020-09-05T08:48:45Z</time>
      </trkpt>
      <trkpt lat="43.29615" lon="-2.3120863">
        <ele>-1677.0</ele>
        <time>2020-09-05T08:48:52Z</time>
      </trkpt>
      <trkpt lat="43.296173" lon="-2.3120317">
        <ele>-1941.0</ele>
        <time>2020-09-05T08:48:59Z</time>
      </trkpt>
      <trkpt lat="43.29621" lon="-2.311969">
        <ele>-1941.0</ele>
        <time>2020-09-05T08:49:07Z</time>
      </trkpt>
      <trkpt lat="43.296246" lon="-2.311923">
        <ele>-1486.0</ele>
        <time>2020-09-05T08:49:15Z</time>
      </trkpt>
      <trkpt lat="43.29628" lon="-2.3118618">
        <ele>-1232.0</ele>
        <time>2020-09-05T08:49:24Z</time>
      </trkpt>
      <trkpt lat="43.296333" lon="-2.311831">
        <ele>-1105.0</ele>
        <time>2020-09-05T08:49:31Z</time>
      </trkpt>
      <trkpt lat="43.296394" lon="-2.311787">
        <ele>-850.0</ele>
        <time>2020-09-05T08:49:48Z</time>
      </trkpt>
      <trkpt lat="43.29643" lon="-2.3117416">
        <ele>-732.0</ele>
        <time>2020-09-05T08:49:55Z</time>
      </trkpt>
      <trkpt lat="43.296474" lon="-2.3116937">
        <ele>-614.0</ele>
        <time>2020-09-05T08:50:03Z</time>
      </trkpt>
      <trkpt lat="43.296516" lon="-2.3116484">
        <ele>-496.0</ele>
        <time>2020-09-05T08:50:10Z</time>
      </trkpt>
      <trkpt lat="43.29654" lon="-2.3115647">
        <ele>-496.0</ele>
        <time>2020-09-05T08:50:26Z</time>
      </trkpt>
      <trkpt lat="43.29654" lon="-2.311499">
        <ele>-496.0</ele>
        <time>2020-09-05T08:50:36Z</time>
      </trkpt>
      <trkpt lat="43.296513" lon="-2.311427">
        <ele>-496.0</ele>
        <time>2020-09-05T08:50:44Z</time>
      </trkpt>
      <trkpt lat="43.2965" lon="-2.3113666">
        <ele>7387.0</ele>
        <time>2020-09-05T08:50:53Z</time>
      </trkpt>
      <trkpt lat="43.296543" lon="-2.3113246">
        <ele>7387.0</ele>
        <time>2020-09-05T08:51:11Z</time>
      </trkpt>
      <trkpt lat="43.2966" lon="-2.311318">
        <ele>7787.0</ele>
        <time>2020-09-05T08:51:19Z</time>
      </trkpt>
      <trkpt lat="43.29664" lon="-2.3112924">
        <ele>8051.0</ele>
        <time>2020-09-05T08:51:27Z</time>
      </trkpt>
      <trkpt lat="43.296665" lon="-2.311277">
        <ele>8832.0</ele>
        <time>2020-09-05T08:51:50Z</time>
      </trkpt>
      <trkpt lat="43.29671" lon="-2.3112464">
        <ele>8951.0</ele>
        <time>2020-09-05T08:51:57Z</time>
      </trkpt>
      <trkpt lat="43.29675" lon="-2.3111954">
        <ele>9078.0</ele>
        <time>2020-09-05T08:52:03Z</time>
      </trkpt>
      <trkpt lat="43.296795" lon="-2.3111243">
        <ele>8941.0</ele>
        <time>2020-09-05T08:52:23Z</time>
      </trkpt>
      <trkpt lat="43.296772" lon="-2.31105">
        <ele>8941.0</ele>
        <time>2020-09-05T08:52:35Z</time>
      </trkpt>
      <trkpt lat="43.29675" lon="-2.3109927">
        <ele>8941.0</ele>
        <time>2020-09-05T08:52:42Z</time>
      </trkpt>
      <trkpt lat="43.296753" lon="-2.3109326">
        <ele>8941.0</ele>
        <time>2020-09-05T08:52:51Z</time>
      </trkpt>
      <trkpt lat="43.29678" lon="-2.3108637">
        <ele>8941.0</ele>
        <time>2020-09-05T08:53:03Z</time>
      </trkpt>
      <trkpt lat="43.296825" lon="-2.3108163">
        <ele>8941.0</ele>
        <time>2020-09-05T08:53:11Z</time>
      </trkpt>
      <trkpt lat="43.29688" lon="-2.3107703">
        <ele>8941.0</ele>
        <time>2020-09-05T08:53:17Z</time>
      </trkpt>
      <trkpt lat="43.29693" lon="-2.3107386">
        <ele>8941.0</ele>
        <time>2020-09-05T08:53:21Z</time>
      </trkpt>
      <trkpt lat="43.29698" lon="-2.310694">
        <ele>8941.0</ele>
        <time>2020-09-05T08:53:26Z</time>
      </trkpt>
      <trkpt lat="43.297028" lon="-2.3106468">
        <ele>8941.0</ele>
        <time>2020-09-05T08:53:30Z</time>
      </trkpt>
      <trkpt lat="43.297073" lon="-2.3106012">
        <ele>8941.0</ele>
        <time>2020-09-05T08:53:34Z</time>
      </trkpt>
      <trkpt lat="43.297115" lon="-2.3105557">
        <ele>8941.0</ele>
        <time>2020-09-05T08:53:38Z</time>
      </trkpt>
      <trkpt lat="43.29717" lon="-2.3104987">
        <ele>8941.0</ele>
        <time>2020-09-05T08:53:43Z</time>
      </trkpt>
      <trkpt lat="43.297207" lon="-2.3104563">
        <ele>8941.0</ele>
        <time>2020-09-05T08:53:47Z</time>
      </trkpt>
      <trkpt lat="43.297207" lon="-2.3103666">
        <ele>8941.0</ele>
        <time>2020-09-05T08:53:53Z</time>
      </trkpt>
      <trkpt lat="43.29722" lon="-2.3103037">
        <ele>8941.0</ele>
        <time>2020-09-05T08:53:58Z</time>
      </trkpt>
      <trkpt lat="43.297237" lon="-2.3101673">
        <ele>8787.0</ele>
        <time>2020-09-05T08:54:57Z</time>
      </trkpt>
      <trkpt lat="43.297237" lon="-2.3100934">
        <ele>8787.0</ele>
        <time>2020-09-05T08:55:04Z</time>
      </trkpt>
      <trkpt lat="43.297253" lon="-2.310013">
        <ele>7123.0</ele>
        <time>2020-09-05T08:55:19Z</time>
      </trkpt>
      <trkpt lat="43.29728" lon="-2.309946">
        <ele>6869.0</ele>
        <time>2020-09-05T08:55:25Z</time>
      </trkpt>
      <trkpt lat="43.297302" lon="-2.309879">
        <ele>6869.0</ele>
        <time>2020-09-05T08:55:31Z</time>
      </trkpt>
      <trkpt lat="43.297325" lon="-2.3098238">
        <ele>6869.0</ele>
        <time>2020-09-05T08:55:37Z</time>
      </trkpt>
      <trkpt lat="43.297348" lon="-2.3097494">
        <ele>6741.0</ele>
        <time>2020-09-05T08:55:51Z</time>
      </trkpt>
      <trkpt lat="43.297356" lon="-2.3096843">
        <ele>6351.0</ele>
        <time>2020-09-05T08:56:01Z</time>
      </trkpt>
      <trkpt lat="43.29734" lon="-2.3096137">
        <ele>-428.0</ele>
        <time>2020-09-05T08:56:08Z</time>
      </trkpt>
      <trkpt lat="43.29735" lon="-2.3095517">
        <ele>-428.0</ele>
        <time>2020-09-05T08:56:15Z</time>
      </trkpt>
      <trkpt lat="43.2974" lon="-2.309465">
        <ele>-19.0</ele>
        <time>2020-09-05T08:56:32Z</time>
      </trkpt>
      <trkpt lat="43.29744" lon="-2.3094094">
        <ele>253.0</ele>
        <time>2020-09-05T08:56:37Z</time>
      </trkpt>
      <trkpt lat="43.297455" lon="-2.3093383">
        <ele>371.0</ele>
        <time>2020-09-05T08:56:42Z</time>
      </trkpt>
      <trkpt lat="43.29746" lon="-2.3092754">
        <ele>507.0</ele>
        <time>2020-09-05T08:56:46Z</time>
      </trkpt>
      <trkpt lat="43.29747" lon="-2.3091974">
        <ele>634.0</ele>
        <time>2020-09-05T08:56:51Z</time>
      </trkpt>
      <trkpt lat="43.297485" lon="-2.30912">
        <ele>771.0</ele>
        <time>2020-09-05T08:56:56Z</time>
      </trkpt>
      <trkpt lat="43.297497" lon="-2.3090456">
        <ele>771.0</ele>
        <time>2020-09-05T08:57:01Z</time>
      </trkpt>
      <trkpt lat="43.297527" lon="-2.3089764">
        <ele>898.0</ele>
        <time>2020-09-05T08:57:07Z</time>
      </trkpt>
      <trkpt lat="43.297558" lon="-2.3089256">
        <ele>1171.0</ele>
        <time>2020-09-05T08:57:13Z</time>
      </trkpt>
      <trkpt lat="43.297577" lon="-2.3088624">
        <ele>1443.0</ele>
        <time>2020-09-05T08:57:47Z</time>
      </trkpt>
      <trkpt lat="43.297565" lon="-2.3087883">
        <ele>1716.0</ele>
        <time>2020-09-05T08:57:53Z</time>
      </trkpt>
      <trkpt lat="43.297558" lon="-2.3087113">
        <ele>1843.0</ele>
        <time>2020-09-05T08:57:59Z</time>
      </trkpt>
      <trkpt lat="43.297535" lon="-2.3086503">
        <ele>1843.0</ele>
        <time>2020-09-05T08:58:06Z</time>
      </trkpt>
      <trkpt lat="43.297485" lon="-2.3085966">
        <ele>1843.0</ele>
        <time>2020-09-05T08:58:23Z</time>
      </trkpt>
      <trkpt lat="43.297432" lon="-2.3085623">
        <ele>1843.0</ele>
        <time>2020-09-05T08:58:30Z</time>
      </trkpt>
      <trkpt lat="43.2974" lon="-2.3085184">
        <ele>1843.0</ele>
        <time>2020-09-05T08:58:39Z</time>
      </trkpt>
      <trkpt lat="43.297474" lon="-2.3085337">
        <ele>1843.0</ele>
        <time>2020-09-05T09:19:39Z</time>
      </trkpt>
      <trkpt lat="43.297417" lon="-2.3085046">
        <ele>-4428.0</ele>
        <time>2020-09-05T09:19:50Z</time>
      </trkpt>
      <trkpt lat="43.297386" lon="-2.3084552">
        <ele>-5974.0</ele>
        <time>2020-09-05T09:19:55Z</time>
      </trkpt>
      <trkpt lat="43.297356" lon="-2.3083856">
        <ele>-6583.0</ele>
        <time>2020-09-05T09:20:01Z</time>
      </trkpt>
      <trkpt lat="43.297356" lon="-2.3083134">
        <ele>-6883.0</ele>
        <time>2020-09-05T09:20:06Z</time>
      </trkpt>
      <trkpt lat="43.29735" lon="-2.3082342">
        <ele>-7001.0</ele>
        <time>2020-09-05T09:20:12Z</time>
      </trkpt>
      <trkpt lat="43.297363" lon="-2.308168">
        <ele>-7119.0</ele>
        <time>2020-09-05T09:20:17Z</time>
      </trkpt>
      <trkpt lat="43.297363" lon="-2.308086">
        <ele>-7119.0</ele>
        <time>2020-09-05T09:20:22Z</time>
      </trkpt>
      <trkpt lat="43.297363" lon="-2.3080173">
        <ele>-7119.0</ele>
        <time>2020-09-05T09:20:26Z</time>
      </trkpt>
      <trkpt lat="43.297363" lon="-2.3079436">
        <ele>-7237.0</ele>
        <time>2020-09-05T09:20:31Z</time>
      </trkpt>
      <trkpt lat="43.297363" lon="-2.3078566">
        <ele>-7237.0</ele>
        <time>2020-09-05T09:20:36Z</time>
      </trkpt>
      <trkpt lat="43.29738" lon="-2.3077912">
        <ele>-7356.0</ele>
        <time>2020-09-05T09:20:41Z</time>
      </trkpt>
      <trkpt lat="43.297386" lon="-2.3077166">
        <ele>-7356.0</ele>
        <time>2020-09-05T09:20:47Z</time>
      </trkpt>
      <trkpt lat="43.297398" lon="-2.3076484">
        <ele>-7474.0</ele>
        <time>2020-09-05T09:20:53Z</time>
      </trkpt>
      <trkpt lat="43.297413" lon="-2.3075726">
        <ele>-7474.0</ele>
        <time>2020-09-05T09:20:59Z</time>
      </trkpt>
      <trkpt lat="43.297443" lon="-2.307509">
        <ele>-7474.0</ele>
        <time>2020-09-05T09:21:04Z</time>
      </trkpt>
      <trkpt lat="43.297462" lon="-2.3074503">
        <ele>-7474.0</ele>
        <time>2020-09-05T09:21:09Z</time>
      </trkpt>
      <trkpt lat="43.29749" lon="-2.3073754">
        <ele>-7474.0</ele>
        <time>2020-09-05T09:21:15Z</time>
      </trkpt>
      <trkpt lat="43.297512" lon="-2.3073027">
        <ele>-7474.0</ele>
        <time>2020-09-05T09:21:20Z</time>
      </trkpt>
      <trkpt lat="43.297516" lon="-2.307229">
        <ele>-7474.0</ele>
        <time>2020-09-05T09:21:25Z</time>
      </trkpt>
      <trkpt lat="43.297527" lon="-2.3071506">
        <ele>-7474.0</ele>
        <time>2020-09-05T09:21:34Z</time>
      </trkpt>
      <trkpt lat="43.297543" lon="-2.3070812">
        <ele>-7292.0</ele>
        <time>2020-09-05T09:21:39Z</time>
      </trkpt>
      <trkpt lat="43.297558" lon="-2.3070006">
        <ele>-7292.0</ele>
        <time>2020-09-05T09:21:44Z</time>
      </trkpt>
      <trkpt lat="43.297565" lon="-2.3069234">
        <ele>-7292.0</ele>
        <time>2020-09-05T09:21:49Z</time>
      </trkpt>
      <trkpt lat="43.297558" lon="-2.3068504">
        <ele>-7292.0</ele>
        <time>2020-09-05T09:21:54Z</time>
      </trkpt>
      <trkpt lat="43.297543" lon="-2.3067727">
        <ele>-7292.0</ele>
        <time>2020-09-05T09:21:59Z</time>
      </trkpt>
      <trkpt lat="43.29753" lon="-2.306711">
        <ele>-7583.0</ele>
        <time>2020-09-05T09:22:03Z</time>
      </trkpt>
      <trkpt lat="43.297512" lon="-2.3066423">
        <ele>-7856.0</ele>
        <time>2020-09-05T09:22:08Z</time>
      </trkpt>
      <trkpt lat="43.297462" lon="-2.30659">
        <ele>-8310.0</ele>
        <time>2020-09-05T09:22:13Z</time>
      </trkpt>
      <trkpt lat="43.29743" lon="-2.3065557">
        <ele>-8646.0</ele>
        <time>2020-09-05T09:22:18Z</time>
      </trkpt>
      <trkpt lat="43.297474" lon="-2.3065546">
        <ele>-8928.0</ele>
        <time>2020-09-05T09:22:57Z</time>
      </trkpt>
      <trkpt lat="43.297432" lon="-2.3065248">
        <ele>-8583.0</ele>
        <time>2020-09-05T09:23:09Z</time>
      </trkpt>
      <trkpt lat="43.29738" lon="-2.3064954">
        <ele>-8701.0</ele>
        <time>2020-09-05T09:24:19Z</time>
      </trkpt>
      <trkpt lat="43.297318" lon="-2.3064744">
        <ele>-8701.0</ele>
        <time>2020-09-05T09:24:29Z</time>
      </trkpt>
      <trkpt lat="43.29726" lon="-2.3064728">
        <ele>-8701.0</ele>
        <time>2020-09-05T09:24:33Z</time>
      </trkpt>
      <trkpt lat="43.2972" lon="-2.30647">
        <ele>-8701.0</ele>
        <time>2020-09-05T09:24:37Z</time>
      </trkpt>
      <trkpt lat="43.297146" lon="-2.306469">
        <ele>-8701.0</ele>
        <time>2020-09-05T09:24:42Z</time>
      </trkpt>
      <trkpt lat="43.297096" lon="-2.306466">
        <ele>-8701.0</ele>
        <time>2020-09-05T09:24:47Z</time>
      </trkpt>
      <trkpt lat="43.297035" lon="-2.3064616">
        <ele>-8165.0</ele>
        <time>2020-09-05T09:24:53Z</time>
      </trkpt>
      <trkpt lat="43.29699" lon="-2.3064396">
        <ele>-8028.0</ele>
        <time>2020-09-05T09:24:58Z</time>
      </trkpt>
      <trkpt lat="43.296936" lon="-2.3064146">
        <ele>-7910.0</ele>
        <time>2020-09-05T09:25:04Z</time>
      </trkpt>
      <trkpt lat="43.296886" lon="-2.3063734">
        <ele>-7656.0</ele>
        <time>2020-09-05T09:25:10Z</time>
      </trkpt>
      <trkpt lat="43.29685" lon="-2.3063233">
        <ele>-7528.0</ele>
        <time>2020-09-05T09:25:15Z</time>
      </trkpt>
      <trkpt lat="43.29681" lon="-2.3062713">
        <ele>-7374.0</ele>
        <time>2020-09-05T09:25:21Z</time>
      </trkpt>
      <trkpt lat="43.29678" lon="-2.306222">
        <ele>-7074.0</ele>
        <time>2020-09-05T09:25:28Z</time>
      </trkpt>
      <trkpt lat="43.29671" lon="-2.3061826">
        <ele>-6392.0</ele>
        <time>2020-09-05T09:25:59Z</time>
      </trkpt>
      <trkpt lat="43.296665" lon="-2.3061342">
        <ele>-6274.0</ele>
        <time>2020-09-05T09:26:06Z</time>
      </trkpt>
      <trkpt lat="43.296608" lon="-2.3060982">
        <ele>-5710.0</ele>
        <time>2020-09-05T09:26:11Z</time>
      </trkpt>
      <trkpt lat="43.296555" lon="-2.3059993">
        <ele>-4692.0</ele>
        <time>2020-09-05T09:26:58Z</time>
      </trkpt>
      <trkpt lat="43.296513" lon="-2.3059423">
        <ele>-3265.0</ele>
        <time>2020-09-05T09:27:06Z</time>
      </trkpt>
      <trkpt lat="43.296467" lon="-2.305913">
        <ele>-2865.0</ele>
        <time>2020-09-05T09:27:12Z</time>
      </trkpt>
      <trkpt lat="43.296413" lon="-2.3058977">
        <ele>-2746.0</ele>
        <time>2020-09-05T09:27:18Z</time>
      </trkpt>
      <trkpt lat="43.296368" lon="-2.3058643">
        <ele>-2501.0</ele>
        <time>2020-09-05T09:27:25Z</time>
      </trkpt>
      <trkpt lat="43.296318" lon="-2.3058252">
        <ele>-2374.0</ele>
        <time>2020-09-05T09:27:32Z</time>
      </trkpt>
      <trkpt lat="43.296234" lon="-2.3057888">
        <ele>-2128.0</ele>
        <time>2020-09-05T09:27:46Z</time>
      </trkpt>
      <trkpt lat="43.296185" lon="-2.3057516">
        <ele>-2128.0</ele>
        <time>2020-09-05T09:27:51Z</time>
      </trkpt>
      <trkpt lat="43.296135" lon="-2.30571">
        <ele>-2010.0</ele>
        <time>2020-09-05T09:27:56Z</time>
      </trkpt>
      <trkpt lat="43.296085" lon="-2.3056717">
        <ele>-2010.0</ele>
        <time>2020-09-05T09:28:02Z</time>
      </trkpt>
      <trkpt lat="43.296055" lon="-2.30564">
        <ele>-1874.0</ele>
        <time>2020-09-05T09:28:11Z</time>
      </trkpt>
      <trkpt lat="43.296" lon="-2.3056407">
        <ele>-1756.0</ele>
        <time>2020-09-05T09:28:18Z</time>
      </trkpt>
      <trkpt lat="43.29597" lon="-2.3056962">
        <ele>-1637.0</ele>
        <time>2020-09-05T09:28:27Z</time>
      </trkpt>
      <trkpt lat="43.29598" lon="-2.30577">
        <ele>-1374.0</ele>
        <time>2020-09-05T09:28:35Z</time>
      </trkpt>
      <trkpt lat="43.29601" lon="-2.3058398">
        <ele>-1119.0</ele>
        <time>2020-09-05T09:28:42Z</time>
      </trkpt>
      <trkpt lat="43.296017" lon="-2.3059">
        <ele>-974.0</ele>
        <time>2020-09-05T09:28:48Z</time>
      </trkpt>
      <trkpt lat="43.296036" lon="-2.305964">
        <ele>-592.0</ele>
        <time>2020-09-05T09:28:59Z</time>
      </trkpt>
      <trkpt lat="43.29604" lon="-2.306067">
        <ele>-346.0</ele>
        <time>2020-09-05T09:29:12Z</time>
      </trkpt>
      <trkpt lat="43.29607" lon="-2.306122">
        <ele>-92.0</ele>
        <time>2020-09-05T09:29:18Z</time>
      </trkpt>
      <trkpt lat="43.296085" lon="-2.306188">
        <ele>34.0</ele>
        <time>2020-09-05T09:29:25Z</time>
      </trkpt>
      <trkpt lat="43.296116" lon="-2.3062634">
        <ele>289.0</ele>
        <time>2020-09-05T09:29:32Z</time>
      </trkpt>
      <trkpt lat="43.296135" lon="-2.306335">
        <ele>698.0</ele>
        <time>2020-09-05T09:29:40Z</time>
      </trkpt>
      <trkpt lat="43.29614" lon="-2.306384">
        <ele>934.0</ele>
        <time>2020-09-05T09:29:50Z</time>
      </trkpt>
      <trkpt lat="43.29607" lon="-2.306357">
        <ele>1580.0</ele>
        <time>2020-09-05T09:30:18Z</time>
      </trkpt>
      <trkpt lat="43.296036" lon="-2.3062873">
        <ele>1998.0</ele>
        <time>2020-09-05T09:30:25Z</time>
      </trkpt>
      <trkpt lat="43.296" lon="-2.3062346">
        <ele>2125.0</ele>
        <time>2020-09-05T09:30:30Z</time>
      </trkpt>
      <trkpt lat="43.295975" lon="-2.3061724">
        <ele>2125.0</ele>
        <time>2020-09-05T09:30:36Z</time>
      </trkpt>
      <trkpt lat="43.295933" lon="-2.3061247">
        <ele>2125.0</ele>
        <time>2020-09-05T09:30:42Z</time>
      </trkpt>
      <trkpt lat="43.295883" lon="-2.3060794">
        <ele>2007.0</ele>
        <time>2020-09-05T09:30:48Z</time>
      </trkpt>
      <trkpt lat="43.295845" lon="-2.30603">
        <ele>1734.0</ele>
        <time>2020-09-05T09:30:54Z</time>
      </trkpt>
      <trkpt lat="43.295807" lon="-2.3059993">
        <ele>1734.0</ele>
        <time>2020-09-05T09:30:59Z</time>
      </trkpt>
      <trkpt lat="43.29575" lon="-2.305967">
        <ele>1443.0</ele>
        <time>2020-09-05T09:31:05Z</time>
      </trkpt>
      <trkpt lat="43.295704" lon="-2.3059294">
        <ele>1080.0</ele>
        <time>2020-09-05T09:31:11Z</time>
      </trkpt>
      <trkpt lat="43.29566" lon="-2.305896">
        <ele>834.0</ele>
        <time>2020-09-05T09:31:17Z</time>
      </trkpt>
      <trkpt lat="43.295612" lon="-2.305873">
        <ele>716.0</ele>
        <time>2020-09-05T09:31:27Z</time>
      </trkpt>
      <trkpt lat="43.29558" lon="-2.305809">
        <ele>598.0</ele>
        <time>2020-09-05T09:31:35Z</time>
      </trkpt>
      <trkpt lat="43.29555" lon="-2.3057532">
        <ele>716.0</ele>
        <time>2020-09-05T09:31:46Z</time>
      </trkpt>
      <trkpt lat="43.29551" lon="-2.305697">
        <ele>834.0</ele>
        <time>2020-09-05T09:31:53Z</time>
      </trkpt>
      <trkpt lat="43.29547" lon="-2.3056607">
        <ele>962.0</ele>
        <time>2020-09-05T09:32:00Z</time>
      </trkpt>
      <trkpt lat="43.29542" lon="-2.3056126">
        <ele>1098.0</ele>
        <time>2020-09-05T09:32:09Z</time>
      </trkpt>
      <trkpt lat="43.295387" lon="-2.305571">
        <ele>1216.0</ele>
        <time>2020-09-05T09:32:15Z</time>
      </trkpt>
      <trkpt lat="43.295334" lon="-2.305526">
        <ele>1216.0</ele>
        <time>2020-09-05T09:32:23Z</time>
      </trkpt>
      <trkpt lat="43.295288" lon="-2.3054943">
        <ele>934.0</ele>
        <time>2020-09-05T09:32:30Z</time>
      </trkpt>
      <trkpt lat="43.295254" lon="-2.3054438">
        <ele>507.0</ele>
        <time>2020-09-05T09:32:37Z</time>
      </trkpt>
      <trkpt lat="43.295208" lon="-2.305398">
        <ele>-746.0</ele>
        <time>2020-09-05T09:32:45Z</time>
      </trkpt>
      <trkpt lat="43.295155" lon="-2.3053672">
        <ele>-1365.0</ele>
        <time>2020-09-05T09:32:51Z</time>
      </trkpt>
      <trkpt lat="43.295105" lon="-2.3053267">
        <ele>-1937.0</ele>
        <time>2020-09-05T09:32:59Z</time>
      </trkpt>
      <trkpt lat="43.29508" lon="-2.3053246">
        <ele>-2619.0</ele>
        <time>2020-09-05T09:33:32Z</time>
      </trkpt>
      <trkpt lat="43.295017" lon="-2.3052833">
        <ele>-2874.0</ele>
        <time>2020-09-05T09:33:40Z</time>
      </trkpt>
      <trkpt lat="43.294975" lon="-2.3052547">
        <ele>-4774.0</ele>
        <time>2020-09-05T09:33:46Z</time>
      </trkpt>
      <trkpt lat="43.294926" lon="-2.3052278">
        <ele>-6010.0</ele>
        <time>2020-09-05T09:33:56Z</time>
      </trkpt>
      <trkpt lat="43.294872" lon="-2.305207">
        <ele>-6628.0</ele>
        <time>2020-09-05T09:34:03Z</time>
      </trkpt>
      <trkpt lat="43.29482" lon="-2.3051853">
        <ele>-7056.0</ele>
        <time>2020-09-05T09:34:11Z</time>
      </trkpt>
      <trkpt lat="43.294765" lon="-2.305171">
        <ele>-7374.0</ele>
        <time>2020-09-05T09:34:17Z</time>
      </trkpt>
      <trkpt lat="43.29471" lon="-2.3051608">
        <ele>-7846.0</ele>
        <time>2020-09-05T09:34:24Z</time>
      </trkpt>
      <trkpt lat="43.294655" lon="-2.3051517">
        <ele>-8092.0</ele>
        <time>2020-09-05T09:34:31Z</time>
      </trkpt>
      <trkpt lat="43.29461" lon="-2.3051326">
        <ele>-8092.0</ele>
        <time>2020-09-05T09:34:37Z</time>
      </trkpt>
      <trkpt lat="43.29456" lon="-2.3051033">
        <ele>-8092.0</ele>
        <time>2020-09-05T09:34:44Z</time>
      </trkpt>
      <trkpt lat="43.294506" lon="-2.305093">
        <ele>-8092.0</ele>
        <time>2020-09-05T09:34:52Z</time>
      </trkpt>
      <trkpt lat="43.294453" lon="-2.3050826">
        <ele>-7974.0</ele>
        <time>2020-09-05T09:35:00Z</time>
      </trkpt>
      <trkpt lat="43.294407" lon="-2.305072">
        <ele>-7974.0</ele>
        <time>2020-09-05T09:35:06Z</time>
      </trkpt>
      <trkpt lat="43.29435" lon="-2.305082">
        <ele>-8092.0</ele>
        <time>2020-09-05T09:35:21Z</time>
      </trkpt>
      <trkpt lat="43.294304" lon="-2.3050566">
        <ele>-8092.0</ele>
        <time>2020-09-05T09:35:28Z</time>
      </trkpt>
      <trkpt lat="43.29425" lon="-2.305036">
        <ele>-7710.0</ele>
        <time>2020-09-05T09:35:38Z</time>
      </trkpt>
      <trkpt lat="43.294197" lon="-2.3050096">
        <ele>-7465.0</ele>
        <time>2020-09-05T09:35:46Z</time>
      </trkpt>
      <trkpt lat="43.29414" lon="-2.3049812">
        <ele>-7328.0</ele>
        <time>2020-09-05T09:35:52Z</time>
      </trkpt>
      <trkpt lat="43.294075" lon="-2.3049648">
        <ele>-7065.0</ele>
        <time>2020-09-05T09:35:59Z</time>
      </trkpt>
      <trkpt lat="43.294025" lon="-2.3049402">
        <ele>-6819.0</ele>
        <time>2020-09-05T09:36:05Z</time>
      </trkpt>
      <trkpt lat="43.29397" lon="-2.3049183">
        <ele>-6674.0</ele>
        <time>2020-09-05T09:36:11Z</time>
      </trkpt>
      <trkpt lat="43.293915" lon="-2.3049042">
        <ele>-6537.0</ele>
        <time>2020-09-05T09:36:17Z</time>
      </trkpt>
      <trkpt lat="43.293877" lon="-2.304871">
        <ele>-6265.0</ele>
        <time>2020-09-05T09:36:24Z</time>
      </trkpt>
      <trkpt lat="43.29386" lon="-2.304798">
        <ele>-6110.0</ele>
        <time>2020-09-05T09:36:32Z</time>
      </trkpt>
      <trkpt lat="43.29383" lon="-2.3047976">
        <ele>-5710.0</ele>
        <time>2020-09-05T09:37:10Z</time>
      </trkpt>
      <trkpt lat="43.293774" lon="-2.304763">
        <ele>-5710.0</ele>
        <time>2020-09-05T09:37:16Z</time>
      </trkpt>
      <trkpt lat="43.293705" lon="-2.3047554">
        <ele>-5401.0</ele>
        <time>2020-09-05T09:37:20Z</time>
      </trkpt>
      <trkpt lat="43.29365" lon="-2.304734">
        <ele>-5065.0</ele>
        <time>2020-09-05T09:37:23Z</time>
      </trkpt>
      <trkpt lat="43.29357" lon="-2.304697">
        <ele>-4665.0</ele>
        <time>2020-09-05T09:37:27Z</time>
      </trkpt>
      <trkpt lat="43.293526" lon="-2.3046596">
        <ele>-4383.0</ele>
        <time>2020-09-05T09:37:31Z</time>
      </trkpt>
      <trkpt lat="43.29348" lon="-2.30462">
        <ele>-4146.0</ele>
        <time>2020-09-05T09:37:36Z</time>
      </trkpt>
      <trkpt lat="43.29344" lon="-2.3045666">
        <ele>-3856.0</ele>
        <time>2020-09-05T09:37:41Z</time>
      </trkpt>
      <trkpt lat="43.2934" lon="-2.3045096">
        <ele>-3737.0</ele>
        <time>2020-09-05T09:37:46Z</time>
      </trkpt>
      <trkpt lat="43.29336" lon="-2.3044636">
        <ele>-3501.0</ele>
        <time>2020-09-05T09:37:52Z</time>
      </trkpt>
      <trkpt lat="43.29334" lon="-2.3044038">
        <ele>-3246.0</ele>
        <time>2020-09-05T09:38:00Z</time>
      </trkpt>
      <trkpt lat="43.293324" lon="-2.3043323">
        <ele>-3001.0</ele>
        <time>2020-09-05T09:38:07Z</time>
      </trkpt>
      <trkpt lat="43.29327" lon="-2.304124">
        <ele>-3337.0</ele>
        <time>2020-09-05T09:38:37Z</time>
      </trkpt>
      <trkpt lat="43.293247" lon="-2.3040617">
        <ele>-3656.0</ele>
        <time>2020-09-05T09:38:44Z</time>
      </trkpt>
      <trkpt lat="43.29322" lon="-2.3039982">
        <ele>-3774.0</ele>
        <time>2020-09-05T09:38:52Z</time>
      </trkpt>
      <trkpt lat="43.29324" lon="-2.3039358">
        <ele>-4010.0</ele>
        <time>2020-09-05T09:39:23Z</time>
      </trkpt>
      <trkpt lat="43.293247" lon="-2.3038623">
        <ele>-4456.0</ele>
        <time>2020-09-05T09:39:31Z</time>
      </trkpt>
      <trkpt lat="43.293255" lon="-2.3037896">
        <ele>-4456.0</ele>
        <time>2020-09-05T09:39:38Z</time>
      </trkpt>
      <trkpt lat="43.293262" lon="-2.3037157">
        <ele>-4337.0</ele>
        <time>2020-09-05T09:39:48Z</time>
      </trkpt>
      <trkpt lat="43.293262" lon="-2.303634">
        <ele>-4210.0</ele>
        <time>2020-09-05T09:39:55Z</time>
      </trkpt>
      <trkpt lat="43.293266" lon="-2.3035624">
        <ele>-3946.0</ele>
        <time>2020-09-05T09:40:01Z</time>
      </trkpt>
      <trkpt lat="43.29327" lon="-2.303488">
        <ele>-3828.0</ele>
        <time>2020-09-05T09:40:07Z</time>
      </trkpt>
      <trkpt lat="43.29328" lon="-2.303418">
        <ele>-3701.0</ele>
        <time>2020-09-05T09:40:13Z</time>
      </trkpt>
      <trkpt lat="43.29331" lon="-2.303355">
        <ele>-3565.0</ele>
        <time>2020-09-05T09:40:18Z</time>
      </trkpt>
      <trkpt lat="43.29331" lon="-2.3032794">
        <ele>-3437.0</ele>
        <time>2020-09-05T09:40:24Z</time>
      </trkpt>
      <trkpt lat="43.293312" lon="-2.3032084">
        <ele>-3319.0</ele>
        <time>2020-09-05T09:40:30Z</time>
      </trkpt>
      <trkpt lat="43.29333" lon="-2.303138">
        <ele>-3319.0</ele>
        <time>2020-09-05T09:40:36Z</time>
      </trkpt>
      <trkpt lat="43.29336" lon="-2.3030827">
        <ele>-3201.0</ele>
        <time>2020-09-05T09:40:41Z</time>
      </trkpt>
      <trkpt lat="43.293407" lon="-2.3030417">
        <ele>-3083.0</ele>
        <time>2020-09-05T09:40:48Z</time>
      </trkpt>
      <trkpt lat="43.29346" lon="-2.303021">
        <ele>-2946.0</ele>
        <time>2020-09-05T09:40:57Z</time>
      </trkpt>
      <trkpt lat="43.293518" lon="-2.3030217">
        <ele>-2828.0</ele>
        <time>2020-09-05T09:41:03Z</time>
      </trkpt>
      <trkpt lat="43.293568" lon="-2.3030005">
        <ele>-2701.0</ele>
        <time>2020-09-05T09:41:10Z</time>
      </trkpt>
      <trkpt lat="43.293613" lon="-2.3029876">
        <ele>-2583.0</ele>
        <time>2020-09-05T09:41:21Z</time>
      </trkpt>
      <trkpt lat="43.293674" lon="-2.302969">
        <ele>-2465.0</ele>
        <time>2020-09-05T09:41:30Z</time>
      </trkpt>
      <trkpt lat="43.29372" lon="-2.3029566">
        <ele>-2346.0</ele>
        <time>2020-09-05T09:41:34Z</time>
      </trkpt>
      <trkpt lat="43.293766" lon="-2.3029397">
        <ele>-2346.0</ele>
        <time>2020-09-05T09:41:39Z</time>
      </trkpt>
      <trkpt lat="43.29383" lon="-2.302958">
        <ele>-2228.0</ele>
        <time>2020-09-05T09:41:48Z</time>
      </trkpt>
      <trkpt lat="43.293877" lon="-2.3029675">
        <ele>-2228.0</ele>
        <time>2020-09-05T09:41:55Z</time>
      </trkpt>
      <trkpt lat="43.293926" lon="-2.3029675">
        <ele>-2228.0</ele>
        <time>2020-09-05T09:42:04Z</time>
      </trkpt>
      <trkpt lat="43.294064" lon="-2.302935">
        <ele>-2110.0</ele>
        <time>2020-09-05T09:42:34Z</time>
      </trkpt>
      <trkpt lat="43.29411" lon="-2.302909">
        <ele>-2110.0</ele>
        <time>2020-09-05T09:42:41Z</time>
      </trkpt>
      <trkpt lat="43.294117" lon="-2.3028426">
        <ele>-2110.0</ele>
        <time>2020-09-05T09:42:49Z</time>
      </trkpt>
      <trkpt lat="43.29407" lon="-2.30278">
        <ele>-2110.0</ele>
        <time>2020-09-05T09:43:00Z</time>
      </trkpt>
      <trkpt lat="43.29404" lon="-2.3027246">
        <ele>-2110.0</ele>
        <time>2020-09-05T09:43:06Z</time>
      </trkpt>
      <trkpt lat="43.294025" lon="-2.3026593">
        <ele>-2710.0</ele>
        <time>2020-09-05T09:43:14Z</time>
      </trkpt>
      <trkpt lat="43.29401" lon="-2.302591">
        <ele>-2974.0</ele>
        <time>2020-09-05T09:43:23Z</time>
      </trkpt>
      <trkpt lat="43.29404" lon="-2.3025434">
        <ele>-3210.0</ele>
        <time>2020-09-05T09:43:32Z</time>
      </trkpt>
      <trkpt lat="43.29411" lon="-2.3025522">
        <ele>-4746.0</ele>
        <time>2020-09-05T09:44:38Z</time>
      </trkpt>
      <trkpt lat="43.294163" lon="-2.3025718">
        <ele>-4983.0</ele>
        <time>2020-09-05T09:44:45Z</time>
      </trkpt>
      <trkpt lat="43.294212" lon="-2.3025804">
        <ele>-5583.0</ele>
        <time>2020-09-05T09:44:50Z</time>
      </trkpt>
      <trkpt lat="43.294273" lon="-2.3025744">
        <ele>-5974.0</ele>
        <time>2020-09-05T09:44:56Z</time>
      </trkpt>
      <trkpt lat="43.29432" lon="-2.3025546">
        <ele>-6110.0</ele>
        <time>2020-09-05T09:45:02Z</time>
      </trkpt>
      <trkpt lat="43.29436" lon="-2.3025446">
        <ele>-5965.0</ele>
        <time>2020-09-05T09:45:12Z</time>
      </trkpt>
      <trkpt lat="43.29428" lon="-2.3025377">
        <ele>-5719.0</ele>
        <time>2020-09-05T09:49:11Z</time>
      </trkpt>
      <trkpt lat="43.294224" lon="-2.3025486">
        <ele>-5719.0</ele>
        <time>2020-09-05T09:49:21Z</time>
      </trkpt>
      <trkpt lat="43.294167" lon="-2.3025517">
        <ele>-12865.0</ele>
        <time>2020-09-05T09:49:28Z</time>
      </trkpt>
      <trkpt lat="43.29411" lon="-2.3025384">
        <ele>-13892.0</ele>
        <time>2020-09-05T09:49:34Z</time>
      </trkpt>
      <trkpt lat="43.294064" lon="-2.3025308">
        <ele>-14528.0</ele>
        <time>2020-09-05T09:49:40Z</time>
      </trkpt>
      <trkpt lat="43.294018" lon="-2.3024874">
        <ele>-15165.0</ele>
        <time>2020-09-05T09:49:52Z</time>
      </trkpt>
      <trkpt lat="43.293983" lon="-2.302419">
        <ele>-15565.0</ele>
        <time>2020-09-05T09:50:00Z</time>
      </trkpt>
      <trkpt lat="43.293957" lon="-2.3023627">
        <ele>-15992.0</ele>
        <time>2020-09-05T09:50:06Z</time>
      </trkpt>
      <trkpt lat="43.293915" lon="-2.3023093">
        <ele>-16237.0</ele>
        <time>2020-09-05T09:50:13Z</time>
      </trkpt>
      <trkpt lat="43.29389" lon="-2.302243">
        <ele>-16383.0</ele>
        <time>2020-09-05T09:50:21Z</time>
      </trkpt>
      <trkpt lat="43.29386" lon="-2.3021717">
        <ele>-16646.0</ele>
        <time>2020-09-05T09:50:30Z</time>
      </trkpt>
      <trkpt lat="43.29383" lon="-2.3021076">
        <ele>-16646.0</ele>
        <time>2020-09-05T09:50:38Z</time>
      </trkpt>
      <trkpt lat="43.29375" lon="-2.3020234">
        <ele>-16246.0</ele>
        <time>2020-09-05T09:50:59Z</time>
      </trkpt>
      <trkpt lat="43.293716" lon="-2.3019774">
        <ele>-16110.0</ele>
        <time>2020-09-05T09:51:05Z</time>
      </trkpt>
      <trkpt lat="43.293667" lon="-2.301946">
        <ele>-15992.0</ele>
        <time>2020-09-05T09:51:11Z</time>
      </trkpt>
      <trkpt lat="43.293602" lon="-2.301923">
        <ele>-15746.0</ele>
        <time>2020-09-05T09:51:17Z</time>
      </trkpt>
      <trkpt lat="43.293552" lon="-2.3018932">
        <ele>-15610.0</ele>
        <time>2020-09-05T09:51:23Z</time>
      </trkpt>
      <trkpt lat="43.29351" lon="-2.3018613">
        <ele>-15492.0</ele>
        <time>2020-09-05T09:51:28Z</time>
      </trkpt>
      <trkpt lat="43.293457" lon="-2.301823">
        <ele>-15228.0</ele>
        <time>2020-09-05T09:51:34Z</time>
      </trkpt>
      <trkpt lat="43.293407" lon="-2.3017914">
        <ele>-15092.0</ele>
        <time>2020-09-05T09:51:39Z</time>
      </trkpt>
      <trkpt lat="43.29336" lon="-2.3017533">
        <ele>-14956.0</ele>
        <time>2020-09-05T09:51:45Z</time>
      </trkpt>
      <trkpt lat="43.293312" lon="-2.301719">
        <ele>-14701.0</ele>
        <time>2020-09-05T09:51:51Z</time>
      </trkpt>
      <trkpt lat="43.29327" lon="-2.3016968">
        <ele>-14701.0</ele>
        <time>2020-09-05T09:51:56Z</time>
      </trkpt>
      <trkpt lat="43.293213" lon="-2.301673">
        <ele>-14574.0</ele>
        <time>2020-09-05T09:52:02Z</time>
      </trkpt>
      <trkpt lat="43.29316" lon="-2.301649">
        <ele>-14319.0</ele>
        <time>2020-09-05T09:52:09Z</time>
      </trkpt>
      <trkpt lat="43.293114" lon="-2.3016458">
        <ele>-14201.0</ele>
        <time>2020-09-05T09:52:15Z</time>
      </trkpt>
      <trkpt lat="43.29306" lon="-2.3016496">
        <ele>-13928.0</ele>
        <time>2020-09-05T09:52:21Z</time>
      </trkpt>
      <trkpt lat="43.293003" lon="-2.301657">
        <ele>-13628.0</ele>
        <time>2020-09-05T09:52:28Z</time>
      </trkpt>
      <trkpt lat="43.29295" lon="-2.301663">
        <ele>-13383.0</ele>
        <time>2020-09-05T09:52:35Z</time>
      </trkpt>
      <trkpt lat="43.292892" lon="-2.3016527">
        <ele>-13119.0</ele>
        <time>2020-09-05T09:52:42Z</time>
      </trkpt>
      <trkpt lat="43.292835" lon="-2.3016264">
        <ele>-12737.0</ele>
        <time>2020-09-05T09:52:49Z</time>
      </trkpt>
      <trkpt lat="43.292793" lon="-2.3015976">
        <ele>-12601.0</ele>
        <time>2020-09-05T09:52:54Z</time>
      </trkpt>
      <trkpt lat="43.292747" lon="-2.3015537">
        <ele>-12319.0</ele>
        <time>2020-09-05T09:53:00Z</time>
      </trkpt>
      <trkpt lat="43.29271" lon="-2.301511">
        <ele>17329.0</ele>
        <time>2020-09-05T09:53:05Z</time>
      </trkpt>
      <trkpt lat="43.292664" lon="-2.3014467">
        <ele>17602.0</ele>
        <time>2020-09-05T09:53:11Z</time>
      </trkpt>
      <trkpt lat="43.292614" lon="-2.301402">
        <ele>17865.0</ele>
        <time>2020-09-05T09:53:16Z</time>
      </trkpt>
      <trkpt lat="43.29257" lon="-2.3013613">
        <ele>17984.0</ele>
        <time>2020-09-05T09:53:21Z</time>
      </trkpt>
      <trkpt lat="43.292522" lon="-2.3013177">
        <ele>18256.0</ele>
        <time>2020-09-05T09:53:27Z</time>
      </trkpt>
      <trkpt lat="43.292477" lon="-2.301288">
        <ele>18374.0</ele>
        <time>2020-09-05T09:53:32Z</time>
      </trkpt>
      <trkpt lat="43.29242" lon="-2.3012743">
        <ele>18511.0</ele>
        <time>2020-09-05T09:53:37Z</time>
      </trkpt>
      <trkpt lat="43.292374" lon="-2.3012724">
        <ele>18656.0</ele>
        <time>2020-09-05T09:53:42Z</time>
      </trkpt>
      <trkpt lat="43.29224" lon="-2.3013334">
        <ele>19393.0</ele>
        <time>2020-09-05T09:54:24Z</time>
      </trkpt>
      <trkpt lat="43.292236" lon="-2.3013334">
        <ele>19393.0</ele>
        <time>2020-09-05T09:54:25Z</time>
      </trkpt>
      <trkpt lat="43.29218" lon="-2.3013186">
        <ele>19647.0</ele>
        <time>2020-09-05T09:54:35Z</time>
      </trkpt>
      <trkpt lat="43.292133" lon="-2.3012598">
        <ele>20647.0</ele>
        <time>2020-09-05T09:54:41Z</time>
      </trkpt>
      <trkpt lat="43.292088" lon="-2.3012083">
        <ele>20647.0</ele>
        <time>2020-09-05T09:54:46Z</time>
      </trkpt>
      <trkpt lat="43.29204" lon="-2.3011506">
        <ele>20511.0</ele>
        <time>2020-09-05T09:54:51Z</time>
      </trkpt>
      <trkpt lat="43.292" lon="-2.301094">
        <ele>20374.0</ele>
        <time>2020-09-05T09:54:56Z</time>
      </trkpt>
      <trkpt lat="43.291965" lon="-2.3010557">
        <ele>20247.0</ele>
        <time>2020-09-05T09:55:00Z</time>
      </trkpt>
      <trkpt lat="43.29192" lon="-2.301008">
        <ele>19965.0</ele>
        <time>2020-09-05T09:55:05Z</time>
      </trkpt>
      <trkpt lat="43.291866" lon="-2.3009677">
        <ele>19820.0</ele>
        <time>2020-09-05T09:55:10Z</time>
      </trkpt>
      <trkpt lat="43.29182" lon="-2.3009267">
        <ele>19556.0</ele>
        <time>2020-09-05T09:55:15Z</time>
      </trkpt>
      <trkpt lat="43.291782" lon="-2.3008897">
        <ele>19556.0</ele>
        <time>2020-09-05T09:55:20Z</time>
      </trkpt>
      <trkpt lat="43.291737" lon="-2.300844">
        <ele>19438.0</ele>
        <time>2020-09-05T09:55:25Z</time>
      </trkpt>
      <trkpt lat="43.291695" lon="-2.3007956">
        <ele>19438.0</ele>
        <time>2020-09-05T09:55:30Z</time>
      </trkpt>
      <trkpt lat="43.291664" lon="-2.3007414">
        <ele>19556.0</ele>
        <time>2020-09-05T09:55:35Z</time>
      </trkpt>
      <trkpt lat="43.29164" lon="-2.300674">
        <ele>19693.0</ele>
        <time>2020-09-05T09:55:40Z</time>
      </trkpt>
      <trkpt lat="43.29164" lon="-2.300602">
        <ele>19938.0</ele>
        <time>2020-09-05T09:55:46Z</time>
      </trkpt>
      <trkpt lat="43.29167" lon="-2.300532">
        <ele>20284.0</ele>
        <time>2020-09-05T09:55:51Z</time>
      </trkpt>
      <trkpt lat="43.291706" lon="-2.3004777">
        <ele>20565.0</ele>
        <time>2020-09-05T09:55:55Z</time>
      </trkpt>
      <trkpt lat="43.29173" lon="-2.3004093">
        <ele>21074.0</ele>
        <time>2020-09-05T09:56:00Z</time>
      </trkpt>
      <trkpt lat="43.291767" lon="-2.300347">
        <ele>21374.0</ele>
        <time>2020-09-05T09:56:05Z</time>
      </trkpt>
      <trkpt lat="43.291798" lon="-2.300291">
        <ele>21738.0</ele>
        <time>2020-09-05T09:56:10Z</time>
      </trkpt>
      <trkpt lat="43.29183" lon="-2.3002284">
        <ele>22029.0</ele>
        <time>2020-09-05T09:56:15Z</time>
      </trkpt>
      <trkpt lat="43.29186" lon="-2.3001697">
        <ele>22311.0</ele>
        <time>2020-09-05T09:56:20Z</time>
      </trkpt>
      <trkpt lat="43.291885" lon="-2.300101">
        <ele>22593.0</ele>
        <time>2020-09-05T09:56:25Z</time>
      </trkpt>
      <trkpt lat="43.291904" lon="-2.3000233">
        <ele>22920.0</ele>
        <time>2020-09-05T09:56:31Z</time>
      </trkpt>
      <trkpt lat="43.29193" lon="-2.2999437">
        <ele>23229.0</ele>
        <time>2020-09-05T09:56:37Z</time>
      </trkpt>
      <trkpt lat="43.29195" lon="-2.299872">
        <ele>23547.0</ele>
        <time>2020-09-05T09:56:43Z</time>
      </trkpt>
      <trkpt lat="43.29197" lon="-2.299803">
        <ele>23829.0</ele>
        <time>2020-09-05T09:56:51Z</time>
      </trkpt>
      <trkpt lat="43.291992" lon="-2.2997303">
        <ele>23956.0</ele>
        <time>2020-09-05T09:56:57Z</time>
      </trkpt>
      <trkpt lat="43.292" lon="-2.2996593">
        <ele>24247.0</ele>
        <time>2020-09-05T09:57:03Z</time>
      </trkpt>
      <trkpt lat="43.29201" lon="-2.299586">
        <ele>24374.0</ele>
        <time>2020-09-05T09:57:09Z</time>
      </trkpt>
      <trkpt lat="43.292027" lon="-2.2995198">
        <ele>24374.0</ele>
        <time>2020-09-05T09:57:15Z</time>
      </trkpt>
      <trkpt lat="43.29204" lon="-2.2994483">
        <ele>24238.0</ele>
        <time>2020-09-05T09:57:21Z</time>
      </trkpt>
      <trkpt lat="43.29206" lon="-2.2993708">
        <ele>24238.0</ele>
        <time>2020-09-05T09:57:27Z</time>
      </trkpt>
      <trkpt lat="43.29208" lon="-2.2992883">
        <ele>24384.0</ele>
        <time>2020-09-05T09:57:33Z</time>
      </trkpt>
      <trkpt lat="43.292103" lon="-2.2992096">
        <ele>24647.0</ele>
        <time>2020-09-05T09:57:39Z</time>
      </trkpt>
      <trkpt lat="43.29213" lon="-2.299145">
        <ele>24793.0</ele>
        <time>2020-09-05T09:57:44Z</time>
      </trkpt>
      <trkpt lat="43.292156" lon="-2.29908">
        <ele>25074.0</ele>
        <time>2020-09-05T09:57:49Z</time>
      </trkpt>
      <trkpt lat="43.29218" lon="-2.299012">
        <ele>25211.0</ele>
        <time>2020-09-05T09:57:54Z</time>
      </trkpt>
      <trkpt lat="43.292217" lon="-2.298947">
        <ele>25356.0</ele>
        <time>2020-09-05T09:57:59Z</time>
      </trkpt>
      <trkpt lat="43.292248" lon="-2.2988868">
        <ele>25602.0</ele>
        <time>2020-09-05T09:58:04Z</time>
      </trkpt>
      <trkpt lat="43.29228" lon="-2.2988174">
        <ele>25729.0</ele>
        <time>2020-09-05T09:58:10Z</time>
      </trkpt>
      <trkpt lat="43.292305" lon="-2.2987487">
        <ele>25965.0</ele>
        <time>2020-09-05T09:58:16Z</time>
      </trkpt>
      <trkpt lat="43.29232" lon="-2.2986867">
        <ele>26102.0</ele>
        <time>2020-09-05T09:58:21Z</time>
      </trkpt>
      <trkpt lat="43.292313" lon="-2.298613">
        <ele>26238.0</ele>
        <time>2020-09-05T09:58:26Z</time>
      </trkpt>
      <trkpt lat="43.292294" lon="-2.2985396">
        <ele>26238.0</ele>
        <time>2020-09-05T09:58:32Z</time>
      </trkpt>
      <trkpt lat="43.292255" lon="-2.298486">
        <ele>26238.0</ele>
        <time>2020-09-05T09:58:38Z</time>
      </trkpt>
      <trkpt lat="43.29221" lon="-2.2984424">
        <ele>26238.0</ele>
        <time>2020-09-05T09:58:43Z</time>
      </trkpt>
      <trkpt lat="43.29217" lon="-2.2984073">
        <ele>26484.0</ele>
        <time>2020-09-05T09:58:48Z</time>
      </trkpt>
      <trkpt lat="43.29211" lon="-2.2983766">
        <ele>26738.0</ele>
        <time>2020-09-05T09:58:55Z</time>
      </trkpt>
      <trkpt lat="43.29206" lon="-2.298352">
        <ele>27020.0</ele>
        <time>2020-09-05T09:59:02Z</time>
      </trkpt>
      <trkpt lat="43.292007" lon="-2.2983434">
        <ele>27411.0</ele>
        <time>2020-09-05T09:59:18Z</time>
      </trkpt>
      <trkpt lat="43.29196" lon="-2.2983217">
        <ele>27556.0</ele>
        <time>2020-09-05T09:59:22Z</time>
      </trkpt>
      <trkpt lat="43.291653" lon="-2.297875">
        <ele>27556.0</ele>
        <time>2020-09-05T10:00:13Z</time>
      </trkpt>
      <trkpt lat="43.291546" lon="-2.2977257">
        <ele>27556.0</ele>
        <time>2020-09-05T10:00:30Z</time>
      </trkpt>
      <trkpt lat="43.291496" lon="-2.2976933">
        <ele>27556.0</ele>
        <time>2020-09-05T10:00:37Z</time>
      </trkpt>
      <trkpt lat="43.29144" lon="-2.2976732">
        <ele>27811.0</ele>
        <time>2020-09-05T10:00:44Z</time>
      </trkpt>
      <trkpt lat="43.291393" lon="-2.2976794">
        <ele>27929.0</ele>
        <time>2020-09-05T10:00:50Z</time>
      </trkpt>
      <trkpt lat="43.291332" lon="-2.297685">
        <ele>28047.0</ele>
        <time>2020-09-05T10:00:55Z</time>
      </trkpt>
      <trkpt lat="43.29128" lon="-2.297704">
        <ele>28047.0</ele>
        <time>2020-09-05T10:01:00Z</time>
      </trkpt>
      <trkpt lat="43.29122" lon="-2.29772">
        <ele>28047.0</ele>
        <time>2020-09-05T10:01:05Z</time>
      </trkpt>
      <trkpt lat="43.291183" lon="-2.2977543">
        <ele>28047.0</ele>
        <time>2020-09-05T10:01:10Z</time>
      </trkpt>
      <trkpt lat="43.291138" lon="-2.2977817">
        <ele>28047.0</ele>
        <time>2020-09-05T10:01:15Z</time>
      </trkpt>
      <trkpt lat="43.29108" lon="-2.297796">
        <ele>27902.0</ele>
        <time>2020-09-05T10:01:20Z</time>
      </trkpt>
      <trkpt lat="43.291035" lon="-2.2978222">
        <ele>27493.0</ele>
        <time>2020-09-05T10:01:27Z</time>
      </trkpt>
      <trkpt lat="43.290974" lon="-2.2978227">
        <ele>26938.0</ele>
        <time>2020-09-05T10:01:36Z</time>
      </trkpt>
      <trkpt lat="43.29091" lon="-2.297834">
        <ele>26665.0</ele>
        <time>2020-09-05T10:01:41Z</time>
      </trkpt>
      <trkpt lat="43.290844" lon="-2.2978318">
        <ele>26374.0</ele>
        <time>2020-09-05T10:01:46Z</time>
      </trkpt>
      <trkpt lat="43.290787" lon="-2.2978268">
        <ele>25893.0</ele>
        <time>2020-09-05T10:01:51Z</time>
      </trkpt>
      <trkpt lat="43.29072" lon="-2.2978206">
        <ele>25611.0</ele>
        <time>2020-09-05T10:01:56Z</time>
      </trkpt>
      <trkpt lat="43.290665" lon="-2.29781">
        <ele>25284.0</ele>
        <time>2020-09-05T10:02:00Z</time>
      </trkpt>
      <trkpt lat="43.290607" lon="-2.2977967">
        <ele>24929.0</ele>
        <time>2020-09-05T10:02:04Z</time>
      </trkpt>
      <trkpt lat="43.290558" lon="-2.297789">
        <ele>24593.0</ele>
        <time>2020-09-05T10:02:08Z</time>
      </trkpt>
      <trkpt lat="43.290497" lon="-2.2977867">
        <ele>23993.0</ele>
        <time>2020-09-05T10:02:13Z</time>
      </trkpt>
      <trkpt lat="43.290436" lon="-2.2977827">
        <ele>23620.0</ele>
        <time>2020-09-05T10:02:18Z</time>
      </trkpt>
      <trkpt lat="43.290382" lon="-2.2977793">
        <ele>23065.0</ele>
        <time>2020-09-05T10:02:23Z</time>
      </trkpt>
      <trkpt lat="43.29031" lon="-2.2977734">
        <ele>22674.0</ele>
        <time>2020-09-05T10:02:28Z</time>
      </trkpt>
      <trkpt lat="43.29026" lon="-2.2977684">
        <ele>22393.0</ele>
        <time>2020-09-05T10:02:32Z</time>
      </trkpt>
      <trkpt lat="43.290203" lon="-2.297764">
        <ele>22093.0</ele>
        <time>2020-09-05T10:02:37Z</time>
      </trkpt>
      <trkpt lat="43.29015" lon="-2.2977557">
        <ele>21665.0</ele>
        <time>2020-09-05T10:02:42Z</time>
      </trkpt>
      <trkpt lat="43.290085" lon="-2.2977383">
        <ele>21129.0</ele>
        <time>2020-09-05T10:02:47Z</time>
      </trkpt>
      <trkpt lat="43.29003" lon="-2.2977164">
        <ele>20729.0</ele>
        <time>2020-09-05T10:02:51Z</time>
      </trkpt>
      <trkpt lat="43.289986" lon="-2.2976944">
        <ele>20338.0</ele>
        <time>2020-09-05T10:02:55Z</time>
      </trkpt>
      <trkpt lat="43.289917" lon="-2.2976723">
        <ele>19784.0</ele>
        <time>2020-09-05T10:03:00Z</time>
      </trkpt>
      <trkpt lat="43.28986" lon="-2.2976594">
        <ele>19411.0</ele>
        <time>2020-09-05T10:03:05Z</time>
      </trkpt>
      <trkpt lat="43.289806" lon="-2.29765">
        <ele>18984.0</ele>
        <time>2020-09-05T10:03:10Z</time>
      </trkpt>
      <trkpt lat="43.28976" lon="-2.297641">
        <ele>18629.0</ele>
        <time>2020-09-05T10:03:14Z</time>
      </trkpt>
      <trkpt lat="43.289707" lon="-2.2976344">
        <ele>18293.0</ele>
        <time>2020-09-05T10:03:18Z</time>
      </trkpt>
      <trkpt lat="43.289646" lon="-2.2976134">
        <ele>18011.0</ele>
        <time>2020-09-05T10:03:23Z</time>
      </trkpt>
      <trkpt lat="43.289604" lon="-2.2975907">
        <ele>17665.0</ele>
        <time>2020-09-05T10:03:27Z</time>
      </trkpt>
      <trkpt lat="43.289547" lon="-2.2975614">
        <ele>17202.0</ele>
        <time>2020-09-05T10:03:32Z</time>
      </trkpt>
      <trkpt lat="43.289494" lon="-2.2975347">
        <ele>16865.0</ele>
        <time>2020-09-05T10:03:37Z</time>
      </trkpt>
      <trkpt lat="43.289448" lon="-2.2975216">
        <ele>16502.0</ele>
        <time>2020-09-05T10:03:41Z</time>
      </trkpt>
      <trkpt lat="43.28939" lon="-2.2975006">
        <ele>15974.0</ele>
        <time>2020-09-05T10:03:46Z</time>
      </trkpt>
      <trkpt lat="43.289333" lon="-2.2974803">
        <ele>15638.0</ele>
        <time>2020-09-05T10:03:51Z</time>
      </trkpt>
      <trkpt lat="43.289272" lon="-2.297475">
        <ele>15165.0</ele>
        <time>2020-09-05T10:03:56Z</time>
      </trkpt>
      <trkpt lat="43.289223" lon="-2.2974784">
        <ele>14911.0</ele>
        <time>2020-09-05T10:04:00Z</time>
      </trkpt>
      <trkpt lat="43.28917" lon="-2.2974846">
        <ele>14747.0</ele>
        <time>2020-09-05T10:04:04Z</time>
      </trkpt>
      <trkpt lat="43.289112" lon="-2.2974887">
        <ele>14502.0</ele>
        <time>2020-09-05T10:04:08Z</time>
      </trkpt>
      <trkpt lat="43.28906" lon="-2.297494">
        <ele>14093.0</ele>
        <time>2020-09-05T10:04:13Z</time>
      </trkpt>
      <trkpt lat="43.289" lon="-2.297485">
        <ele>13965.0</ele>
        <time>2020-09-05T10:04:18Z</time>
      </trkpt>
      <trkpt lat="43.288933" lon="-2.2974772">
        <ele>13684.0</ele>
        <time>2020-09-05T10:04:23Z</time>
      </trkpt>
      <trkpt lat="43.28887" lon="-2.297462">
        <ele>13374.0</ele>
        <time>2020-09-05T10:04:28Z</time>
      </trkpt>
      <trkpt lat="43.288822" lon="-2.2974377">
        <ele>13229.0</ele>
        <time>2020-09-05T10:04:32Z</time>
      </trkpt>
      <trkpt lat="43.28877" lon="-2.29741">
        <ele>13111.0</ele>
        <time>2020-09-05T10:04:37Z</time>
      </trkpt>
      <trkpt lat="43.288723" lon="-2.2973616">
        <ele>12993.0</ele>
        <time>2020-09-05T10:04:46Z</time>
      </trkpt>
      <trkpt lat="43.288673" lon="-2.297301">
        <ele>13374.0</ele>
        <time>2020-09-05T10:04:54Z</time>
      </trkpt>
      <trkpt lat="43.28864" lon="-2.297252">
        <ele>13738.0</ele>
        <time>2020-09-05T10:05:00Z</time>
      </trkpt>
      <trkpt lat="43.28859" lon="-2.2972038">
        <ele>14047.0</ele>
        <time>2020-09-05T10:05:05Z</time>
      </trkpt>
      <trkpt lat="43.288544" lon="-2.2971637">
        <ele>14511.0</ele>
        <time>2020-09-05T10:05:10Z</time>
      </trkpt>
      <trkpt lat="43.28849" lon="-2.2971237">
        <ele>14856.0</ele>
        <time>2020-09-05T10:05:15Z</time>
      </trkpt>
      <trkpt lat="43.288437" lon="-2.297088">
        <ele>15356.0</ele>
        <time>2020-09-05T10:05:20Z</time>
      </trkpt>
      <trkpt lat="43.288376" lon="-2.2970674">
        <ele>15602.0</ele>
        <time>2020-09-05T10:05:25Z</time>
      </trkpt>
      <trkpt lat="43.28833" lon="-2.2970574">
        <ele>15893.0</ele>
        <time>2020-09-05T10:05:29Z</time>
      </trkpt>
      <trkpt lat="43.288265" lon="-2.2970374">
        <ele>16393.0</ele>
        <time>2020-09-05T10:05:34Z</time>
      </trkpt>
      <trkpt lat="43.28821" lon="-2.2970164">
        <ele>16720.0</ele>
        <time>2020-09-05T10:05:39Z</time>
      </trkpt>
      <trkpt lat="43.288155" lon="-2.2970014">
        <ele>17211.0</ele>
        <time>2020-09-05T10:05:44Z</time>
      </trkpt>
      <trkpt lat="43.2881" lon="-2.2969887">
        <ele>17511.0</ele>
        <time>2020-09-05T10:05:49Z</time>
      </trkpt>
      <trkpt lat="43.288044" lon="-2.296973">
        <ele>17838.0</ele>
        <time>2020-09-05T10:05:53Z</time>
      </trkpt>
      <trkpt lat="43.28799" lon="-2.296959">
        <ele>18165.0</ele>
        <time>2020-09-05T10:05:57Z</time>
      </trkpt>
      <trkpt lat="43.28794" lon="-2.2969394">
        <ele>18584.0</ele>
        <time>2020-09-05T10:06:02Z</time>
      </trkpt>
      <trkpt lat="43.28789" lon="-2.296922">
        <ele>18856.0</ele>
        <time>2020-09-05T10:06:07Z</time>
      </trkpt>
      <trkpt lat="43.287838" lon="-2.2969136">
        <ele>18984.0</ele>
        <time>2020-09-05T10:06:12Z</time>
      </trkpt>
      <trkpt lat="43.287773" lon="-2.2968986">
        <ele>19111.0</ele>
        <time>2020-09-05T10:06:17Z</time>
      </trkpt>
      <trkpt lat="43.287704" lon="-2.2968614">
        <ele>19111.0</ele>
        <time>2020-09-05T10:06:25Z</time>
      </trkpt>
      <trkpt lat="43.287655" lon="-2.2968364">
        <ele>19111.0</ele>
        <time>2020-09-05T10:06:30Z</time>
      </trkpt>
      <trkpt lat="43.28761" lon="-2.2968073">
        <ele>19111.0</ele>
        <time>2020-09-05T10:06:35Z</time>
      </trkpt>
      <trkpt lat="43.287586" lon="-2.2967443">
        <ele>19747.0</ele>
        <time>2020-09-05T10:06:46Z</time>
      </trkpt>
      <trkpt lat="43.2876" lon="-2.2966707">
        <ele>20029.0</ele>
        <time>2020-09-05T10:06:52Z</time>
      </trkpt>
      <trkpt lat="43.287624" lon="-2.2966">
        <ele>20329.0</ele>
        <time>2020-09-05T10:06:57Z</time>
      </trkpt>
      <trkpt lat="43.287636" lon="-2.2965202">
        <ele>20620.0</ele>
        <time>2020-09-05T10:07:03Z</time>
      </trkpt>
      <trkpt lat="43.28764" lon="-2.2964628">
        <ele>21020.0</ele>
        <time>2020-09-05T10:07:09Z</time>
      </trkpt>
      <trkpt lat="43.287666" lon="-2.2963824">
        <ele>21584.0</ele>
        <time>2020-09-05T10:07:20Z</time>
      </trkpt>
      <trkpt lat="43.28768" lon="-2.2963097">
        <ele>21847.0</ele>
        <time>2020-09-05T10:07:26Z</time>
      </trkpt>
      <trkpt lat="43.2877" lon="-2.2962434">
        <ele>22147.0</ele>
        <time>2020-09-05T10:07:31Z</time>
      </trkpt>
      <trkpt lat="43.287727" lon="-2.2961757">
        <ele>22393.0</ele>
        <time>2020-09-05T10:07:36Z</time>
      </trkpt>
      <trkpt lat="43.287735" lon="-2.296105">
        <ele>22738.0</ele>
        <time>2020-09-05T10:07:41Z</time>
      </trkpt>
      <trkpt lat="43.28775" lon="-2.2960413">
        <ele>22865.0</ele>
        <time>2020-09-05T10:07:46Z</time>
      </trkpt>
      <trkpt lat="43.287773" lon="-2.295969">
        <ele>23138.0</ele>
        <time>2020-09-05T10:07:53Z</time>
      </trkpt>
      <trkpt lat="43.287796" lon="-2.2959">
        <ele>23374.0</ele>
        <time>2020-09-05T10:07:59Z</time>
      </trkpt>
      <trkpt lat="43.28782" lon="-2.295832">
        <ele>23647.0</ele>
        <time>2020-09-05T10:08:06Z</time>
      </trkpt>
      <trkpt lat="43.287823" lon="-2.2957528">
        <ele>23774.0</ele>
        <time>2020-09-05T10:08:14Z</time>
      </trkpt>
      <trkpt lat="43.28781" lon="-2.2956758">
        <ele>23893.0</ele>
        <time>2020-09-05T10:08:20Z</time>
      </trkpt>
      <trkpt lat="43.287796" lon="-2.2956057">
        <ele>23893.0</ele>
        <time>2020-09-05T10:08:25Z</time>
      </trkpt>
      <trkpt lat="43.287766" lon="-2.2955506">
        <ele>23893.0</ele>
        <time>2020-09-05T10:08:30Z</time>
      </trkpt>
      <trkpt lat="43.28772" lon="-2.2955177">
        <ele>23729.0</ele>
        <time>2020-09-05T10:08:36Z</time>
      </trkpt>
      <trkpt lat="43.287666" lon="-2.295487">
        <ele>23602.0</ele>
        <time>2020-09-05T10:08:42Z</time>
      </trkpt>
      <trkpt lat="43.287617" lon="-2.295459">
        <ele>23602.0</ele>
        <time>2020-09-05T10:08:46Z</time>
      </trkpt>
      <trkpt lat="43.287556" lon="-2.2954373">
        <ele>23602.0</ele>
        <time>2020-09-05T10:08:51Z</time>
      </trkpt>
      <trkpt lat="43.287502" lon="-2.295422">
        <ele>23229.0</ele>
        <time>2020-09-05T10:08:57Z</time>
      </trkpt>
      <trkpt lat="43.287445" lon="-2.295404">
        <ele>23093.0</ele>
        <time>2020-09-05T10:09:02Z</time>
      </trkpt>
      <trkpt lat="43.287384" lon="-2.2953696">
        <ele>22974.0</ele>
        <time>2020-09-05T10:09:07Z</time>
      </trkpt>
      <trkpt lat="43.28734" lon="-2.295355">
        <ele>22856.0</ele>
        <time>2020-09-05T10:09:12Z</time>
      </trkpt>
      <trkpt lat="43.287292" lon="-2.295325">
        <ele>22856.0</ele>
        <time>2020-09-05T10:09:21Z</time>
      </trkpt>
      <trkpt lat="43.287235" lon="-2.2952793">
        <ele>22738.0</ele>
        <time>2020-09-05T10:09:27Z</time>
      </trkpt>
      <trkpt lat="43.28718" lon="-2.2952337">
        <ele>22738.0</ele>
        <time>2020-09-05T10:09:32Z</time>
      </trkpt>
      <trkpt lat="43.287148" lon="-2.295189">
        <ele>22738.0</ele>
        <time>2020-09-05T10:09:36Z</time>
      </trkpt>
      <trkpt lat="43.2871" lon="-2.2951274">
        <ele>22738.0</ele>
        <time>2020-09-05T10:09:41Z</time>
      </trkpt>
      <trkpt lat="43.287067" lon="-2.2950692">
        <ele>22738.0</ele>
        <time>2020-09-05T10:09:45Z</time>
      </trkpt>
      <trkpt lat="43.287033" lon="-2.2950146">
        <ele>22738.0</ele>
        <time>2020-09-05T10:09:49Z</time>
      </trkpt>
      <trkpt lat="43.286987" lon="-2.2949576">
        <ele>22856.0</ele>
        <time>2020-09-05T10:09:54Z</time>
      </trkpt>
      <trkpt lat="43.28695" lon="-2.2949054">
        <ele>22984.0</ele>
        <time>2020-09-05T10:09:58Z</time>
      </trkpt>
      <trkpt lat="43.286907" lon="-2.2948663">
        <ele>22984.0</ele>
        <time>2020-09-05T10:10:02Z</time>
      </trkpt>
      <trkpt lat="43.286865" lon="-2.294818">
        <ele>22984.0</ele>
        <time>2020-09-05T10:10:06Z</time>
      </trkpt>
      <trkpt lat="43.28683" lon="-2.2947667">
        <ele>23102.0</ele>
        <time>2020-09-05T10:10:10Z</time>
      </trkpt>
      <trkpt lat="43.286793" lon="-2.2947044">
        <ele>23220.0</ele>
        <time>2020-09-05T10:10:15Z</time>
      </trkpt>
      <trkpt lat="43.286762" lon="-2.2946393">
        <ele>23220.0</ele>
        <time>2020-09-05T10:10:20Z</time>
      </trkpt>
      <trkpt lat="43.286716" lon="-2.294578">
        <ele>23220.0</ele>
        <time>2020-09-05T10:10:25Z</time>
      </trkpt>
      <trkpt lat="43.286682" lon="-2.2945132">
        <ele>23338.0</ele>
        <time>2020-09-05T10:10:30Z</time>
      </trkpt>
      <trkpt lat="43.28665" lon="-2.294455">
        <ele>23338.0</ele>
        <time>2020-09-05T10:10:34Z</time>
      </trkpt>
      <trkpt lat="43.286625" lon="-2.2944002">
        <ele>23338.0</ele>
        <time>2020-09-05T10:10:38Z</time>
      </trkpt>
      <trkpt lat="43.286583" lon="-2.2943273">
        <ele>23338.0</ele>
        <time>2020-09-05T10:10:43Z</time>
      </trkpt>
      <trkpt lat="43.28655" lon="-2.2942686">
        <ele>23338.0</ele>
        <time>2020-09-05T10:10:47Z</time>
      </trkpt>
      <trkpt lat="43.286514" lon="-2.2942073">
        <ele>23211.0</ele>
        <time>2020-09-05T10:10:51Z</time>
      </trkpt>
      <trkpt lat="43.286472" lon="-2.2941406">
        <ele>23211.0</ele>
        <time>2020-09-05T10:10:55Z</time>
      </trkpt>
      <trkpt lat="43.28644" lon="-2.294082">
        <ele>23093.0</ele>
        <time>2020-09-05T10:10:59Z</time>
      </trkpt>
      <trkpt lat="43.286415" lon="-2.2940254">
        <ele>22802.0</ele>
        <time>2020-09-05T10:11:03Z</time>
      </trkpt>
      <trkpt lat="43.286385" lon="-2.2939606">
        <ele>22474.0</ele>
        <time>2020-09-05T10:11:08Z</time>
      </trkpt>
      <trkpt lat="43.286354" lon="-2.2938907">
        <ele>22193.0</ele>
        <time>2020-09-05T10:11:13Z</time>
      </trkpt>
      <trkpt lat="43.286327" lon="-2.2938223">
        <ele>22193.0</ele>
        <time>2020-09-05T10:11:18Z</time>
      </trkpt>
      <trkpt lat="43.286304" lon="-2.2937567">
        <ele>22193.0</ele>
        <time>2020-09-05T10:11:22Z</time>
      </trkpt>
      <trkpt lat="43.28627" lon="-2.29368">
        <ele>22193.0</ele>
        <time>2020-09-05T10:11:27Z</time>
      </trkpt>
      <trkpt lat="43.28624" lon="-2.2936144">
        <ele>22074.0</ele>
        <time>2020-09-05T10:11:31Z</time>
      </trkpt>
      <trkpt lat="43.28621" lon="-2.2935526">
        <ele>22074.0</ele>
        <time>2020-09-05T10:11:35Z</time>
      </trkpt>
      <trkpt lat="43.286175" lon="-2.2935007">
        <ele>22074.0</ele>
        <time>2020-09-05T10:11:39Z</time>
      </trkpt>
      <trkpt lat="43.28614" lon="-2.2934504">
        <ele>22074.0</ele>
        <time>2020-09-05T10:11:43Z</time>
      </trkpt>
      <trkpt lat="43.286102" lon="-2.293391">
        <ele>21956.0</ele>
        <time>2020-09-05T10:11:48Z</time>
      </trkpt>
      <trkpt lat="43.286083" lon="-2.293313">
        <ele>21956.0</ele>
        <time>2020-09-05T10:11:53Z</time>
      </trkpt>
      <trkpt lat="43.286076" lon="-2.2932334">
        <ele>21956.0</ele>
        <time>2020-09-05T10:11:58Z</time>
      </trkpt>
      <trkpt lat="43.286087" lon="-2.293166">
        <ele>22074.0</ele>
        <time>2020-09-05T10:12:02Z</time>
      </trkpt>
      <trkpt lat="43.286095" lon="-2.29308">
        <ele>22220.0</ele>
        <time>2020-09-05T10:12:07Z</time>
      </trkpt>
      <trkpt lat="43.2861" lon="-2.2929893">
        <ele>22502.0</ele>
        <time>2020-09-05T10:12:12Z</time>
      </trkpt>
      <trkpt lat="43.286102" lon="-2.292914">
        <ele>22647.0</ele>
        <time>2020-09-05T10:12:16Z</time>
      </trkpt>
      <trkpt lat="43.286102" lon="-2.2928352">
        <ele>22884.0</ele>
        <time>2020-09-05T10:12:21Z</time>
      </trkpt>
      <trkpt lat="43.286114" lon="-2.2927463">
        <ele>23011.0</ele>
        <time>2020-09-05T10:12:26Z</time>
      </trkpt>
      <trkpt lat="43.28613" lon="-2.2926683">
        <ele>23302.0</ele>
        <time>2020-09-05T10:12:31Z</time>
      </trkpt>
      <trkpt lat="43.286163" lon="-2.2925944">
        <ele>23447.0</ele>
        <time>2020-09-05T10:12:36Z</time>
      </trkpt>
      <trkpt lat="43.286194" lon="-2.292533">
        <ele>23584.0</ele>
        <time>2020-09-05T10:12:40Z</time>
      </trkpt>
      <trkpt lat="43.28622" lon="-2.292476">
        <ele>23702.0</ele>
        <time>2020-09-05T10:12:45Z</time>
      </trkpt>
      <trkpt lat="43.28644" lon="-2.2920067">
        <ele>23456.0</ele>
        <time>2020-09-05T10:23:16Z</time>
      </trkpt>
      <trkpt lat="43.286465" lon="-2.2920077">
        <ele>23456.0</ele>
        <time>2020-09-05T10:23:21Z</time>
      </trkpt>
      <trkpt lat="43.286522" lon="-2.2919984">
        <ele>23129.0</ele>
        <time>2020-09-05T10:23:27Z</time>
      </trkpt>
      <trkpt lat="43.28658" lon="-2.2920017">
        <ele>22993.0</ele>
        <time>2020-09-05T10:23:32Z</time>
      </trkpt>
      <trkpt lat="43.28663" lon="-2.2919974">
        <ele>22874.0</ele>
        <time>2020-09-05T10:23:36Z</time>
      </trkpt>
      <trkpt lat="43.286682" lon="-2.2919862">
        <ele>22874.0</ele>
        <time>2020-09-05T10:23:43Z</time>
      </trkpt>
      <trkpt lat="43.28674" lon="-2.2919753">
        <ele>23011.0</ele>
        <time>2020-09-05T10:23:48Z</time>
      </trkpt>
      <trkpt lat="43.28679" lon="-2.291966">
        <ele>23274.0</ele>
        <time>2020-09-05T10:23:52Z</time>
      </trkpt>
      <trkpt lat="43.28684" lon="-2.2919526">
        <ele>23402.0</ele>
        <time>2020-09-05T10:23:56Z</time>
      </trkpt>
      <trkpt lat="43.28688" lon="-2.291909">
        <ele>23684.0</ele>
        <time>2020-09-05T10:24:01Z</time>
      </trkpt>
      <trkpt lat="43.286938" lon="-2.2918158">
        <ele>24084.0</ele>
        <time>2020-09-05T10:24:35Z</time>
      </trkpt>
      <trkpt lat="43.286972" lon="-2.2917516">
        <ele>24084.0</ele>
        <time>2020-09-05T10:24:42Z</time>
      </trkpt>
      <trkpt lat="43.286995" lon="-2.291686">
        <ele>24084.0</ele>
        <time>2020-09-05T10:24:48Z</time>
      </trkpt>
      <trkpt lat="43.287003" lon="-2.2916203">
        <ele>24084.0</ele>
        <time>2020-09-05T10:24:53Z</time>
      </trkpt>
      <trkpt lat="43.287018" lon="-2.2915483">
        <ele>24084.0</ele>
        <time>2020-09-05T10:24:59Z</time>
      </trkpt>
      <trkpt lat="43.287033" lon="-2.2914734">
        <ele>24084.0</ele>
        <time>2020-09-05T10:25:06Z</time>
      </trkpt>
      <trkpt lat="43.28705" lon="-2.2913992">
        <ele>24084.0</ele>
        <time>2020-09-05T10:25:13Z</time>
      </trkpt>
      <trkpt lat="43.28706" lon="-2.291331">
        <ele>24084.0</ele>
        <time>2020-09-05T10:25:19Z</time>
      </trkpt>
      <trkpt lat="43.287075" lon="-2.291261">
        <ele>24084.0</ele>
        <time>2020-09-05T10:25:25Z</time>
      </trkpt>
      <trkpt lat="43.287075" lon="-2.291178">
        <ele>24084.0</ele>
        <time>2020-09-05T10:25:31Z</time>
      </trkpt>
      <trkpt lat="43.287075" lon="-2.2911134">
        <ele>24084.0</ele>
        <time>2020-09-05T10:25:36Z</time>
      </trkpt>
      <trkpt lat="43.28707" lon="-2.291031">
        <ele>24084.0</ele>
        <time>2020-09-05T10:25:42Z</time>
      </trkpt>
      <trkpt lat="43.287075" lon="-2.290959">
        <ele>24084.0</ele>
        <time>2020-09-05T10:25:47Z</time>
      </trkpt>
      <trkpt lat="43.287083" lon="-2.2908902">
        <ele>23965.0</ele>
        <time>2020-09-05T10:25:51Z</time>
      </trkpt>
      <trkpt lat="43.287086" lon="-2.2908096">
        <ele>23847.0</ele>
        <time>2020-09-05T10:25:56Z</time>
      </trkpt>
      <trkpt lat="43.287098" lon="-2.290731">
        <ele>23711.0</ele>
        <time>2020-09-05T10:26:01Z</time>
      </trkpt>
      <trkpt lat="43.2871" lon="-2.290667">
        <ele>23593.0</ele>
        <time>2020-09-05T10:26:05Z</time>
      </trkpt>
      <trkpt lat="43.287117" lon="-2.290587">
        <ele>23456.0</ele>
        <time>2020-09-05T10:26:10Z</time>
      </trkpt>
      <trkpt lat="43.287132" lon="-2.2905104">
        <ele>23320.0</ele>
        <time>2020-09-05T10:26:15Z</time>
      </trkpt>
      <trkpt lat="43.28715" lon="-2.2904313">
        <ele>23202.0</ele>
        <time>2020-09-05T10:26:20Z</time>
      </trkpt>
      <trkpt lat="43.287167" lon="-2.2903636">
        <ele>23084.0</ele>
        <time>2020-09-05T10:26:25Z</time>
      </trkpt>
      <trkpt lat="43.28719" lon="-2.2902904">
        <ele>23084.0</ele>
        <time>2020-09-05T10:26:31Z</time>
      </trkpt>
      <trkpt lat="43.287212" lon="-2.29022">
        <ele>22965.0</ele>
        <time>2020-09-05T10:26:36Z</time>
      </trkpt>
      <trkpt lat="43.287224" lon="-2.2901466">
        <ele>22965.0</ele>
        <time>2020-09-05T10:26:41Z</time>
      </trkpt>
      <trkpt lat="43.28724" lon="-2.2900813">
        <ele>22965.0</ele>
        <time>2020-09-05T10:26:45Z</time>
      </trkpt>
      <trkpt lat="43.287266" lon="-2.2900133">
        <ele>22965.0</ele>
        <time>2020-09-05T10:26:50Z</time>
      </trkpt>
      <trkpt lat="43.287285" lon="-2.28995">
        <ele>22847.0</ele>
        <time>2020-09-05T10:26:54Z</time>
      </trkpt>
      <trkpt lat="43.287308" lon="-2.2898803">
        <ele>22847.0</ele>
        <time>2020-09-05T10:26:59Z</time>
      </trkpt>
      <trkpt lat="43.28734" lon="-2.2898088">
        <ele>22847.0</ele>
        <time>2020-09-05T10:27:04Z</time>
      </trkpt>
      <trkpt lat="43.28736" lon="-2.2897518">
        <ele>22847.0</ele>
        <time>2020-09-05T10:27:08Z</time>
      </trkpt>
      <trkpt lat="43.28739" lon="-2.2896953">
        <ele>22847.0</ele>
        <time>2020-09-05T10:27:13Z</time>
      </trkpt>
      <trkpt lat="43.287434" lon="-2.2896433">
        <ele>22847.0</ele>
        <time>2020-09-05T10:27:18Z</time>
      </trkpt>
      <trkpt lat="43.28748" lon="-2.2895916">
        <ele>22847.0</ele>
        <time>2020-09-05T10:27:23Z</time>
      </trkpt>
      <trkpt lat="43.287525" lon="-2.2895453">
        <ele>22847.0</ele>
        <time>2020-09-05T10:27:28Z</time>
      </trkpt>
      <trkpt lat="43.28757" lon="-2.289494">
        <ele>22847.0</ele>
        <time>2020-09-05T10:27:33Z</time>
      </trkpt>
      <trkpt lat="43.287613" lon="-2.2894597">
        <ele>22702.0</ele>
        <time>2020-09-05T10:27:37Z</time>
      </trkpt>
      <trkpt lat="43.28766" lon="-2.2894294">
        <ele>22702.0</ele>
        <time>2020-09-05T10:27:41Z</time>
      </trkpt>
      <trkpt lat="43.287704" lon="-2.2893887">
        <ele>22702.0</ele>
        <time>2020-09-05T10:27:47Z</time>
      </trkpt>
      <trkpt lat="43.287746" lon="-2.289355">
        <ele>22702.0</ele>
        <time>2020-09-05T10:27:54Z</time>
      </trkpt>
      <trkpt lat="43.287804" lon="-2.2893124">
        <ele>22856.0</ele>
        <time>2020-09-05T10:28:03Z</time>
      </trkpt>
      <trkpt lat="43.287865" lon="-2.2892537">
        <ele>23120.0</ele>
        <time>2020-09-05T10:28:10Z</time>
      </trkpt>
      <trkpt lat="43.28791" lon="-2.289204">
        <ele>23120.0</ele>
        <time>2020-09-05T10:28:14Z</time>
      </trkpt>
      <trkpt lat="43.287956" lon="-2.2891552">
        <ele>23384.0</ele>
        <time>2020-09-05T10:28:18Z</time>
      </trkpt>
      <trkpt lat="43.28799" lon="-2.2890975">
        <ele>23538.0</ele>
        <time>2020-09-05T10:28:22Z</time>
      </trkpt>
      <trkpt lat="43.288025" lon="-2.289035">
        <ele>23684.0</ele>
        <time>2020-09-05T10:28:26Z</time>
      </trkpt>
      <trkpt lat="43.288048" lon="-2.288976">
        <ele>23820.0</ele>
        <time>2020-09-05T10:28:30Z</time>
      </trkpt>
      <trkpt lat="43.288074" lon="-2.288903">
        <ele>24074.0</ele>
        <time>2020-09-05T10:28:35Z</time>
      </trkpt>
      <trkpt lat="43.2881" lon="-2.2888346">
        <ele>24202.0</ele>
        <time>2020-09-05T10:28:39Z</time>
      </trkpt>
      <trkpt lat="43.288124" lon="-2.2887654">
        <ele>24338.0</ele>
        <time>2020-09-05T10:28:43Z</time>
      </trkpt>
      <trkpt lat="43.28815" lon="-2.2886922">
        <ele>24484.0</ele>
        <time>2020-09-05T10:28:47Z</time>
      </trkpt>
      <trkpt lat="43.28817" lon="-2.2886264">
        <ele>24629.0</ele>
        <time>2020-09-05T10:28:51Z</time>
      </trkpt>
      <trkpt lat="43.288197" lon="-2.2885695">
        <ele>24765.0</ele>
        <time>2020-09-05T10:28:55Z</time>
      </trkpt>
      <trkpt lat="43.288227" lon="-2.2884886">
        <ele>24884.0</ele>
        <time>2020-09-05T10:29:00Z</time>
      </trkpt>
      <trkpt lat="43.28825" lon="-2.2884204">
        <ele>25038.0</ele>
        <time>2020-09-05T10:29:04Z</time>
      </trkpt>
      <trkpt lat="43.28828" lon="-2.28836">
        <ele>25184.0</ele>
        <time>2020-09-05T10:29:08Z</time>
      </trkpt>
      <trkpt lat="43.288315" lon="-2.2883017">
        <ele>25311.0</ele>
        <time>2020-09-05T10:29:13Z</time>
      </trkpt>
      <trkpt lat="43.288357" lon="-2.2882433">
        <ele>25438.0</ele>
        <time>2020-09-05T10:29:18Z</time>
      </trkpt>
      <trkpt lat="43.288387" lon="-2.2881622">
        <ele>25574.0</ele>
        <time>2020-09-05T10:29:23Z</time>
      </trkpt>
      <trkpt lat="43.288406" lon="-2.2880876">
        <ele>25702.0</ele>
        <time>2020-09-05T10:29:27Z</time>
      </trkpt>
      <trkpt lat="43.28842" lon="-2.2880197">
        <ele>25702.0</ele>
        <time>2020-09-05T10:29:31Z</time>
      </trkpt>
      <trkpt lat="43.288445" lon="-2.2879403">
        <ele>25956.0</ele>
        <time>2020-09-05T10:29:36Z</time>
      </trkpt>
      <trkpt lat="43.28846" lon="-2.28788">
        <ele>25956.0</ele>
        <time>2020-09-05T10:29:40Z</time>
      </trkpt>
      <trkpt lat="43.288475" lon="-2.2877996">
        <ele>26220.0</ele>
        <time>2020-09-05T10:29:45Z</time>
      </trkpt>
      <trkpt lat="43.28849" lon="-2.2877254">
        <ele>26347.0</ele>
        <time>2020-09-05T10:29:50Z</time>
      </trkpt>
      <trkpt lat="43.288506" lon="-2.2876468">
        <ele>26465.0</ele>
        <time>2020-09-05T10:29:55Z</time>
      </trkpt>
      <trkpt lat="43.28852" lon="-2.2875834">
        <ele>26611.0</ele>
        <time>2020-09-05T10:29:59Z</time>
      </trkpt>
      <trkpt lat="43.28854" lon="-2.287505">
        <ele>26611.0</ele>
        <time>2020-09-05T10:30:04Z</time>
      </trkpt>
      <trkpt lat="43.288555" lon="-2.2874408">
        <ele>26747.0</ele>
        <time>2020-09-05T10:30:08Z</time>
      </trkpt>
      <trkpt lat="43.288574" lon="-2.287363">
        <ele>26884.0</ele>
        <time>2020-09-05T10:30:13Z</time>
      </trkpt>
      <trkpt lat="43.28859" lon="-2.2872953">
        <ele>27002.0</ele>
        <time>2020-09-05T10:30:17Z</time>
      </trkpt>
      <trkpt lat="43.2886" lon="-2.2872236">
        <ele>27147.0</ele>
        <time>2020-09-05T10:30:21Z</time>
      </trkpt>
      <trkpt lat="43.288612" lon="-2.2871594">
        <ele>27147.0</ele>
        <time>2020-09-05T10:30:25Z</time>
      </trkpt>
      <trkpt lat="43.288624" lon="-2.2870817">
        <ele>27284.0</ele>
        <time>2020-09-05T10:30:30Z</time>
      </trkpt>
      <trkpt lat="43.28864" lon="-2.2870138">
        <ele>27411.0</ele>
        <time>2020-09-05T10:30:34Z</time>
      </trkpt>
      <trkpt lat="43.28863" lon="-2.2869313">
        <ele>27647.0</ele>
        <time>2020-09-05T10:30:39Z</time>
      </trkpt>
      <trkpt lat="43.288624" lon="-2.2868583">
        <ele>27784.0</ele>
        <time>2020-09-05T10:30:43Z</time>
      </trkpt>
      <trkpt lat="43.288616" lon="-2.2867866">
        <ele>27920.0</ele>
        <time>2020-09-05T10:30:48Z</time>
      </trkpt>
      <trkpt lat="43.28861" lon="-2.286708">
        <ele>27920.0</ele>
        <time>2020-09-05T10:30:54Z</time>
      </trkpt>
      <trkpt lat="43.288586" lon="-2.2866344">
        <ele>27920.0</ele>
        <time>2020-09-05T10:31:00Z</time>
      </trkpt>
      <trkpt lat="43.28856" lon="-2.286567">
        <ele>27920.0</ele>
        <time>2020-09-05T10:31:04Z</time>
      </trkpt>
      <trkpt lat="43.28853" lon="-2.2865233">
        <ele>27920.0</ele>
        <time>2020-09-05T10:31:08Z</time>
      </trkpt>
      <trkpt lat="43.28851" lon="-2.286451">
        <ele>27920.0</ele>
        <time>2020-09-05T10:31:13Z</time>
      </trkpt>
      <trkpt lat="43.28849" lon="-2.2863853">
        <ele>27920.0</ele>
        <time>2020-09-05T10:31:18Z</time>
      </trkpt>
      <trkpt lat="43.288483" lon="-2.2863297">
        <ele>27920.0</ele>
        <time>2020-09-05T10:42:52Z</time>
      </trkpt>
      <trkpt lat="43.28849" lon="-2.2862554">
        <ele>27920.0</ele>
        <time>2020-09-05T10:42:58Z</time>
      </trkpt>
      <trkpt lat="43.288483" lon="-2.2861958">
        <ele>24793.0</ele>
        <time>2020-09-05T10:43:05Z</time>
      </trkpt>
      <trkpt lat="43.288475" lon="-2.286123">
        <ele>24793.0</ele>
        <time>2020-09-05T10:43:13Z</time>
      </trkpt>
      <trkpt lat="43.288475" lon="-2.2861648">
        <ele>24911.0</ele>
        <time>2020-09-05T10:45:05Z</time>
      </trkpt>
      <trkpt lat="43.288498" lon="-2.2862253">
        <ele>24911.0</ele>
        <time>2020-09-05T10:45:11Z</time>
      </trkpt>
      <trkpt lat="43.288544" lon="-2.286249">
        <ele>26265.0</ele>
        <time>2020-09-05T10:45:18Z</time>
      </trkpt>
      <trkpt lat="43.288597" lon="-2.28622">
        <ele>26529.0</ele>
        <time>2020-09-05T10:45:47Z</time>
      </trkpt>
      <trkpt lat="43.288643" lon="-2.2861946">
        <ele>27956.0</ele>
        <time>2020-09-05T10:46:06Z</time>
      </trkpt>
      <trkpt lat="43.288677" lon="-2.2861297">
        <ele>28384.0</ele>
        <time>2020-09-05T10:46:12Z</time>
      </trkpt>
      <trkpt lat="43.288708" lon="-2.2860844">
        <ele>28538.0</ele>
        <time>2020-09-05T10:46:17Z</time>
      </trkpt>
      <trkpt lat="43.28876" lon="-2.2860467">
        <ele>28811.0</ele>
        <time>2020-09-05T10:46:23Z</time>
      </trkpt>
      <trkpt lat="43.288803" lon="-2.2860017">
        <ele>29084.0</ele>
        <time>2020-09-05T10:46:28Z</time>
      </trkpt>
      <trkpt lat="43.28884" lon="-2.2859373">
        <ele>29329.0</ele>
        <time>2020-09-05T10:46:34Z</time>
      </trkpt>
      <trkpt lat="43.288868" lon="-2.285889">
        <ele>29447.0</ele>
        <time>2020-09-05T10:46:39Z</time>
      </trkpt>
      <trkpt lat="43.2889" lon="-2.285828">
        <ele>29729.0</ele>
        <time>2020-09-05T10:46:45Z</time>
      </trkpt>
      <trkpt lat="43.28894" lon="-2.285768">
        <ele>29865.0</ele>
        <time>2020-09-05T10:46:51Z</time>
      </trkpt>
      <trkpt lat="43.288975" lon="-2.285721">
        <ele>29993.0</ele>
        <time>2020-09-05T10:46:55Z</time>
      </trkpt>
      <trkpt lat="43.28903" lon="-2.285678">
        <ele>30120.0</ele>
        <time>2020-09-05T10:47:00Z</time>
      </trkpt>
      <trkpt lat="43.289066" lon="-2.2856364">
        <ele>30238.0</ele>
        <time>2020-09-05T10:47:05Z</time>
      </trkpt>
      <trkpt lat="43.28911" lon="-2.28558">
        <ele>30356.0</ele>
        <time>2020-09-05T10:47:10Z</time>
      </trkpt>
      <trkpt lat="43.28914" lon="-2.2855344">
        <ele>30493.0</ele>
        <time>2020-09-05T10:47:14Z</time>
      </trkpt>
      <trkpt lat="43.289185" lon="-2.2854874">
        <ele>30629.0</ele>
        <time>2020-09-05T10:47:19Z</time>
      </trkpt>
      <trkpt lat="43.28923" lon="-2.2854314">
        <ele>30884.0</ele>
        <time>2020-09-05T10:47:24Z</time>
      </trkpt>
      <trkpt lat="43.289276" lon="-2.285369">
        <ele>31002.0</ele>
        <time>2020-09-05T10:47:29Z</time>
      </trkpt>
      <trkpt lat="43.289303" lon="-2.2853034">
        <ele>31120.0</ele>
        <time>2020-09-05T10:47:34Z</time>
      </trkpt>
      <trkpt lat="43.289337" lon="-2.285248">
        <ele>31256.0</ele>
        <time>2020-09-05T10:47:39Z</time>
      </trkpt>
      <trkpt lat="43.289387" lon="-2.2851944">
        <ele>31384.0</ele>
        <time>2020-09-05T10:47:44Z</time>
      </trkpt>
      <trkpt lat="43.289433" lon="-2.2851486">
        <ele>31520.0</ele>
        <time>2020-09-05T10:47:49Z</time>
      </trkpt>
      <trkpt lat="43.28947" lon="-2.285106">
        <ele>31520.0</ele>
        <time>2020-09-05T10:47:53Z</time>
      </trkpt>
      <trkpt lat="43.289516" lon="-2.285051">
        <ele>31656.0</ele>
        <time>2020-09-05T10:47:58Z</time>
      </trkpt>
      <trkpt lat="43.289566" lon="-2.284999">
        <ele>31793.0</ele>
        <time>2020-09-05T10:48:03Z</time>
      </trkpt>
      <trkpt lat="43.289616" lon="-2.284948">
        <ele>31920.0</ele>
        <time>2020-09-05T10:48:08Z</time>
      </trkpt>
      <trkpt lat="43.289658" lon="-2.2848947">
        <ele>32056.0</ele>
        <time>2020-09-05T10:48:13Z</time>
      </trkpt>
      <trkpt lat="43.289703" lon="-2.2848444">
        <ele>32174.0</ele>
        <time>2020-09-05T10:48:18Z</time>
      </trkpt>
      <trkpt lat="43.28975" lon="-2.2847912">
        <ele>32293.0</ele>
        <time>2020-09-05T10:48:24Z</time>
      </trkpt>
      <trkpt lat="43.289795" lon="-2.284745">
        <ele>32420.0</ele>
        <time>2020-09-05T10:48:29Z</time>
      </trkpt>
      <trkpt lat="43.289852" lon="-2.2846828">
        <ele>32420.0</ele>
        <time>2020-09-05T10:48:34Z</time>
      </trkpt>
      <trkpt lat="43.28989" lon="-2.2846303">
        <ele>32284.0</ele>
        <time>2020-09-05T10:48:38Z</time>
      </trkpt>
      <trkpt lat="43.28993" lon="-2.284585">
        <ele>32129.0</ele>
        <time>2020-09-05T10:48:42Z</time>
      </trkpt>
      <trkpt lat="43.28997" lon="-2.284528">
        <ele>32011.0</ele>
        <time>2020-09-05T10:48:47Z</time>
      </trkpt>
      <trkpt lat="43.29" lon="-2.2844803">
        <ele>32011.0</ele>
        <time>2020-09-05T10:48:51Z</time>
      </trkpt>
      <trkpt lat="43.29003" lon="-2.284413">
        <ele>32138.0</ele>
        <time>2020-09-05T10:48:56Z</time>
      </trkpt>
      <trkpt lat="43.290054" lon="-2.2843544">
        <ele>32256.0</ele>
        <time>2020-09-05T10:49:00Z</time>
      </trkpt>
      <trkpt lat="43.290096" lon="-2.2842507">
        <ele>32374.0</ele>
        <time>2020-09-05T10:49:03Z</time>
      </trkpt>
      <trkpt lat="43.29011" lon="-2.2841694">
        <ele>32493.0</ele>
        <time>2020-09-05T10:49:10Z</time>
      </trkpt>
      <trkpt lat="43.290123" lon="-2.2841008">
        <ele>32493.0</ele>
        <time>2020-09-05T10:49:15Z</time>
      </trkpt>
      <trkpt lat="43.29015" lon="-2.284034">
        <ele>32620.0</ele>
        <time>2020-09-05T10:49:20Z</time>
      </trkpt>
      <trkpt lat="43.29017" lon="-2.283969">
        <ele>32902.0</ele>
        <time>2020-09-05T10:49:25Z</time>
      </trkpt>
      <trkpt lat="43.290215" lon="-2.283909">
        <ele>33047.0</ele>
        <time>2020-09-05T10:49:30Z</time>
      </trkpt>
      <trkpt lat="43.29026" lon="-2.2838588">
        <ele>33184.0</ele>
        <time>2020-09-05T10:49:35Z</time>
      </trkpt>
      <trkpt lat="43.290302" lon="-2.2838087">
        <ele>33302.0</ele>
        <time>2020-09-05T10:49:40Z</time>
      </trkpt>
      <trkpt lat="43.290344" lon="-2.2837553">
        <ele>33565.0</ele>
        <time>2020-09-05T10:49:45Z</time>
      </trkpt>
      <trkpt lat="43.29038" lon="-2.2836952">
        <ele>33702.0</ele>
        <time>2020-09-05T10:49:50Z</time>
      </trkpt>
      <trkpt lat="43.29042" lon="-2.283643">
        <ele>33702.0</ele>
        <time>2020-09-05T10:49:55Z</time>
      </trkpt>
      <trkpt lat="43.290474" lon="-2.283591">
        <ele>33829.0</ele>
        <time>2020-09-05T10:50:00Z</time>
      </trkpt>
      <trkpt lat="43.29052" lon="-2.2835326">
        <ele>33956.0</ele>
        <time>2020-09-05T10:50:08Z</time>
      </trkpt>
      <trkpt lat="43.290558" lon="-2.2834713">
        <ele>33956.0</ele>
        <time>2020-09-05T10:50:13Z</time>
      </trkpt>
      <trkpt lat="43.29059" lon="-2.2834134">
        <ele>33956.0</ele>
        <time>2020-09-05T10:50:18Z</time>
      </trkpt>
      <trkpt lat="43.290623" lon="-2.2833576">
        <ele>33956.0</ele>
        <time>2020-09-05T10:50:23Z</time>
      </trkpt>
      <trkpt lat="43.290653" lon="-2.283302">
        <ele>34093.0</ele>
        <time>2020-09-05T10:50:28Z</time>
      </trkpt>
      <trkpt lat="43.29069" lon="-2.2832496">
        <ele>34093.0</ele>
        <time>2020-09-05T10:50:33Z</time>
      </trkpt>
      <trkpt lat="43.290733" lon="-2.283197">
        <ele>34220.0</ele>
        <time>2020-09-05T10:50:38Z</time>
      </trkpt>
      <trkpt lat="43.290764" lon="-2.2831323">
        <ele>34220.0</ele>
        <time>2020-09-05T10:50:43Z</time>
      </trkpt>
      <trkpt lat="43.290794" lon="-2.283065">
        <ele>34347.0</ele>
        <time>2020-09-05T10:50:48Z</time>
      </trkpt>
      <trkpt lat="43.290825" lon="-2.2829957">
        <ele>34347.0</ele>
        <time>2020-09-05T10:50:53Z</time>
      </trkpt>
      <trkpt lat="43.290848" lon="-2.2829323">
        <ele>34465.0</ele>
        <time>2020-09-05T10:50:58Z</time>
      </trkpt>
      <trkpt lat="43.29088" lon="-2.2828717">
        <ele>34465.0</ele>
        <time>2020-09-05T10:51:03Z</time>
      </trkpt>
      <trkpt lat="43.29091" lon="-2.282806">
        <ele>34465.0</ele>
        <time>2020-09-05T10:51:08Z</time>
      </trkpt>
      <trkpt lat="43.29093" lon="-2.2827523">
        <ele>34465.0</ele>
        <time>2020-09-05T10:51:12Z</time>
      </trkpt>
      <trkpt lat="43.29096" lon="-2.2826803">
        <ele>34584.0</ele>
        <time>2020-09-05T10:51:17Z</time>
      </trkpt>
      <trkpt lat="43.290977" lon="-2.2826037">
        <ele>34584.0</ele>
        <time>2020-09-05T10:51:22Z</time>
      </trkpt>
      <trkpt lat="43.29099" lon="-2.2825253">
        <ele>34702.0</ele>
        <time>2020-09-05T10:51:27Z</time>
      </trkpt>
      <trkpt lat="43.29099" lon="-2.2824533">
        <ele>34702.0</ele>
        <time>2020-09-05T10:51:32Z</time>
      </trkpt>
      <trkpt lat="43.290993" lon="-2.2823563">
        <ele>34702.0</ele>
        <time>2020-09-05T10:51:38Z</time>
      </trkpt>
      <trkpt lat="43.290974" lon="-2.282284">
        <ele>34820.0</ele>
        <time>2020-09-05T10:51:43Z</time>
      </trkpt>
      <trkpt lat="43.290943" lon="-2.28223">
        <ele>34820.0</ele>
        <time>2020-09-05T10:51:48Z</time>
      </trkpt>
      <trkpt lat="43.290894" lon="-2.2821724">
        <ele>34820.0</ele>
        <time>2020-09-05T10:51:54Z</time>
      </trkpt>
      <trkpt lat="43.290863" lon="-2.2821233">
        <ele>34820.0</ele>
        <time>2020-09-05T10:52:00Z</time>
      </trkpt>
      <trkpt lat="43.290817" lon="-2.2820666">
        <ele>34820.0</ele>
        <time>2020-09-05T10:52:06Z</time>
      </trkpt>
      <trkpt lat="43.290783" lon="-2.2820306">
        <ele>34693.0</ele>
        <time>2020-09-05T10:52:11Z</time>
      </trkpt>
      <trkpt lat="43.290737" lon="-2.2819893">
        <ele>34693.0</ele>
        <time>2020-09-05T10:52:18Z</time>
      </trkpt>
      <trkpt lat="43.290684" lon="-2.2819376">
        <ele>34574.0</ele>
        <time>2020-09-05T10:52:24Z</time>
      </trkpt>
      <trkpt lat="43.29065" lon="-2.2819033">
        <ele>34456.0</ele>
        <time>2020-09-05T10:52:28Z</time>
      </trkpt>
      <trkpt lat="43.2906" lon="-2.2818613">
        <ele>34456.0</ele>
        <time>2020-09-05T10:52:34Z</time>
      </trkpt>
      <trkpt lat="43.290554" lon="-2.2818186">
        <ele>34338.0</ele>
        <time>2020-09-05T10:52:39Z</time>
      </trkpt>
      <trkpt lat="43.290504" lon="-2.281796">
        <ele>34338.0</ele>
        <time>2020-09-05T10:52:44Z</time>
      </trkpt>
      <trkpt lat="43.29045" lon="-2.2817636">
        <ele>34220.0</ele>
        <time>2020-09-05T10:52:50Z</time>
      </trkpt>
      <trkpt lat="43.29039" lon="-2.2817316">
        <ele>34102.0</ele>
        <time>2020-09-05T10:52:56Z</time>
      </trkpt>
      <trkpt lat="43.290344" lon="-2.281704">
        <ele>34102.0</ele>
        <time>2020-09-05T10:53:01Z</time>
      </trkpt>
      <trkpt lat="43.29029" lon="-2.2816687">
        <ele>34102.0</ele>
        <time>2020-09-05T10:53:06Z</time>
      </trkpt>
      <trkpt lat="43.290245" lon="-2.2816458">
        <ele>33984.0</ele>
        <time>2020-09-05T10:53:11Z</time>
      </trkpt>
      <trkpt lat="43.290184" lon="-2.2816308">
        <ele>33865.0</ele>
        <time>2020-09-05T10:53:17Z</time>
      </trkpt>
      <trkpt lat="43.29013" lon="-2.2816126">
        <ele>33865.0</ele>
        <time>2020-09-05T10:53:22Z</time>
      </trkpt>
      <trkpt lat="43.290077" lon="-2.2816036">
        <ele>33865.0</ele>
        <time>2020-09-05T10:53:27Z</time>
      </trkpt>
      <trkpt lat="43.29002" lon="-2.2816057">
        <ele>33747.0</ele>
        <time>2020-09-05T10:53:32Z</time>
      </trkpt>
      <trkpt lat="43.28997" lon="-2.281625">
        <ele>33611.0</ele>
        <time>2020-09-05T10:53:37Z</time>
      </trkpt>
      <trkpt lat="43.289917" lon="-2.281642">
        <ele>33611.0</ele>
        <time>2020-09-05T10:53:42Z</time>
      </trkpt>
      <trkpt lat="43.289867" lon="-2.2816634">
        <ele>33474.0</ele>
        <time>2020-09-05T10:53:47Z</time>
      </trkpt>
      <trkpt lat="43.289814" lon="-2.281669">
        <ele>33029.0</ele>
        <time>2020-09-05T10:53:52Z</time>
      </trkpt>
      <trkpt lat="43.289764" lon="-2.2816508">
        <ele>32784.0</ele>
        <time>2020-09-05T10:53:57Z</time>
      </trkpt>
      <trkpt lat="43.289707" lon="-2.2816234">
        <ele>32647.0</ele>
        <time>2020-09-05T10:54:02Z</time>
      </trkpt>
      <trkpt lat="43.28966" lon="-2.2815976">
        <ele>32647.0</ele>
        <time>2020-09-05T10:54:07Z</time>
      </trkpt>
      <trkpt lat="43.289616" lon="-2.281571">
        <ele>32647.0</ele>
        <time>2020-09-05T10:54:12Z</time>
      </trkpt>
      <trkpt lat="43.289566" lon="-2.281551">
        <ele>32647.0</ele>
        <time>2020-09-05T10:54:18Z</time>
      </trkpt>
      <trkpt lat="43.28951" lon="-2.2815213">
        <ele>32647.0</ele>
        <time>2020-09-05T10:54:24Z</time>
      </trkpt>
      <trkpt lat="43.289463" lon="-2.281498">
        <ele>32647.0</ele>
        <time>2020-09-05T10:54:29Z</time>
      </trkpt>
      <trkpt lat="43.289406" lon="-2.2814717">
        <ele>32647.0</ele>
        <time>2020-09-05T10:54:34Z</time>
      </trkpt>
      <trkpt lat="43.289352" lon="-2.281437">
        <ele>32647.0</ele>
        <time>2020-09-05T10:54:39Z</time>
      </trkpt>
      <trkpt lat="43.289307" lon="-2.2814026">
        <ele>32647.0</ele>
        <time>2020-09-05T10:54:44Z</time>
      </trkpt>
      <trkpt lat="43.28927" lon="-2.281353">
        <ele>32647.0</ele>
        <time>2020-09-05T10:54:50Z</time>
      </trkpt>
      <trkpt lat="43.289238" lon="-2.2812896">
        <ele>32647.0</ele>
        <time>2020-09-05T10:54:56Z</time>
      </trkpt>
      <trkpt lat="43.289207" lon="-2.281233">
        <ele>32647.0</ele>
        <time>2020-09-05T10:55:01Z</time>
      </trkpt>
      <trkpt lat="43.28917" lon="-2.2811806">
        <ele>32765.0</ele>
        <time>2020-09-05T10:55:06Z</time>
      </trkpt>
      <trkpt lat="43.289127" lon="-2.28113">
        <ele>32765.0</ele>
        <time>2020-09-05T10:55:11Z</time>
      </trkpt>
      <trkpt lat="43.28908" lon="-2.2810757">
        <ele>32884.0</ele>
        <time>2020-09-05T10:55:18Z</time>
      </trkpt>
      <trkpt lat="43.289036" lon="-2.2810297">
        <ele>32884.0</ele>
        <time>2020-09-05T10:55:24Z</time>
      </trkpt>
      <trkpt lat="43.288986" lon="-2.280987">
        <ele>32884.0</ele>
        <time>2020-09-05T10:55:30Z</time>
      </trkpt>
      <trkpt lat="43.288933" lon="-2.2809527">
        <ele>32884.0</ele>
        <time>2020-09-05T10:55:36Z</time>
      </trkpt>
      <trkpt lat="43.288883" lon="-2.2809243">
        <ele>32884.0</ele>
        <time>2020-09-05T10:55:42Z</time>
      </trkpt>
      <trkpt lat="43.288837" lon="-2.2808967">
        <ele>32884.0</ele>
        <time>2020-09-05T10:55:47Z</time>
      </trkpt>
      <trkpt lat="43.28879" lon="-2.2808592">
        <ele>32620.0</ele>
        <time>2020-09-05T10:55:53Z</time>
      </trkpt>
      <trkpt lat="43.28875" lon="-2.2808104">
        <ele>32493.0</ele>
        <time>2020-09-05T10:55:58Z</time>
      </trkpt>
      <trkpt lat="43.288704" lon="-2.2807686">
        <ele>32356.0</ele>
        <time>2020-09-05T10:56:03Z</time>
      </trkpt>
      <trkpt lat="43.288662" lon="-2.2807264">
        <ele>32229.0</ele>
        <time>2020-09-05T10:56:08Z</time>
      </trkpt>
      <trkpt lat="43.288624" lon="-2.280675">
        <ele>31829.0</ele>
        <time>2020-09-05T10:56:15Z</time>
      </trkpt>
      <trkpt lat="43.28858" lon="-2.2806253">
        <ele>31556.0</ele>
        <time>2020-09-05T10:56:20Z</time>
      </trkpt>
      <trkpt lat="43.28854" lon="-2.28058">
        <ele>31056.0</ele>
        <time>2020-09-05T10:56:26Z</time>
      </trkpt>
      <trkpt lat="43.288494" lon="-2.280537">
        <ele>30556.0</ele>
        <time>2020-09-05T10:56:32Z</time>
      </trkpt>
      <trkpt lat="43.288452" lon="-2.2804873">
        <ele>29993.0</ele>
        <time>2020-09-05T10:56:37Z</time>
      </trkpt>
      <trkpt lat="43.288414" lon="-2.280435">
        <ele>29638.0</ele>
        <time>2020-09-05T10:56:42Z</time>
      </trkpt>
      <trkpt lat="43.288372" lon="-2.280389">
        <ele>29193.0</ele>
        <time>2020-09-05T10:56:47Z</time>
      </trkpt>
      <trkpt lat="43.28832" lon="-2.2803407">
        <ele>28774.0</ele>
        <time>2020-09-05T10:56:54Z</time>
      </trkpt>
      <trkpt lat="43.288284" lon="-2.2803156">
        <ele>28374.0</ele>
        <time>2020-09-05T10:57:00Z</time>
      </trkpt>
      <trkpt lat="43.28825" lon="-2.2802594">
        <ele>27647.0</ele>
        <time>2020-09-05T10:57:17Z</time>
      </trkpt>
      <trkpt lat="43.2882" lon="-2.280212">
        <ele>27247.0</ele>
        <time>2020-09-05T10:57:28Z</time>
      </trkpt>
      <trkpt lat="43.288155" lon="-2.280158">
        <ele>27120.0</ele>
        <time>2020-09-05T10:57:33Z</time>
      </trkpt>
      <trkpt lat="43.288116" lon="-2.2801085">
        <ele>27120.0</ele>
        <time>2020-09-05T10:57:38Z</time>
      </trkpt>
      <trkpt lat="43.288086" lon="-2.280061">
        <ele>26984.0</ele>
        <time>2020-09-05T10:57:44Z</time>
      </trkpt>
      <trkpt lat="43.288044" lon="-2.2799954">
        <ele>26984.0</ele>
        <time>2020-09-05T10:57:51Z</time>
      </trkpt>
      <trkpt lat="43.288006" lon="-2.2799487">
        <ele>26984.0</ele>
        <time>2020-09-05T10:57:55Z</time>
      </trkpt>
      <trkpt lat="43.287956" lon="-2.2798884">
        <ele>26865.0</ele>
        <time>2020-09-05T10:58:01Z</time>
      </trkpt>
      <trkpt lat="43.28791" lon="-2.279827">
        <ele>26865.0</ele>
        <time>2020-09-05T10:58:06Z</time>
      </trkpt>
      <trkpt lat="43.287865" lon="-2.2797732">
        <ele>26865.0</ele>
        <time>2020-09-05T10:58:11Z</time>
      </trkpt>
      <trkpt lat="43.287823" lon="-2.279718">
        <ele>26865.0</ele>
        <time>2020-09-05T10:58:16Z</time>
      </trkpt>
      <trkpt lat="43.28778" lon="-2.279671">
        <ele>26865.0</ele>
        <time>2020-09-05T10:58:20Z</time>
      </trkpt>
      <trkpt lat="43.287746" lon="-2.279622">
        <ele>26865.0</ele>
        <time>2020-09-05T10:58:25Z</time>
      </trkpt>
      <trkpt lat="43.287704" lon="-2.2795684">
        <ele>27002.0</ele>
        <time>2020-09-05T10:58:31Z</time>
      </trkpt>
      <trkpt lat="43.287666" lon="-2.2795246">
        <ele>27002.0</ele>
        <time>2020-09-05T10:58:35Z</time>
      </trkpt>
      <trkpt lat="43.287617" lon="-2.2794714">
        <ele>27002.0</ele>
        <time>2020-09-05T10:58:40Z</time>
      </trkpt>
      <trkpt lat="43.287586" lon="-2.279428">
        <ele>27002.0</ele>
        <time>2020-09-05T10:58:44Z</time>
      </trkpt>
      <trkpt lat="43.28754" lon="-2.2793727">
        <ele>27120.0</ele>
        <time>2020-09-05T10:58:49Z</time>
      </trkpt>
      <trkpt lat="43.287502" lon="-2.2793226">
        <ele>27120.0</ele>
        <time>2020-09-05T10:58:53Z</time>
      </trkpt>
      <trkpt lat="43.28746" lon="-2.279266">
        <ele>27120.0</ele>
        <time>2020-09-05T10:58:58Z</time>
      </trkpt>
      <trkpt lat="43.287422" lon="-2.279213">
        <ele>27120.0</ele>
        <time>2020-09-05T10:59:02Z</time>
      </trkpt>
      <trkpt lat="43.2874" lon="-2.2791593">
        <ele>27120.0</ele>
        <time>2020-09-05T10:59:06Z</time>
      </trkpt>
      <trkpt lat="43.28737" lon="-2.2791014">
        <ele>27120.0</ele>
        <time>2020-09-05T10:59:11Z</time>
      </trkpt>
      <trkpt lat="43.28734" lon="-2.279025">
        <ele>26993.0</ele>
        <time>2020-09-05T10:59:17Z</time>
      </trkpt>
      <trkpt lat="43.287323" lon="-2.2789693">
        <ele>26993.0</ele>
        <time>2020-09-05T10:59:21Z</time>
      </trkpt>
      <trkpt lat="43.2873" lon="-2.2788854">
        <ele>26865.0</ele>
        <time>2020-09-05T10:59:27Z</time>
      </trkpt>
      <trkpt lat="43.287285" lon="-2.2788048">
        <ele>26865.0</ele>
        <time>2020-09-05T10:59:32Z</time>
      </trkpt>
      <trkpt lat="43.287277" lon="-2.2787273">
        <ele>26865.0</ele>
        <time>2020-09-05T10:59:39Z</time>
      </trkpt>
      <trkpt lat="43.287285" lon="-2.278654">
        <ele>26865.0</ele>
        <time>2020-09-05T10:59:44Z</time>
      </trkpt>
      <trkpt lat="43.287292" lon="-2.278576">
        <ele>26865.0</ele>
        <time>2020-09-05T10:59:49Z</time>
      </trkpt>
      <trkpt lat="43.287292" lon="-2.278504">
        <ele>26865.0</ele>
        <time>2020-09-05T10:59:53Z</time>
      </trkpt>
      <trkpt lat="43.28731" lon="-2.2784274">
        <ele>26865.0</ele>
        <time>2020-09-05T10:59:58Z</time>
      </trkpt>
      <trkpt lat="43.28734" lon="-2.2783556">
        <ele>26865.0</ele>
        <time>2020-09-05T11:00:04Z</time>
      </trkpt>
      <trkpt lat="43.287354" lon="-2.2782867">
        <ele>26865.0</ele>
        <time>2020-09-05T11:00:09Z</time>
      </trkpt>
      <trkpt lat="43.287354" lon="-2.2782073">
        <ele>26984.0</ele>
        <time>2020-09-05T11:00:15Z</time>
      </trkpt>
      <trkpt lat="43.28736" lon="-2.2781477">
        <ele>26984.0</ele>
        <time>2020-09-05T11:00:19Z</time>
      </trkpt>
      <trkpt lat="43.287376" lon="-2.2780657">
        <ele>27111.0</ele>
        <time>2020-09-05T11:00:25Z</time>
      </trkpt>
      <trkpt lat="43.28739" lon="-2.278">
        <ele>27229.0</ele>
        <time>2020-09-05T11:00:30Z</time>
      </trkpt>
      <trkpt lat="43.287415" lon="-2.277922">
        <ele>27347.0</ele>
        <time>2020-09-05T11:00:36Z</time>
      </trkpt>
      <trkpt lat="43.28744" lon="-2.2778623">
        <ele>27493.0</ele>
        <time>2020-09-05T11:00:40Z</time>
      </trkpt>
      <trkpt lat="43.28747" lon="-2.2777894">
        <ele>27493.0</ele>
        <time>2020-09-05T11:00:45Z</time>
      </trkpt>
      <trkpt lat="43.287502" lon="-2.277726">
        <ele>27611.0</ele>
        <time>2020-09-05T11:00:50Z</time>
      </trkpt>
      <trkpt lat="43.287548" lon="-2.2776136">
        <ele>27993.0</ele>
        <time>2020-09-05T11:01:20Z</time>
      </trkpt>
      <trkpt lat="43.28757" lon="-2.2775466">
        <ele>28438.0</ele>
        <time>2020-09-05T11:01:26Z</time>
      </trkpt>
      <trkpt lat="43.287586" lon="-2.2774765">
        <ele>28565.0</ele>
        <time>2020-09-05T11:01:31Z</time>
      </trkpt>
      <trkpt lat="43.287613" lon="-2.2774134">
        <ele>28565.0</ele>
        <time>2020-09-05T11:01:35Z</time>
      </trkpt>
      <trkpt lat="43.28763" lon="-2.2773347">
        <ele>28702.0</ele>
        <time>2020-09-05T11:01:41Z</time>
      </trkpt>
      <trkpt lat="43.28765" lon="-2.2772694">
        <ele>28838.0</ele>
        <time>2020-09-05T11:01:46Z</time>
      </trkpt>
      <trkpt lat="43.287666" lon="-2.2772048">
        <ele>28956.0</ele>
        <time>2020-09-05T11:01:51Z</time>
      </trkpt>
      <trkpt lat="43.287697" lon="-2.2771354">
        <ele>28956.0</ele>
        <time>2020-09-05T11:01:56Z</time>
      </trkpt>
      <trkpt lat="43.287716" lon="-2.277078">
        <ele>29102.0</ele>
        <time>2020-09-05T11:02:01Z</time>
      </trkpt>
      <trkpt lat="43.28773" lon="-2.2770107">
        <ele>29229.0</ele>
        <time>2020-09-05T11:02:07Z</time>
      </trkpt>
      <trkpt lat="43.28775" lon="-2.2769318">
        <ele>29356.0</ele>
        <time>2020-09-05T11:02:14Z</time>
      </trkpt>
      <trkpt lat="43.287766" lon="-2.276863">
        <ele>29602.0</ele>
        <time>2020-09-05T11:02:19Z</time>
      </trkpt>
      <trkpt lat="43.28778" lon="-2.2767956">
        <ele>29720.0</ele>
        <time>2020-09-05T11:02:24Z</time>
      </trkpt>
      <trkpt lat="43.287807" lon="-2.276726">
        <ele>30002.0</ele>
        <time>2020-09-05T11:02:29Z</time>
      </trkpt>
      <trkpt lat="43.28783" lon="-2.2766607">
        <ele>30138.0</ele>
        <time>2020-09-05T11:02:34Z</time>
      </trkpt>
      <trkpt lat="43.28787" lon="-2.2766047">
        <ele>30411.0</ele>
        <time>2020-09-05T11:02:39Z</time>
      </trkpt>
      <trkpt lat="43.287914" lon="-2.2765484">
        <ele>30538.0</ele>
        <time>2020-09-05T11:02:44Z</time>
      </trkpt>
      <trkpt lat="43.28796" lon="-2.276495">
        <ele>30702.0</ele>
        <time>2020-09-05T11:02:49Z</time>
      </trkpt>
      <trkpt lat="43.288006" lon="-2.276449">
        <ele>30829.0</ele>
        <time>2020-09-05T11:02:54Z</time>
      </trkpt>
      <trkpt lat="43.288055" lon="-2.276404">
        <ele>30984.0</ele>
        <time>2020-09-05T11:02:59Z</time>
      </trkpt>
      <trkpt lat="43.2881" lon="-2.276362">
        <ele>31111.0</ele>
        <time>2020-09-05T11:03:04Z</time>
      </trkpt>
      <trkpt lat="43.288147" lon="-2.276323">
        <ele>31256.0</ele>
        <time>2020-09-05T11:03:09Z</time>
      </trkpt>
      <trkpt lat="43.288197" lon="-2.276281">
        <ele>31384.0</ele>
        <time>2020-09-05T11:03:14Z</time>
      </trkpt>
      <trkpt lat="43.288242" lon="-2.2762277">
        <ele>31238.0</ele>
        <time>2020-09-05T11:03:19Z</time>
      </trkpt>
      <trkpt lat="43.28829" lon="-2.276181">
        <ele>31102.0</ele>
        <time>2020-09-05T11:03:24Z</time>
      </trkpt>
      <trkpt lat="43.28834" lon="-2.276134">
        <ele>31220.0</ele>
        <time>2020-09-05T11:03:29Z</time>
      </trkpt>
      <trkpt lat="43.28838" lon="-2.2760882">
        <ele>31347.0</ele>
        <time>2020-09-05T11:03:34Z</time>
      </trkpt>
      <trkpt lat="43.28842" lon="-2.2760396">
        <ele>31484.0</ele>
        <time>2020-09-05T11:03:38Z</time>
      </trkpt>
      <trkpt lat="43.288475" lon="-2.275972">
        <ele>31774.0</ele>
        <time>2020-09-05T11:03:44Z</time>
      </trkpt>
      <trkpt lat="43.28851" lon="-2.2759166">
        <ele>31911.0</ele>
        <time>2020-09-05T11:03:49Z</time>
      </trkpt>
      <trkpt lat="43.288544" lon="-2.2758663">
        <ele>32156.0</ele>
        <time>2020-09-05T11:03:54Z</time>
      </trkpt>
      <trkpt lat="43.28858" lon="-2.275819">
        <ele>32284.0</ele>
        <time>2020-09-05T11:03:59Z</time>
      </trkpt>
      <trkpt lat="43.288624" lon="-2.2757626">
        <ele>32284.0</ele>
        <time>2020-09-05T11:04:04Z</time>
      </trkpt>
      <trkpt lat="43.28867" lon="-2.275704">
        <ele>32402.0</ele>
        <time>2020-09-05T11:04:10Z</time>
      </trkpt>
      <trkpt lat="43.288708" lon="-2.2756507">
        <ele>32529.0</ele>
        <time>2020-09-05T11:04:15Z</time>
      </trkpt>
      <trkpt lat="43.28875" lon="-2.2756033">
        <ele>32529.0</ele>
        <time>2020-09-05T11:04:19Z</time>
      </trkpt>
      <trkpt lat="43.288784" lon="-2.2755537">
        <ele>32529.0</ele>
        <time>2020-09-05T11:04:24Z</time>
      </trkpt>
      <trkpt lat="43.288826" lon="-2.2754953">
        <ele>32647.0</ele>
        <time>2020-09-05T11:04:29Z</time>
      </trkpt>
      <trkpt lat="43.288868" lon="-2.2754447">
        <ele>32647.0</ele>
        <time>2020-09-05T11:04:34Z</time>
      </trkpt>
      <trkpt lat="43.288902" lon="-2.2753923">
        <ele>32647.0</ele>
        <time>2020-09-05T11:04:39Z</time>
      </trkpt>
      <trkpt lat="43.288948" lon="-2.2753427">
        <ele>32647.0</ele>
        <time>2020-09-05T11:04:44Z</time>
      </trkpt>
      <trkpt lat="43.288986" lon="-2.2752874">
        <ele>32647.0</ele>
        <time>2020-09-05T11:04:49Z</time>
      </trkpt>
      <trkpt lat="43.28903" lon="-2.2752342">
        <ele>32647.0</ele>
        <time>2020-09-05T11:04:54Z</time>
      </trkpt>
      <trkpt lat="43.289062" lon="-2.2751868">
        <ele>32647.0</ele>
        <time>2020-09-05T11:04:58Z</time>
      </trkpt>
      <trkpt lat="43.289104" lon="-2.2751353">
        <ele>32647.0</ele>
        <time>2020-09-05T11:05:03Z</time>
      </trkpt>
      <trkpt lat="43.289143" lon="-2.2750793">
        <ele>32529.0</ele>
        <time>2020-09-05T11:05:08Z</time>
      </trkpt>
      <trkpt lat="43.289192" lon="-2.2750294">
        <ele>32529.0</ele>
        <time>2020-09-05T11:05:13Z</time>
      </trkpt>
      <trkpt lat="43.289238" lon="-2.2749677">
        <ele>32529.0</ele>
        <time>2020-09-05T11:05:20Z</time>
      </trkpt>
      <trkpt lat="43.289288" lon="-2.2749033">
        <ele>32411.0</ele>
        <time>2020-09-05T11:05:27Z</time>
      </trkpt>
      <trkpt lat="43.28933" lon="-2.2748637">
        <ele>32411.0</ele>
        <time>2020-09-05T11:05:32Z</time>
      </trkpt>
      <trkpt lat="43.289387" lon="-2.2748206">
        <ele>32411.0</ele>
        <time>2020-09-05T11:05:38Z</time>
      </trkpt>
      <trkpt lat="43.289436" lon="-2.274793">
        <ele>32411.0</ele>
        <time>2020-09-05T11:05:43Z</time>
      </trkpt>
      <trkpt lat="43.289486" lon="-2.274772">
        <ele>32411.0</ele>
        <time>2020-09-05T11:05:48Z</time>
      </trkpt>
      <trkpt lat="43.28954" lon="-2.274736">
        <ele>32293.0</ele>
        <time>2020-09-05T11:05:54Z</time>
      </trkpt>
      <trkpt lat="43.28959" lon="-2.2746983">
        <ele>32293.0</ele>
        <time>2020-09-05T11:05:59Z</time>
      </trkpt>
      <trkpt lat="43.289642" lon="-2.274654">
        <ele>32293.0</ele>
        <time>2020-09-05T11:06:05Z</time>
      </trkpt>
      <trkpt lat="43.28969" lon="-2.274605">
        <ele>32293.0</ele>
        <time>2020-09-05T11:06:10Z</time>
      </trkpt>
      <trkpt lat="43.289726" lon="-2.2745717">
        <ele>32293.0</ele>
        <time>2020-09-05T11:06:15Z</time>
      </trkpt>
      <trkpt lat="43.28978" lon="-2.27452">
        <ele>32293.0</ele>
        <time>2020-09-05T11:06:21Z</time>
      </trkpt>
      <trkpt lat="43.289837" lon="-2.2744813">
        <ele>32293.0</ele>
        <time>2020-09-05T11:06:25Z</time>
      </trkpt>
      <trkpt lat="43.289875" lon="-2.274445">
        <ele>32293.0</ele>
        <time>2020-09-05T11:06:30Z</time>
      </trkpt>
      <trkpt lat="43.28993" lon="-2.2744033">
        <ele>32293.0</ele>
        <time>2020-09-05T11:06:36Z</time>
      </trkpt>
      <trkpt lat="43.289986" lon="-2.274368">
        <ele>32293.0</ele>
        <time>2020-09-05T11:06:41Z</time>
      </trkpt>
      <trkpt lat="43.290024" lon="-2.274339">
        <ele>32293.0</ele>
        <time>2020-09-05T11:06:45Z</time>
      </trkpt>
      <trkpt lat="43.29007" lon="-2.2743094">
        <ele>32174.0</ele>
        <time>2020-09-05T11:06:50Z</time>
      </trkpt>
      <trkpt lat="43.29013" lon="-2.2742813">
        <ele>31911.0</ele>
        <time>2020-09-05T11:06:56Z</time>
      </trkpt>
      <trkpt lat="43.29018" lon="-2.2742603">
        <ele>31784.0</ele>
        <time>2020-09-05T11:07:00Z</time>
      </trkpt>
      <trkpt lat="43.290234" lon="-2.2742326">
        <ele>31665.0</ele>
        <time>2020-09-05T11:07:05Z</time>
      </trkpt>
      <trkpt lat="43.29028" lon="-2.2741947">
        <ele>31538.0</ele>
        <time>2020-09-05T11:07:11Z</time>
      </trkpt>
      <trkpt lat="43.290337" lon="-2.274146">
        <ele>31538.0</ele>
        <time>2020-09-05T11:07:17Z</time>
      </trkpt>
      <trkpt lat="43.290382" lon="-2.274094">
        <ele>31538.0</ele>
        <time>2020-09-05T11:07:22Z</time>
      </trkpt>
      <trkpt lat="43.29042" lon="-2.2740533">
        <ele>31538.0</ele>
        <time>2020-09-05T11:07:26Z</time>
      </trkpt>
      <trkpt lat="43.290474" lon="-2.2740026">
        <ele>31538.0</ele>
        <time>2020-09-05T11:07:31Z</time>
      </trkpt>
      <trkpt lat="43.29052" lon="-2.2739472">
        <ele>31656.0</ele>
        <time>2020-09-05T11:07:36Z</time>
      </trkpt>
      <trkpt lat="43.290554" lon="-2.2738874">
        <ele>31656.0</ele>
        <time>2020-09-05T11:07:40Z</time>
      </trkpt>
      <trkpt lat="43.29056" lon="-2.2738276">
        <ele>31656.0</ele>
        <time>2020-09-05T11:07:49Z</time>
      </trkpt>
      <trkpt lat="43.29057" lon="-2.2737443">
        <ele>31656.0</ele>
        <time>2020-09-05T11:07:55Z</time>
      </trkpt>
      <trkpt lat="43.29057" lon="-2.273677">
        <ele>31656.0</ele>
        <time>2020-09-05T11:07:59Z</time>
      </trkpt>
      <trkpt lat="43.29057" lon="-2.273593">
        <ele>31656.0</ele>
        <time>2020-09-05T11:08:05Z</time>
      </trkpt>
      <trkpt lat="43.290573" lon="-2.27351">
        <ele>31647.0</ele>
        <time>2020-09-05T11:08:26Z</time>
      </trkpt>
      <trkpt lat="43.29057" lon="-2.273437">
        <ele>31529.0</ele>
        <time>2020-09-05T11:08:34Z</time>
      </trkpt>
      <trkpt lat="43.290585" lon="-2.2733583">
        <ele>31529.0</ele>
        <time>2020-09-05T11:08:41Z</time>
      </trkpt>
      <trkpt lat="43.290604" lon="-2.2732956">
        <ele>31647.0</ele>
        <time>2020-09-05T11:08:46Z</time>
      </trkpt>
      <trkpt lat="43.290623" lon="-2.2732203">
        <ele>31647.0</ele>
        <time>2020-09-05T11:09:00Z</time>
      </trkpt>
      <trkpt lat="43.290653" lon="-2.2731397">
        <ele>31647.0</ele>
        <time>2020-09-05T11:09:05Z</time>
      </trkpt>
      <trkpt lat="43.290684" lon="-2.273079">
        <ele>31647.0</ele>
        <time>2020-09-05T11:09:09Z</time>
      </trkpt>
      <trkpt lat="43.290714" lon="-2.2730124">
        <ele>31647.0</ele>
        <time>2020-09-05T11:09:14Z</time>
      </trkpt>
      <trkpt lat="43.290756" lon="-2.272964">
        <ele>31647.0</ele>
        <time>2020-09-05T11:09:18Z</time>
      </trkpt>
      <trkpt lat="43.290794" lon="-2.2729096">
        <ele>31647.0</ele>
        <time>2020-09-05T11:09:24Z</time>
      </trkpt>
      <trkpt lat="43.290825" lon="-2.272863">
        <ele>31647.0</ele>
        <time>2020-09-05T11:09:34Z</time>
      </trkpt>
      <trkpt lat="43.29087" lon="-2.2728007">
        <ele>31447.0</ele>
        <time>2020-09-05T11:09:40Z</time>
      </trkpt>
      <trkpt lat="43.290916" lon="-2.27275">
        <ele>31447.0</ele>
        <time>2020-09-05T11:09:45Z</time>
      </trkpt>
      <trkpt lat="43.29096" lon="-2.2726862">
        <ele>31565.0</ele>
        <time>2020-09-05T11:09:50Z</time>
      </trkpt>
      <trkpt lat="43.29099" lon="-2.272635">
        <ele>31565.0</ele>
        <time>2020-09-05T11:09:54Z</time>
      </trkpt>
      <trkpt lat="43.291027" lon="-2.2725787">
        <ele>31565.0</ele>
        <time>2020-09-05T11:09:59Z</time>
      </trkpt>
      <trkpt lat="43.291065" lon="-2.272512">
        <ele>31684.0</ele>
        <time>2020-09-05T11:10:04Z</time>
      </trkpt>
      <trkpt lat="43.29109" lon="-2.272465">
        <ele>31684.0</ele>
        <time>2020-09-05T11:10:08Z</time>
      </trkpt>
      <trkpt lat="43.29113" lon="-2.2724013">
        <ele>31811.0</ele>
        <time>2020-09-05T11:10:13Z</time>
      </trkpt>
      <trkpt lat="43.29117" lon="-2.2723477">
        <ele>31811.0</ele>
        <time>2020-09-05T11:10:17Z</time>
      </trkpt>
      <trkpt lat="43.2912" lon="-2.2722964">
        <ele>31929.0</ele>
        <time>2020-09-05T11:10:21Z</time>
      </trkpt>
      <trkpt lat="43.291237" lon="-2.2722397">
        <ele>32065.0</ele>
        <time>2020-09-05T11:10:26Z</time>
      </trkpt>
      <trkpt lat="43.291275" lon="-2.27218">
        <ele>32184.0</ele>
        <time>2020-09-05T11:10:30Z</time>
      </trkpt>
      <trkpt lat="43.29131" lon="-2.2721264">
        <ele>32311.0</ele>
        <time>2020-09-05T11:10:34Z</time>
      </trkpt>
      <trkpt lat="43.29134" lon="-2.2720613">
        <ele>32311.0</ele>
        <time>2020-09-05T11:10:39Z</time>
      </trkpt>
      <trkpt lat="43.291363" lon="-2.2719986">
        <ele>32438.0</ele>
        <time>2020-09-05T11:10:44Z</time>
      </trkpt>
      <trkpt lat="43.291393" lon="-2.2719293">
        <ele>32556.0</ele>
        <time>2020-09-05T11:10:50Z</time>
      </trkpt>
      <trkpt lat="43.291424" lon="-2.2718556">
        <ele>32556.0</ele>
        <time>2020-09-05T11:10:55Z</time>
      </trkpt>
      <trkpt lat="43.291447" lon="-2.2717814">
        <ele>32556.0</ele>
        <time>2020-09-05T11:11:00Z</time>
      </trkpt>
      <trkpt lat="43.29146" lon="-2.2717016">
        <ele>32684.0</ele>
        <time>2020-09-05T11:11:06Z</time>
      </trkpt>
      <trkpt lat="43.291477" lon="-2.2716308">
        <ele>32684.0</ele>
        <time>2020-09-05T11:11:11Z</time>
      </trkpt>
      <trkpt lat="43.291496" lon="-2.2715747">
        <ele>32802.0</ele>
        <time>2020-09-05T11:11:16Z</time>
      </trkpt>
      <trkpt lat="43.291527" lon="-2.2715132">
        <ele>32802.0</ele>
        <time>2020-09-05T11:11:30Z</time>
      </trkpt>
      <trkpt lat="43.29155" lon="-2.2714493">
        <ele>32802.0</ele>
        <time>2020-09-05T11:11:35Z</time>
      </trkpt>
      <trkpt lat="43.291573" lon="-2.2713854">
        <ele>32802.0</ele>
        <time>2020-09-05T11:11:41Z</time>
      </trkpt>
      <trkpt lat="43.291576" lon="-2.2713168">
        <ele>32920.0</ele>
        <time>2020-09-05T11:11:53Z</time>
      </trkpt>
      <trkpt lat="43.291595" lon="-2.271247">
        <ele>33038.0</ele>
        <time>2020-09-05T11:12:06Z</time>
      </trkpt>
      <trkpt lat="43.29161" lon="-2.271178">
        <ele>33038.0</ele>
        <time>2020-09-05T11:12:15Z</time>
      </trkpt>
      <trkpt lat="43.29164" lon="-2.2711146">
        <ele>33156.0</ele>
        <time>2020-09-05T11:12:22Z</time>
      </trkpt>
      <trkpt lat="43.29167" lon="-2.2710514">
        <ele>33156.0</ele>
        <time>2020-09-05T11:12:28Z</time>
      </trkpt>
      <trkpt lat="43.29169" lon="-2.2709804">
        <ele>33156.0</ele>
        <time>2020-09-05T11:12:34Z</time>
      </trkpt>
      <trkpt lat="43.29171" lon="-2.2709167">
        <ele>33156.0</ele>
        <time>2020-09-05T11:12:39Z</time>
      </trkpt>
      <trkpt lat="43.291737" lon="-2.270849">
        <ele>33156.0</ele>
        <time>2020-09-05T11:12:44Z</time>
      </trkpt>
      <trkpt lat="43.291756" lon="-2.270782">
        <ele>33156.0</ele>
        <time>2020-09-05T11:12:49Z</time>
      </trkpt>
      <trkpt lat="43.29177" lon="-2.2707167">
        <ele>33156.0</ele>
        <time>2020-09-05T11:12:54Z</time>
      </trkpt>
      <trkpt lat="43.2918" lon="-2.2706316">
        <ele>33156.0</ele>
        <time>2020-09-05T11:13:00Z</time>
      </trkpt>
      <trkpt lat="43.29182" lon="-2.270562">
        <ele>33156.0</ele>
        <time>2020-09-05T11:13:05Z</time>
      </trkpt>
      <trkpt lat="43.291847" lon="-2.2704954">
        <ele>33156.0</ele>
        <time>2020-09-05T11:13:10Z</time>
      </trkpt>
      <trkpt lat="43.291866" lon="-2.2704344">
        <ele>33156.0</ele>
        <time>2020-09-05T11:13:15Z</time>
      </trkpt>
      <trkpt lat="43.291885" lon="-2.2703574">
        <ele>33156.0</ele>
        <time>2020-09-05T11:13:21Z</time>
      </trkpt>
      <trkpt lat="43.291916" lon="-2.2702837">
        <ele>33156.0</ele>
        <time>2020-09-05T11:13:26Z</time>
      </trkpt>
      <trkpt lat="43.29193" lon="-2.2702107">
        <ele>33156.0</ele>
        <time>2020-09-05T11:13:31Z</time>
      </trkpt>
      <trkpt lat="43.29196" lon="-2.2701354">
        <ele>33156.0</ele>
        <time>2020-09-05T11:13:36Z</time>
      </trkpt>
      <trkpt lat="43.291985" lon="-2.2700603">
        <ele>33274.0</ele>
        <time>2020-09-05T11:13:41Z</time>
      </trkpt>
      <trkpt lat="43.292007" lon="-2.26999">
        <ele>33402.0</ele>
        <time>2020-09-05T11:13:46Z</time>
      </trkpt>
      <trkpt lat="43.292027" lon="-2.2699144">
        <ele>33520.0</ele>
        <time>2020-09-05T11:13:51Z</time>
      </trkpt>
      <trkpt lat="43.29204" lon="-2.2698514">
        <ele>33520.0</ele>
        <time>2020-09-05T11:13:55Z</time>
      </trkpt>
      <trkpt lat="43.29206" lon="-2.2697728">
        <ele>33647.0</ele>
        <time>2020-09-05T11:14:00Z</time>
      </trkpt>
      <trkpt lat="43.292088" lon="-2.2697">
        <ele>33774.0</ele>
        <time>2020-09-05T11:14:05Z</time>
      </trkpt>
      <trkpt lat="43.292103" lon="-2.269633">
        <ele>33774.0</ele>
        <time>2020-09-05T11:14:10Z</time>
      </trkpt>
      <trkpt lat="43.292126" lon="-2.2695627">
        <ele>33893.0</ele>
        <time>2020-09-05T11:14:16Z</time>
      </trkpt>
      <trkpt lat="43.292145" lon="-2.2694957">
        <ele>33893.0</ele>
        <time>2020-09-05T11:14:21Z</time>
      </trkpt>
      <trkpt lat="43.292156" lon="-2.2694304">
        <ele>34011.0</ele>
        <time>2020-09-05T11:14:26Z</time>
      </trkpt>
      <trkpt lat="43.292202" lon="-2.269333">
        <ele>34247.0</ele>
        <time>2020-09-05T11:14:43Z</time>
      </trkpt>
      <trkpt lat="43.292217" lon="-2.2692714">
        <ele>34365.0</ele>
        <time>2020-09-05T11:14:49Z</time>
      </trkpt>
      <trkpt lat="43.29222" lon="-2.2691903">
        <ele>34611.0</ele>
        <time>2020-09-05T11:14:58Z</time>
      </trkpt>
      <trkpt lat="43.292225" lon="-2.2691147">
        <ele>34611.0</ele>
        <time>2020-09-05T11:15:04Z</time>
      </trkpt>
      <trkpt lat="43.29222" lon="-2.2690423">
        <ele>34611.0</ele>
        <time>2020-09-05T11:15:10Z</time>
      </trkpt>
      <trkpt lat="43.29221" lon="-2.2689657">
        <ele>34611.0</ele>
        <time>2020-09-05T11:15:16Z</time>
      </trkpt>
      <trkpt lat="43.292206" lon="-2.2688906">
        <ele>34611.0</ele>
        <time>2020-09-05T11:15:21Z</time>
      </trkpt>
      <trkpt lat="43.292202" lon="-2.2688203">
        <ele>34611.0</ele>
        <time>2020-09-05T11:15:26Z</time>
      </trkpt>
      <trkpt lat="43.29224" lon="-2.268788">
        <ele>34611.0</ele>
        <time>2020-09-05T11:15:32Z</time>
      </trkpt>
      <trkpt lat="43.292274" lon="-2.2688243">
        <ele>34611.0</ele>
        <time>2020-09-05T11:15:47Z</time>
      </trkpt>
      <trkpt lat="43.29228" lon="-2.268887">
        <ele>34611.0</ele>
        <time>2020-09-05T11:15:52Z</time>
      </trkpt>
      <trkpt lat="43.292294" lon="-2.2689674">
        <ele>34611.0</ele>
        <time>2020-09-05T11:15:58Z</time>
      </trkpt>
      <trkpt lat="43.29232" lon="-2.26903">
        <ele>34611.0</ele>
        <time>2020-09-05T11:16:03Z</time>
      </trkpt>
      <trkpt lat="43.29235" lon="-2.2690854">
        <ele>34611.0</ele>
        <time>2020-09-05T11:16:09Z</time>
      </trkpt>
      <trkpt lat="43.292385" lon="-2.26914">
        <ele>34611.0</ele>
        <time>2020-09-05T11:16:14Z</time>
      </trkpt>
      <trkpt lat="43.292404" lon="-2.2691963">
        <ele>34611.0</ele>
        <time>2020-09-05T11:16:21Z</time>
      </trkpt>
      <trkpt lat="43.29245" lon="-2.2692623">
        <ele>34611.0</ele>
        <time>2020-09-05T11:16:40Z</time>
      </trkpt>
      <trkpt lat="43.292484" lon="-2.2693346">
        <ele>34611.0</ele>
        <time>2020-09-05T11:16:46Z</time>
      </trkpt>
      <trkpt lat="43.292515" lon="-2.2694046">
        <ele>34611.0</ele>
        <time>2020-09-05T11:16:55Z</time>
      </trkpt>
      <trkpt lat="43.292564" lon="-2.2694473">
        <ele>34611.0</ele>
        <time>2020-09-05T11:17:01Z</time>
      </trkpt>
      <trkpt lat="43.292614" lon="-2.269477">
        <ele>35020.0</ele>
        <time>2020-09-05T11:17:06Z</time>
      </trkpt>
      <trkpt lat="43.292664" lon="-2.2694983">
        <ele>35020.0</ele>
        <time>2020-09-05T11:17:10Z</time>
      </trkpt>
      <trkpt lat="43.292725" lon="-2.2695184">
        <ele>35138.0</ele>
        <time>2020-09-05T11:17:15Z</time>
      </trkpt>
      <trkpt lat="43.292774" lon="-2.2695405">
        <ele>35138.0</ele>
        <time>2020-09-05T11:17:20Z</time>
      </trkpt>
      <trkpt lat="43.29283" lon="-2.26956">
        <ele>35138.0</ele>
        <time>2020-09-05T11:17:25Z</time>
      </trkpt>
      <trkpt lat="43.29289" lon="-2.269586">
        <ele>35138.0</ele>
        <time>2020-09-05T11:17:29Z</time>
      </trkpt>
      <trkpt lat="43.29294" lon="-2.2696083">
        <ele>35011.0</ele>
        <time>2020-09-05T11:17:34Z</time>
      </trkpt>
      <trkpt lat="43.292984" lon="-2.2696342">
        <ele>34893.0</ele>
        <time>2020-09-05T11:17:39Z</time>
      </trkpt>
      <trkpt lat="43.29304" lon="-2.2696602">
        <ele>34765.0</ele>
        <time>2020-09-05T11:17:44Z</time>
      </trkpt>
      <trkpt lat="43.29309" lon="-2.269683">
        <ele>34765.0</ele>
        <time>2020-09-05T11:17:49Z</time>
      </trkpt>
      <trkpt lat="43.293144" lon="-2.2697144">
        <ele>34629.0</ele>
        <time>2020-09-05T11:17:54Z</time>
      </trkpt>
      <trkpt lat="43.293198" lon="-2.2697353">
        <ele>34511.0</ele>
        <time>2020-09-05T11:17:59Z</time>
      </trkpt>
      <trkpt lat="43.293255" lon="-2.2697532">
        <ele>34374.0</ele>
        <time>2020-09-05T11:18:05Z</time>
      </trkpt>
      <trkpt lat="43.293312" lon="-2.2697823">
        <ele>34120.0</ele>
        <time>2020-09-05T11:18:10Z</time>
      </trkpt>
      <trkpt lat="43.29336" lon="-2.269807">
        <ele>33984.0</ele>
        <time>2020-09-05T11:18:14Z</time>
      </trkpt>
      <trkpt lat="43.293407" lon="-2.2698333">
        <ele>33984.0</ele>
        <time>2020-09-05T11:18:18Z</time>
      </trkpt>
      <trkpt lat="43.29345" lon="-2.2698674">
        <ele>33738.0</ele>
        <time>2020-09-05T11:18:23Z</time>
      </trkpt>
      <trkpt lat="43.293476" lon="-2.2699287">
        <ele>33502.0</ele>
        <time>2020-09-05T11:18:30Z</time>
      </trkpt>
      <trkpt lat="43.29346" lon="-2.270001">
        <ele>33047.0</ele>
        <time>2020-09-05T11:18:37Z</time>
      </trkpt>
      <trkpt lat="43.293427" lon="-2.270065">
        <ele>32384.0</ele>
        <time>2020-09-05T11:18:43Z</time>
      </trkpt>
      <trkpt lat="43.293392" lon="-2.270119">
        <ele>31784.0</ele>
        <time>2020-09-05T11:18:47Z</time>
      </trkpt>
      <trkpt lat="43.29336" lon="-2.2701797">
        <ele>31065.0</ele>
        <time>2020-09-05T11:18:52Z</time>
      </trkpt>
      <trkpt lat="43.293358" lon="-2.2702444">
        <ele>30574.0</ele>
        <time>2020-09-05T11:18:58Z</time>
      </trkpt>
      <trkpt lat="43.293377" lon="-2.270324">
        <ele>30274.0</ele>
        <time>2020-09-05T11:19:04Z</time>
      </trkpt>
      <trkpt lat="43.29339" lon="-2.2703993">
        <ele>30138.0</ele>
        <time>2020-09-05T11:19:09Z</time>
      </trkpt>
      <trkpt lat="43.2934" lon="-2.2704582">
        <ele>29856.0</ele>
        <time>2020-09-05T11:19:14Z</time>
      </trkpt>
      <trkpt lat="43.293415" lon="-2.2705324">
        <ele>29556.0</ele>
        <time>2020-09-05T11:19:20Z</time>
      </trkpt>
      <trkpt lat="43.293415" lon="-2.2706127">
        <ele>29074.0</ele>
        <time>2020-09-05T11:19:26Z</time>
      </trkpt>
      <trkpt lat="43.293407" lon="-2.2706788">
        <ele>28765.0</ele>
        <time>2020-09-05T11:19:31Z</time>
      </trkpt>
      <trkpt lat="43.293427" lon="-2.270759">
        <ele>28302.0</ele>
        <time>2020-09-05T11:19:37Z</time>
      </trkpt>
      <trkpt lat="43.29344" lon="-2.270827">
        <ele>28011.0</ele>
        <time>2020-09-05T11:19:42Z</time>
      </trkpt>
      <trkpt lat="43.29343" lon="-2.2708952">
        <ele>27602.0</ele>
        <time>2020-09-05T11:19:47Z</time>
      </trkpt>
      <trkpt lat="43.293427" lon="-2.2709627">
        <ele>27320.0</ele>
        <time>2020-09-05T11:19:53Z</time>
      </trkpt>
      <trkpt lat="43.293476" lon="-2.271009">
        <ele>26920.0</ele>
        <time>2020-09-05T11:19:59Z</time>
      </trkpt>
      <trkpt lat="43.293526" lon="-2.2710123">
        <ele>26484.0</ele>
        <time>2020-09-05T11:20:04Z</time>
      </trkpt>
      <trkpt lat="43.293568" lon="-2.2709713">
        <ele>26184.0</ele>
        <time>2020-09-05T11:20:12Z</time>
      </trkpt>
      <trkpt lat="43.2936" lon="-2.2709167">
        <ele>26065.0</ele>
        <time>2020-09-05T11:20:18Z</time>
      </trkpt>
      <trkpt lat="43.293625" lon="-2.2708454">
        <ele>26065.0</ele>
        <time>2020-09-05T11:20:23Z</time>
      </trkpt>
      <trkpt lat="43.29365" lon="-2.2707853">
        <ele>26193.0</ele>
        <time>2020-09-05T11:20:27Z</time>
      </trkpt>
      <trkpt lat="43.293686" lon="-2.2707353">
        <ele>26484.0</ele>
        <time>2020-09-05T11:20:32Z</time>
      </trkpt>
      <trkpt lat="43.293736" lon="-2.2707558">
        <ele>26738.0</ele>
        <time>2020-09-05T11:20:40Z</time>
      </trkpt>
      <trkpt lat="43.293777" lon="-2.2708035">
        <ele>26856.0</ele>
        <time>2020-09-05T11:20:46Z</time>
      </trkpt>
      <trkpt lat="43.293804" lon="-2.2708588">
        <ele>26974.0</ele>
        <time>2020-09-05T11:20:52Z</time>
      </trkpt>
      <trkpt lat="43.293846" lon="-2.270922">
        <ele>27102.0</ele>
        <time>2020-09-05T11:20:58Z</time>
      </trkpt>
      <trkpt lat="43.29388" lon="-2.2709804">
        <ele>27102.0</ele>
        <time>2020-09-05T11:21:03Z</time>
      </trkpt>
      <trkpt lat="43.293915" lon="-2.2710464">
        <ele>27102.0</ele>
        <time>2020-09-05T11:21:08Z</time>
      </trkpt>
      <trkpt lat="43.293938" lon="-2.271111">
        <ele>27102.0</ele>
        <time>2020-09-05T11:21:12Z</time>
      </trkpt>
      <trkpt lat="43.29396" lon="-2.271179">
        <ele>27229.0</ele>
        <time>2020-09-05T11:21:17Z</time>
      </trkpt>
      <trkpt lat="43.294003" lon="-2.2712266">
        <ele>27347.0</ele>
        <time>2020-09-05T11:21:22Z</time>
      </trkpt>
      <trkpt lat="43.294044" lon="-2.271268">
        <ele>27474.0</ele>
        <time>2020-09-05T11:21:27Z</time>
      </trkpt>
      <trkpt lat="43.294086" lon="-2.271321">
        <ele>27474.0</ele>
        <time>2020-09-05T11:21:32Z</time>
      </trkpt>
      <trkpt lat="43.294125" lon="-2.271374">
        <ele>27611.0</ele>
        <time>2020-09-05T11:21:38Z</time>
      </trkpt>
      <trkpt lat="43.294163" lon="-2.2714148">
        <ele>27874.0</ele>
        <time>2020-09-05T11:21:44Z</time>
      </trkpt>
      <trkpt lat="43.294212" lon="-2.2714527">
        <ele>27874.0</ele>
        <time>2020-09-05T11:21:49Z</time>
      </trkpt>
      <trkpt lat="43.294266" lon="-2.271479">
        <ele>27993.0</ele>
        <time>2020-09-05T11:21:54Z</time>
      </trkpt>
      <trkpt lat="43.29432" lon="-2.2715003">
        <ele>28247.0</ele>
        <time>2020-09-05T11:22:00Z</time>
      </trkpt>
      <trkpt lat="43.294373" lon="-2.271515">
        <ele>28374.0</ele>
        <time>2020-09-05T11:22:06Z</time>
      </trkpt>
      <trkpt lat="43.294422" lon="-2.2715216">
        <ele>28493.0</ele>
        <time>2020-09-05T11:22:12Z</time>
      </trkpt>
      <trkpt lat="43.294483" lon="-2.2715228">
        <ele>28611.0</ele>
        <time>2020-09-05T11:22:17Z</time>
      </trkpt>
      <trkpt lat="43.29454" lon="-2.2715228">
        <ele>28902.0</ele>
        <time>2020-09-05T11:22:22Z</time>
      </trkpt>
      <trkpt lat="43.294586" lon="-2.2715223">
        <ele>28902.0</ele>
        <time>2020-09-05T11:22:26Z</time>
      </trkpt>
      <trkpt lat="43.294643" lon="-2.2715137">
        <ele>29029.0</ele>
        <time>2020-09-05T11:22:32Z</time>
      </trkpt>
      <trkpt lat="43.294693" lon="-2.2715077">
        <ele>29165.0</ele>
        <time>2020-09-05T11:22:36Z</time>
      </trkpt>
      <trkpt lat="43.294827" lon="-2.271536">
        <ele>29302.0</ele>
        <time>2020-09-05T11:23:56Z</time>
      </trkpt>
      <trkpt lat="43.29488" lon="-2.2715454">
        <ele>29302.0</ele>
        <time>2020-09-05T11:24:03Z</time>
      </trkpt>
      <trkpt lat="43.29494" lon="-2.2715416">
        <ele>29302.0</ele>
        <time>2020-09-05T11:24:09Z</time>
      </trkpt>
      <trkpt lat="43.29499" lon="-2.271532">
        <ele>28902.0</ele>
        <time>2020-09-05T11:24:15Z</time>
      </trkpt>
      <trkpt lat="43.29506" lon="-2.2715306">
        <ele>28784.0</ele>
        <time>2020-09-05T11:24:22Z</time>
      </trkpt>
      <trkpt lat="43.295105" lon="-2.2715077">
        <ele>28656.0</ele>
        <time>2020-09-05T11:24:27Z</time>
      </trkpt>
      <trkpt lat="43.295143" lon="-2.271462">
        <ele>28656.0</ele>
        <time>2020-09-05T11:24:32Z</time>
      </trkpt>
      <trkpt lat="43.295185" lon="-2.2714074">
        <ele>28656.0</ele>
        <time>2020-09-05T11:24:37Z</time>
      </trkpt>
      <trkpt lat="43.295223" lon="-2.2713673">
        <ele>28656.0</ele>
        <time>2020-09-05T11:24:41Z</time>
      </trkpt>
      <trkpt lat="43.295273" lon="-2.2713223">
        <ele>28656.0</ele>
        <time>2020-09-05T11:24:46Z</time>
      </trkpt>
      <trkpt lat="43.295322" lon="-2.271278">
        <ele>28656.0</ele>
        <time>2020-09-05T11:24:51Z</time>
      </trkpt>
      <trkpt lat="43.295372" lon="-2.2712383">
        <ele>28656.0</ele>
        <time>2020-09-05T11:24:56Z</time>
      </trkpt>
      <trkpt lat="43.295418" lon="-2.2712064">
        <ele>28656.0</ele>
        <time>2020-09-05T11:25:01Z</time>
      </trkpt>
      <trkpt lat="43.295452" lon="-2.2711673">
        <ele>28656.0</ele>
        <time>2020-09-05T11:25:06Z</time>
      </trkpt>
      <trkpt lat="43.295517" lon="-2.2711644">
        <ele>28656.0</ele>
        <time>2020-09-05T11:25:14Z</time>
      </trkpt>
      <trkpt lat="43.29558" lon="-2.2711546">
        <ele>28656.0</ele>
        <time>2020-09-05T11:25:19Z</time>
      </trkpt>
      <trkpt lat="43.295628" lon="-2.2711453">
        <ele>28656.0</ele>
        <time>2020-09-05T11:25:24Z</time>
      </trkpt>
      <trkpt lat="43.295677" lon="-2.2711468">
        <ele>28656.0</ele>
        <time>2020-09-05T11:25:29Z</time>
      </trkpt>
      <trkpt lat="43.295727" lon="-2.2711287">
        <ele>28656.0</ele>
        <time>2020-09-05T11:25:34Z</time>
      </trkpt>
      <trkpt lat="43.29577" lon="-2.2710843">
        <ele>28656.0</ele>
        <time>2020-09-05T11:25:39Z</time>
      </trkpt>
      <trkpt lat="43.295822" lon="-2.2710326">
        <ele>28656.0</ele>
        <time>2020-09-05T11:25:45Z</time>
      </trkpt>
      <trkpt lat="43.29586" lon="-2.2709827">
        <ele>28656.0</ele>
        <time>2020-09-05T11:25:50Z</time>
      </trkpt>
      <trkpt lat="43.295906" lon="-2.2709467">
        <ele>28774.0</ele>
        <time>2020-09-05T11:25:55Z</time>
      </trkpt>
      <trkpt lat="43.295963" lon="-2.2709274">
        <ele>28774.0</ele>
        <time>2020-09-05T11:26:01Z</time>
      </trkpt>
      <trkpt lat="43.296017" lon="-2.2709002">
        <ele>28774.0</ele>
        <time>2020-09-05T11:26:06Z</time>
      </trkpt>
      <trkpt lat="43.296066" lon="-2.2708733">
        <ele>28902.0</ele>
        <time>2020-09-05T11:26:11Z</time>
      </trkpt>
      <trkpt lat="43.296112" lon="-2.270847">
        <ele>29029.0</ele>
        <time>2020-09-05T11:26:16Z</time>
      </trkpt>
      <trkpt lat="43.296165" lon="-2.2708232">
        <ele>29156.0</ele>
        <time>2020-09-05T11:26:21Z</time>
      </trkpt>
      <trkpt lat="43.29621" lon="-2.2708018">
        <ele>29274.0</ele>
        <time>2020-09-05T11:26:25Z</time>
      </trkpt>
      <trkpt lat="43.296265" lon="-2.2707794">
        <ele>29411.0</ele>
        <time>2020-09-05T11:26:30Z</time>
      </trkpt>
      <trkpt lat="43.29633" lon="-2.2707546">
        <ele>29411.0</ele>
        <time>2020-09-05T11:26:35Z</time>
      </trkpt>
      <trkpt lat="43.296383" lon="-2.2707384">
        <ele>29538.0</ele>
        <time>2020-09-05T11:26:39Z</time>
      </trkpt>
      <trkpt lat="43.29643" lon="-2.2707217">
        <ele>29665.0</ele>
        <time>2020-09-05T11:26:43Z</time>
      </trkpt>
      <trkpt lat="43.296486" lon="-2.270702">
        <ele>29793.0</ele>
        <time>2020-09-05T11:26:48Z</time>
      </trkpt>
      <trkpt lat="43.29653" lon="-2.2706804">
        <ele>29793.0</ele>
        <time>2020-09-05T11:26:52Z</time>
      </trkpt>
      <trkpt lat="43.296604" lon="-2.2706594">
        <ele>30038.0</ele>
        <time>2020-09-05T11:27:24Z</time>
      </trkpt>
      <trkpt lat="43.29666" lon="-2.2706373">
        <ele>30165.0</ele>
        <time>2020-09-05T11:27:32Z</time>
      </trkpt>
      <trkpt lat="43.29671" lon="-2.270615">
        <ele>30165.0</ele>
        <time>2020-09-05T11:27:37Z</time>
      </trkpt>
      <trkpt lat="43.296764" lon="-2.2705967">
        <ele>30293.0</ele>
        <time>2020-09-05T11:27:42Z</time>
      </trkpt>
      <trkpt lat="43.296818" lon="-2.2705863">
        <ele>30411.0</ele>
        <time>2020-09-05T11:27:47Z</time>
      </trkpt>
      <trkpt lat="43.296864" lon="-2.270575">
        <ele>30411.0</ele>
        <time>2020-09-05T11:27:54Z</time>
      </trkpt>
      <trkpt lat="43.296936" lon="-2.2705107">
        <ele>30411.0</ele>
        <time>2020-09-05T11:29:42Z</time>
      </trkpt>
      <trkpt lat="43.29698" lon="-2.2704766">
        <ele>30411.0</ele>
        <time>2020-09-05T11:29:47Z</time>
      </trkpt>
      <trkpt lat="43.29704" lon="-2.2704484">
        <ele>30411.0</ele>
        <time>2020-09-05T11:29:51Z</time>
      </trkpt>
      <trkpt lat="43.29708" lon="-2.2704234">
        <ele>30411.0</ele>
        <time>2020-09-05T11:29:55Z</time>
      </trkpt>
      <trkpt lat="43.29714" lon="-2.270393">
        <ele>30411.0</ele>
        <time>2020-09-05T11:30:00Z</time>
      </trkpt>
      <trkpt lat="43.297188" lon="-2.2703516">
        <ele>30411.0</ele>
        <time>2020-09-05T11:30:05Z</time>
      </trkpt>
      <trkpt lat="43.297245" lon="-2.2703066">
        <ele>30529.0</ele>
        <time>2020-09-05T11:30:11Z</time>
      </trkpt>
      <trkpt lat="43.29728" lon="-2.270286">
        <ele>30529.0</ele>
        <time>2020-09-05T11:30:17Z</time>
      </trkpt>
      <trkpt lat="43.297333" lon="-2.270247">
        <ele>30529.0</ele>
        <time>2020-09-05T11:30:23Z</time>
      </trkpt>
      <trkpt lat="43.297394" lon="-2.2702067">
        <ele>30529.0</ele>
        <time>2020-09-05T11:30:29Z</time>
      </trkpt>
      <trkpt lat="43.297432" lon="-2.270181">
        <ele>30647.0</ele>
        <time>2020-09-05T11:30:33Z</time>
      </trkpt>
      <trkpt lat="43.297497" lon="-2.2701514">
        <ele>30647.0</ele>
        <time>2020-09-05T11:30:45Z</time>
      </trkpt>
      <trkpt lat="43.29755" lon="-2.270117">
        <ele>30647.0</ele>
        <time>2020-09-05T11:30:50Z</time>
      </trkpt>
      <trkpt lat="43.297604" lon="-2.270095">
        <ele>30647.0</ele>
        <time>2020-09-05T11:30:56Z</time>
      </trkpt>
      <trkpt lat="43.29764" lon="-2.270076">
        <ele>30647.0</ele>
        <time>2020-09-05T11:31:04Z</time>
      </trkpt>
      <trkpt lat="43.2977" lon="-2.2700424">
        <ele>30647.0</ele>
        <time>2020-09-05T11:31:10Z</time>
      </trkpt>
      <trkpt lat="43.297752" lon="-2.2700057">
        <ele>30647.0</ele>
        <time>2020-09-05T11:31:15Z</time>
      </trkpt>
      <trkpt lat="43.29779" lon="-2.2699838">
        <ele>30647.0</ele>
        <time>2020-09-05T11:31:21Z</time>
      </trkpt>
      <trkpt lat="43.2979" lon="-2.269863">
        <ele>30647.0</ele>
        <time>2020-09-05T11:32:57Z</time>
      </trkpt>
      <trkpt lat="43.29794" lon="-2.269807">
        <ele>28956.0</ele>
        <time>2020-09-05T11:33:04Z</time>
      </trkpt>
      <trkpt lat="43.297977" lon="-2.269779">
        <ele>28020.0</ele>
        <time>2020-09-05T11:33:11Z</time>
      </trkpt>
      <trkpt lat="43.298" lon="-2.2697318">
        <ele>27447.0</ele>
        <time>2020-09-05T11:33:22Z</time>
      </trkpt>
      <trkpt lat="43.298046" lon="-2.269664">
        <ele>27156.0</ele>
        <time>2020-09-05T11:33:36Z</time>
      </trkpt>
      <trkpt lat="43.29808" lon="-2.269604">
        <ele>27156.0</ele>
        <time>2020-09-05T11:33:41Z</time>
      </trkpt>
      <trkpt lat="43.29811" lon="-2.2695503">
        <ele>27156.0</ele>
        <time>2020-09-05T11:33:46Z</time>
      </trkpt>
      <trkpt lat="43.29815" lon="-2.2695067">
        <ele>27156.0</ele>
        <time>2020-09-05T11:33:52Z</time>
      </trkpt>
      <trkpt lat="43.298195" lon="-2.2694817">
        <ele>27274.0</ele>
        <time>2020-09-05T11:34:05Z</time>
      </trkpt>
      <trkpt lat="43.29826" lon="-2.2694547">
        <ele>27274.0</ele>
        <time>2020-09-05T11:34:11Z</time>
      </trkpt>
      <trkpt lat="43.29829" lon="-2.2694304">
        <ele>27274.0</ele>
        <time>2020-09-05T11:34:15Z</time>
      </trkpt>
      <trkpt lat="43.298325" lon="-2.2693856">
        <ele>27274.0</ele>
        <time>2020-09-05T11:34:33Z</time>
      </trkpt>
      <trkpt lat="43.29836" lon="-2.2693295">
        <ele>27274.0</ele>
        <time>2020-09-05T11:34:41Z</time>
      </trkpt>
      <trkpt lat="43.298397" lon="-2.2692707">
        <ele>27484.0</ele>
        <time>2020-09-05T11:34:47Z</time>
      </trkpt>
      <trkpt lat="43.29843" lon="-2.2692094">
        <ele>27484.0</ele>
        <time>2020-09-05T11:34:52Z</time>
      </trkpt>
      <trkpt lat="43.298477" lon="-2.2691433">
        <ele>27602.0</ele>
        <time>2020-09-05T11:34:59Z</time>
      </trkpt>
      <trkpt lat="43.298485" lon="-2.2691047">
        <ele>27484.0</ele>
        <time>2020-09-05T11:35:10Z</time>
      </trkpt>
      <trkpt lat="43.2985" lon="-2.2690303">
        <ele>27356.0</ele>
        <time>2020-09-05T11:35:16Z</time>
      </trkpt>
      <trkpt lat="43.29853" lon="-2.268951">
        <ele>27356.0</ele>
        <time>2020-09-05T11:35:22Z</time>
      </trkpt>
      <trkpt lat="43.29854" lon="-2.2688854">
        <ele>27356.0</ele>
        <time>2020-09-05T11:35:27Z</time>
      </trkpt>
      <trkpt lat="43.298546" lon="-2.2688124">
        <ele>27356.0</ele>
        <time>2020-09-05T11:35:36Z</time>
      </trkpt>
      <trkpt lat="43.29854" lon="-2.2687397">
        <ele>27238.0</ele>
        <time>2020-09-05T11:35:45Z</time>
      </trkpt>
      <trkpt lat="43.298553" lon="-2.268647">
        <ele>27111.0</ele>
        <time>2020-09-05T11:35:59Z</time>
      </trkpt>
      <trkpt lat="43.298546" lon="-2.2685773">
        <ele>26993.0</ele>
        <time>2020-09-05T11:36:08Z</time>
      </trkpt>
      <trkpt lat="43.298546" lon="-2.2685053">
        <ele>26993.0</ele>
        <time>2020-09-05T11:36:14Z</time>
      </trkpt>
      <trkpt lat="43.29854" lon="-2.2684317">
        <ele>26993.0</ele>
        <time>2020-09-05T11:36:21Z</time>
      </trkpt>
      <trkpt lat="43.29853" lon="-2.2683682">
        <ele>26993.0</ele>
        <time>2020-09-05T11:36:30Z</time>
      </trkpt>
      <trkpt lat="43.298546" lon="-2.2681568">
        <ele>26993.0</ele>
        <time>2020-09-05T11:38:29Z</time>
      </trkpt>
      <trkpt lat="43.29854" lon="-2.2680726">
        <ele>26993.0</ele>
        <time>2020-09-05T11:38:36Z</time>
      </trkpt>
      <trkpt lat="43.298546" lon="-2.2679935">
        <ele>25729.0</ele>
        <time>2020-09-05T11:38:41Z</time>
      </trkpt>
      <trkpt lat="43.29856" lon="-2.267914">
        <ele>25065.0</ele>
        <time>2020-09-05T11:38:46Z</time>
      </trkpt>
      <trkpt lat="43.29857" lon="-2.2678366">
        <ele>24665.0</ele>
        <time>2020-09-05T11:38:53Z</time>
      </trkpt>
      <trkpt lat="43.29857" lon="-2.2677712">
        <ele>24256.0</ele>
        <time>2020-09-05T11:39:05Z</time>
      </trkpt>
      <trkpt lat="43.29857" lon="-2.2676923">
        <ele>24138.0</ele>
        <time>2020-09-05T11:39:11Z</time>
      </trkpt>
      <trkpt lat="43.29858" lon="-2.2676184">
        <ele>24011.0</ele>
        <time>2020-09-05T11:39:16Z</time>
      </trkpt>
      <trkpt lat="43.298584" lon="-2.2675557">
        <ele>24011.0</ele>
        <time>2020-09-05T11:39:21Z</time>
      </trkpt>
      <trkpt lat="43.298584" lon="-2.2674806">
        <ele>24011.0</ele>
        <time>2020-09-05T11:39:27Z</time>
      </trkpt>
      <trkpt lat="43.298584" lon="-2.26739">
        <ele>23893.0</ele>
        <time>2020-09-05T11:39:33Z</time>
      </trkpt>
      <trkpt lat="43.29859" lon="-2.2673144">
        <ele>23893.0</ele>
        <time>2020-09-05T11:39:38Z</time>
      </trkpt>
      <trkpt lat="43.298584" lon="-2.2672462">
        <ele>23774.0</ele>
        <time>2020-09-05T11:39:43Z</time>
      </trkpt>
      <trkpt lat="43.29858" lon="-2.2671843">
        <ele>23774.0</ele>
        <time>2020-09-05T11:39:50Z</time>
      </trkpt>
      <trkpt lat="43.2986" lon="-2.267104">
        <ele>23656.0</ele>
        <time>2020-09-05T11:39:59Z</time>
      </trkpt>
      <trkpt lat="43.298584" lon="-2.2670274">
        <ele>23656.0</ele>
        <time>2020-09-05T11:40:05Z</time>
      </trkpt>
      <trkpt lat="43.298576" lon="-2.2669547">
        <ele>23656.0</ele>
        <time>2020-09-05T11:40:11Z</time>
      </trkpt>
      <trkpt lat="43.298607" lon="-2.266926">
        <ele>23538.0</ele>
        <time>2020-09-05T11:40:21Z</time>
      </trkpt>
      <trkpt lat="43.29865" lon="-2.2670143">
        <ele>23538.0</ele>
        <time>2020-09-05T11:40:39Z</time>
      </trkpt>
      <trkpt lat="43.29868" lon="-2.2670972">
        <ele>23811.0</ele>
        <time>2020-09-05T11:40:47Z</time>
      </trkpt>
      <trkpt lat="43.29871" lon="-2.2671497">
        <ele>23947.0</ele>
        <time>2020-09-05T11:40:53Z</time>
      </trkpt>
      <trkpt lat="43.298744" lon="-2.267206">
        <ele>24202.0</ele>
        <time>2020-09-05T11:41:02Z</time>
      </trkpt>
      <trkpt lat="43.29878" lon="-2.2672577">
        <ele>24320.0</ele>
        <time>2020-09-05T11:41:08Z</time>
      </trkpt>
      <trkpt lat="43.29881" lon="-2.2673066">
        <ele>24556.0</ele>
        <time>2020-09-05T11:41:13Z</time>
      </trkpt>
      <trkpt lat="43.29885" lon="-2.2673664">
        <ele>24674.0</ele>
        <time>2020-09-05T11:41:19Z</time>
      </trkpt>
      <trkpt lat="43.29889" lon="-2.267416">
        <ele>24929.0</ele>
        <time>2020-09-05T11:41:24Z</time>
      </trkpt>
      <trkpt lat="43.298912" lon="-2.2674813">
        <ele>25056.0</ele>
        <time>2020-09-05T11:41:29Z</time>
      </trkpt>
      <trkpt lat="43.298943" lon="-2.2675393">
        <ele>25056.0</ele>
        <time>2020-09-05T11:41:34Z</time>
      </trkpt>
      <trkpt lat="43.298973" lon="-2.2675943">
        <ele>24929.0</ele>
        <time>2020-09-05T11:41:40Z</time>
      </trkpt>
      <trkpt lat="43.299" lon="-2.2676628">
        <ele>24811.0</ele>
        <time>2020-09-05T11:41:47Z</time>
      </trkpt>
      <trkpt lat="43.299015" lon="-2.267725">
        <ele>24965.0</ele>
        <time>2020-09-05T11:41:53Z</time>
      </trkpt>
      <trkpt lat="43.299053" lon="-2.267772">
        <ele>25247.0</ele>
        <time>2020-09-05T11:41:59Z</time>
      </trkpt>
      <trkpt lat="43.299114" lon="-2.2677753">
        <ele>25493.0</ele>
        <time>2020-09-05T11:42:06Z</time>
      </trkpt>
      <trkpt lat="43.299133" lon="-2.26771">
        <ele>25620.0</ele>
        <time>2020-09-05T11:42:12Z</time>
      </trkpt>
      <trkpt lat="43.299133" lon="-2.267625">
        <ele>25620.0</ele>
        <time>2020-09-05T11:42:18Z</time>
      </trkpt>
      <trkpt lat="43.29912" lon="-2.2675574">
        <ele>25738.0</ele>
        <time>2020-09-05T11:42:22Z</time>
      </trkpt>
      <trkpt lat="43.299118" lon="-2.2674854">
        <ele>25738.0</ele>
        <time>2020-09-05T11:42:26Z</time>
      </trkpt>
      <trkpt lat="43.299114" lon="-2.267408">
        <ele>25738.0</ele>
        <time>2020-09-05T11:42:31Z</time>
      </trkpt>
      <trkpt lat="43.299107" lon="-2.2673364">
        <ele>25738.0</ele>
        <time>2020-09-05T11:42:37Z</time>
      </trkpt>
      <trkpt lat="43.299118" lon="-2.2672727">
        <ele>25738.0</ele>
        <time>2020-09-05T11:42:44Z</time>
      </trkpt>
      <trkpt lat="43.299175" lon="-2.2672307">
        <ele>25856.0</ele>
        <time>2020-09-05T11:42:52Z</time>
      </trkpt>
      <trkpt lat="43.29922" lon="-2.2672126">
        <ele>25974.0</ele>
        <time>2020-09-05T11:42:57Z</time>
      </trkpt>
      <trkpt lat="43.299347" lon="-2.2672358">
        <ele>25974.0</ele>
        <time>2020-09-05T11:46:13Z</time>
      </trkpt>
      <trkpt lat="43.2994" lon="-2.2672663">
        <ele>25974.0</ele>
        <time>2020-09-05T11:46:20Z</time>
      </trkpt>
      <trkpt lat="43.299458" lon="-2.2673004">
        <ele>23047.0</ele>
        <time>2020-09-05T11:46:26Z</time>
      </trkpt>
      <trkpt lat="43.299496" lon="-2.2673407">
        <ele>17065.0</ele>
        <time>2020-09-05T11:46:31Z</time>
      </trkpt>
      <trkpt lat="43.29955" lon="-2.267376">
        <ele>16574.0</ele>
        <time>2020-09-05T11:46:36Z</time>
      </trkpt>
      <trkpt lat="43.2996" lon="-2.2674146">
        <ele>16429.0</ele>
        <time>2020-09-05T11:46:42Z</time>
      </trkpt>
      <trkpt lat="43.29964" lon="-2.2674623">
        <ele>16429.0</ele>
        <time>2020-09-05T11:46:47Z</time>
      </trkpt>
      <trkpt lat="43.299683" lon="-2.2675233">
        <ele>16429.0</ele>
        <time>2020-09-05T11:46:52Z</time>
      </trkpt>
      <trkpt lat="43.299713" lon="-2.2675803">
        <ele>16429.0</ele>
        <time>2020-09-05T11:46:57Z</time>
      </trkpt>
      <trkpt lat="43.299732" lon="-2.2676444">
        <ele>16284.0</ele>
        <time>2020-09-05T11:47:02Z</time>
      </trkpt>
      <trkpt lat="43.299763" lon="-2.2677143">
        <ele>16284.0</ele>
        <time>2020-09-05T11:47:08Z</time>
      </trkpt>
      <trkpt lat="43.29978" lon="-2.2677534">
        <ele>16402.0</ele>
        <time>2020-09-05T11:47:22Z</time>
      </trkpt>
      <trkpt lat="43.299885" lon="-2.2675567">
        <ele>16402.0</ele>
        <time>2020-09-05T11:49:09Z</time>
      </trkpt>
      <trkpt lat="43.299877" lon="-2.2675147">
        <ele>16402.0</ele>
        <time>2020-09-05T11:49:14Z</time>
      </trkpt>
      <trkpt lat="43.299866" lon="-2.267448">
        <ele>17138.0</ele>
        <time>2020-09-05T11:49:20Z</time>
      </trkpt>
      <trkpt lat="43.299877" lon="-2.2673807">
        <ele>18938.0</ele>
        <time>2020-09-05T11:49:28Z</time>
      </trkpt>
      <trkpt lat="43.29988" lon="-2.2673004">
        <ele>19338.0</ele>
        <time>2020-09-05T11:49:36Z</time>
      </trkpt>
      <trkpt lat="43.299885" lon="-2.2672346">
        <ele>19465.0</ele>
        <time>2020-09-05T11:49:42Z</time>
      </trkpt>
      <trkpt lat="43.299885" lon="-2.267163">
        <ele>19584.0</ele>
        <time>2020-09-05T11:49:49Z</time>
      </trkpt>
      <trkpt lat="43.2999" lon="-2.2670817">
        <ele>19865.0</ele>
        <time>2020-09-05T11:49:57Z</time>
      </trkpt>
      <trkpt lat="43.29994" lon="-2.2670183">
        <ele>20174.0</ele>
        <time>2020-09-05T11:50:03Z</time>
      </trkpt>
      <trkpt lat="43.29996" lon="-2.266954">
        <ele>20447.0</ele>
        <time>2020-09-05T11:50:09Z</time>
      </trkpt>
      <trkpt lat="43.29996" lon="-2.266886">
        <ele>20693.0</ele>
        <time>2020-09-05T11:50:15Z</time>
      </trkpt>
      <trkpt lat="43.29996" lon="-2.266805">
        <ele>20947.0</ele>
        <time>2020-09-05T11:50:22Z</time>
      </trkpt>
      <trkpt lat="43.299946" lon="-2.2667406">
        <ele>20947.0</ele>
        <time>2020-09-05T11:50:27Z</time>
      </trkpt>
      <trkpt lat="43.299927" lon="-2.2666624">
        <ele>21074.0</ele>
        <time>2020-09-05T11:50:34Z</time>
      </trkpt>
      <trkpt lat="43.299915" lon="-2.2665863">
        <ele>21193.0</ele>
        <time>2020-09-05T11:50:39Z</time>
      </trkpt>
      <trkpt lat="43.2999" lon="-2.2665246">
        <ele>21329.0</ele>
        <time>2020-09-05T11:50:43Z</time>
      </trkpt>
      <trkpt lat="43.299885" lon="-2.266441">
        <ele>21456.0</ele>
        <time>2020-09-05T11:50:48Z</time>
      </trkpt>
      <trkpt lat="43.29987" lon="-2.266368">
        <ele>21456.0</ele>
        <time>2020-09-05T11:50:53Z</time>
      </trkpt>
      <trkpt lat="43.299862" lon="-2.2662904">
        <ele>21584.0</ele>
        <time>2020-09-05T11:50:58Z</time>
      </trkpt>
      <trkpt lat="43.299854" lon="-2.2662137">
        <ele>21702.0</ele>
        <time>2020-09-05T11:51:03Z</time>
      </trkpt>
      <trkpt lat="43.29985" lon="-2.2661502">
        <ele>21838.0</ele>
        <time>2020-09-05T11:51:07Z</time>
      </trkpt>
      <trkpt lat="43.29983" lon="-2.2660747">
        <ele>21974.0</ele>
        <time>2020-09-05T11:51:14Z</time>
      </trkpt>
      <trkpt lat="43.299816" lon="-2.2660062">
        <ele>22111.0</ele>
        <time>2020-09-05T11:51:19Z</time>
      </trkpt>
      <trkpt lat="43.29981" lon="-2.2659416">
        <ele>22229.0</ele>
        <time>2020-09-05T11:51:26Z</time>
      </trkpt>
      <trkpt lat="43.29978" lon="-2.2658684">
        <ele>22520.0</ele>
        <time>2020-09-05T11:51:33Z</time>
      </trkpt>
      <trkpt lat="43.299763" lon="-2.265802">
        <ele>22784.0</ele>
        <time>2020-09-05T11:51:38Z</time>
      </trkpt>
      <trkpt lat="43.299747" lon="-2.26572">
        <ele>23056.0</ele>
        <time>2020-09-05T11:51:44Z</time>
      </trkpt>
      <trkpt lat="43.299744" lon="-2.2656407">
        <ele>23356.0</ele>
        <time>2020-09-05T11:51:50Z</time>
      </trkpt>
      <trkpt lat="43.299732" lon="-2.2655613">
        <ele>23511.0</ele>
        <time>2020-09-05T11:51:55Z</time>
      </trkpt>
      <trkpt lat="43.299713" lon="-2.2654858">
        <ele>23793.0</ele>
        <time>2020-09-05T11:52:00Z</time>
      </trkpt>
      <trkpt lat="43.299698" lon="-2.265411">
        <ele>23911.0</ele>
        <time>2020-09-05T11:52:05Z</time>
      </trkpt>
      <trkpt lat="43.29969" lon="-2.2653422">
        <ele>24056.0</ele>
        <time>2020-09-05T11:52:10Z</time>
      </trkpt>
      <trkpt lat="43.299683" lon="-2.2652676">
        <ele>24184.0</ele>
        <time>2020-09-05T11:52:15Z</time>
      </trkpt>
      <trkpt lat="43.299667" lon="-2.2651973">
        <ele>24302.0</ele>
        <time>2020-09-05T11:52:19Z</time>
      </trkpt>
      <trkpt lat="43.299644" lon="-2.2651236">
        <ele>24420.0</ele>
        <time>2020-09-05T11:52:24Z</time>
      </trkpt>
      <trkpt lat="43.29963" lon="-2.265058">
        <ele>24556.0</ele>
        <time>2020-09-05T11:52:28Z</time>
      </trkpt>
      <trkpt lat="43.299606" lon="-2.2649977">
        <ele>24556.0</ele>
        <time>2020-09-05T11:52:32Z</time>
      </trkpt>
      <trkpt lat="43.299595" lon="-2.264924">
        <ele>24802.0</ele>
        <time>2020-09-05T11:52:40Z</time>
      </trkpt>
      <trkpt lat="43.299572" lon="-2.2648513">
        <ele>24920.0</ele>
        <time>2020-09-05T11:52:46Z</time>
      </trkpt>
      <trkpt lat="43.29955" lon="-2.2647834">
        <ele>24920.0</ele>
        <time>2020-09-05T11:52:51Z</time>
      </trkpt>
      <trkpt lat="43.299526" lon="-2.264724">
        <ele>25038.0</ele>
        <time>2020-09-05T11:52:56Z</time>
      </trkpt>
      <trkpt lat="43.29951" lon="-2.264647">
        <ele>25038.0</ele>
        <time>2020-09-05T11:53:01Z</time>
      </trkpt>
      <trkpt lat="43.299496" lon="-2.264574">
        <ele>25165.0</ele>
        <time>2020-09-05T11:53:06Z</time>
      </trkpt>
      <trkpt lat="43.29948" lon="-2.264504">
        <ele>25165.0</ele>
        <time>2020-09-05T11:53:11Z</time>
      </trkpt>
      <trkpt lat="43.299465" lon="-2.264421">
        <ele>4069.0</ele>
        <time>2020-09-05T11:53:16Z</time>
      </trkpt>
      <trkpt lat="43.299446" lon="-2.2643447">
        <ele>4187.0</ele>
        <time>2020-09-05T11:53:21Z</time>
      </trkpt>
      <trkpt lat="43.29943" lon="-2.2642813">
        <ele>4187.0</ele>
        <time>2020-09-05T11:53:25Z</time>
      </trkpt>
      <trkpt lat="43.29942" lon="-2.2641983">
        <ele>4187.0</ele>
        <time>2020-09-05T11:53:30Z</time>
      </trkpt>
      <trkpt lat="43.299427" lon="-2.2641196">
        <ele>4187.0</ele>
        <time>2020-09-05T11:53:35Z</time>
      </trkpt>
      <trkpt lat="43.299446" lon="-2.264049">
        <ele>4187.0</ele>
        <time>2020-09-05T11:53:40Z</time>
      </trkpt>
      <trkpt lat="43.299458" lon="-2.2639706">
        <ele>4305.0</ele>
        <time>2020-09-05T11:53:46Z</time>
      </trkpt>
      <trkpt lat="43.29946" lon="-2.2638993">
        <ele>4305.0</ele>
        <time>2020-09-05T11:53:51Z</time>
      </trkpt>
      <trkpt lat="43.299458" lon="-2.2638204">
        <ele>4305.0</ele>
        <time>2020-09-05T11:53:57Z</time>
      </trkpt>
      <trkpt lat="43.299442" lon="-2.263742">
        <ele>4178.0</ele>
        <time>2020-09-05T11:54:02Z</time>
      </trkpt>
      <trkpt lat="43.299427" lon="-2.263663">
        <ele>4051.0</ele>
        <time>2020-09-05T11:54:07Z</time>
      </trkpt>
      <trkpt lat="43.29941" lon="-2.2635963">
        <ele>3905.0</ele>
        <time>2020-09-05T11:54:11Z</time>
      </trkpt>
      <trkpt lat="43.2994" lon="-2.263519">
        <ele>3769.0</ele>
        <time>2020-09-05T11:54:16Z</time>
      </trkpt>
      <trkpt lat="43.299385" lon="-2.263443">
        <ele>3369.0</ele>
        <time>2020-09-05T11:54:24Z</time>
      </trkpt>
      <trkpt lat="43.299362" lon="-2.2633808">
        <ele>3205.0</ele>
        <time>2020-09-05T11:54:29Z</time>
      </trkpt>
      <trkpt lat="43.29933" lon="-2.2633214">
        <ele>2942.0</ele>
        <time>2020-09-05T11:54:34Z</time>
      </trkpt>
      <trkpt lat="43.29931" lon="-2.2632394">
        <ele>2669.0</ele>
        <time>2020-09-05T11:54:41Z</time>
      </trkpt>
      <trkpt lat="43.299286" lon="-2.2631648">
        <ele>2542.0</ele>
        <time>2020-09-05T11:54:46Z</time>
      </trkpt>
      <trkpt lat="43.29928" lon="-2.263098">
        <ele>2424.0</ele>
        <time>2020-09-05T11:54:51Z</time>
      </trkpt>
      <trkpt lat="43.299263" lon="-2.2630308">
        <ele>2424.0</ele>
        <time>2020-09-05T11:54:58Z</time>
      </trkpt>
      <trkpt lat="43.299232" lon="-2.2629473">
        <ele>2151.0</ele>
        <time>2020-09-05T11:55:04Z</time>
      </trkpt>
      <trkpt lat="43.29921" lon="-2.2628727">
        <ele>2024.0</ele>
        <time>2020-09-05T11:55:10Z</time>
      </trkpt>
      <trkpt lat="43.299194" lon="-2.2627964">
        <ele>1769.0</ele>
        <time>2020-09-05T11:55:15Z</time>
      </trkpt>
      <trkpt lat="43.299168" lon="-2.2627244">
        <ele>1514.0</ele>
        <time>2020-09-05T11:55:20Z</time>
      </trkpt>
      <trkpt lat="43.29915" lon="-2.2626565">
        <ele>1378.0</ele>
        <time>2020-09-05T11:55:25Z</time>
      </trkpt>
      <trkpt lat="43.29912" lon="-2.2626">
        <ele>1133.0</ele>
        <time>2020-09-05T11:55:30Z</time>
      </trkpt>
      <trkpt lat="43.299118" lon="-2.262523">
        <ele>996.0</ele>
        <time>2020-09-05T11:55:35Z</time>
      </trkpt>
      <trkpt lat="43.299114" lon="-2.2624476">
        <ele>869.0</ele>
        <time>2020-09-05T11:55:40Z</time>
      </trkpt>
      <trkpt lat="43.29909" lon="-2.2623703">
        <ele>751.0</ele>
        <time>2020-09-05T11:55:46Z</time>
      </trkpt>
      <trkpt lat="43.299076" lon="-2.2623112">
        <ele>624.0</ele>
        <time>2020-09-05T11:55:50Z</time>
      </trkpt>
      <trkpt lat="43.29907" lon="-2.2622356">
        <ele>487.0</ele>
        <time>2020-09-05T11:55:55Z</time>
      </trkpt>
      <trkpt lat="43.299053" lon="-2.2621667">
        <ele>360.0</ele>
        <time>2020-09-05T11:56:00Z</time>
      </trkpt>
      <trkpt lat="43.299026" lon="-2.2620976">
        <ele>96.0</ele>
        <time>2020-09-05T11:56:16Z</time>
      </trkpt>
      <trkpt lat="43.299004" lon="-2.2620137">
        <ele>-21.0</ele>
        <time>2020-09-05T11:56:23Z</time>
      </trkpt>
      <trkpt lat="43.298973" lon="-2.2619467">
        <ele>-21.0</ele>
        <time>2020-09-05T11:56:28Z</time>
      </trkpt>
      <trkpt lat="43.298958" lon="-2.2618783">
        <ele>-21.0</ele>
        <time>2020-09-05T11:56:33Z</time>
      </trkpt>
      <trkpt lat="43.29894" lon="-2.261815">
        <ele>-21.0</ele>
        <time>2020-09-05T11:56:37Z</time>
      </trkpt>
      <trkpt lat="43.298927" lon="-2.26175">
        <ele>-139.0</ele>
        <time>2020-09-05T11:56:42Z</time>
      </trkpt>
      <trkpt lat="43.298912" lon="-2.2616744">
        <ele>-139.0</ele>
        <time>2020-09-05T11:56:48Z</time>
      </trkpt>
      <trkpt lat="43.298904" lon="-2.2615993">
        <ele>-139.0</ele>
        <time>2020-09-05T11:56:53Z</time>
      </trkpt>
      <trkpt lat="43.298904" lon="-2.2615247">
        <ele>-139.0</ele>
        <time>2020-09-05T11:56:58Z</time>
      </trkpt>
      <trkpt lat="43.29891" lon="-2.2614586">
        <ele>-139.0</ele>
        <time>2020-09-05T11:57:04Z</time>
      </trkpt>
      <trkpt lat="43.29892" lon="-2.2613916">
        <ele>-21.0</ele>
        <time>2020-09-05T11:57:10Z</time>
      </trkpt>
      <trkpt lat="43.298954" lon="-2.2613235">
        <ele>96.0</ele>
        <time>2020-09-05T11:57:19Z</time>
      </trkpt>
      <trkpt lat="43.298973" lon="-2.261264">
        <ele>214.0</ele>
        <time>2020-09-05T11:57:26Z</time>
      </trkpt>
      <trkpt lat="43.298985" lon="-2.2611907">
        <ele>342.0</ele>
        <time>2020-09-05T11:57:34Z</time>
      </trkpt>
      <trkpt lat="43.298985" lon="-2.2611177">
        <ele>469.0</ele>
        <time>2020-09-05T11:57:39Z</time>
      </trkpt>
      <trkpt lat="43.299004" lon="-2.2610447">
        <ele>469.0</ele>
        <time>2020-09-05T11:57:45Z</time>
      </trkpt>
      <trkpt lat="43.29901" lon="-2.2609932">
        <ele>469.0</ele>
        <time>2020-09-05T11:57:54Z</time>
      </trkpt>
      <trkpt lat="43.299023" lon="-2.26098">
        <ele>469.0</ele>
        <time>2020-09-05T12:20:11Z</time>
      </trkpt>
      <trkpt lat="43.29904" lon="-2.2609568">
        <ele>469.0</ele>
        <time>2020-09-05T12:25:56Z</time>
      </trkpt>
      <trkpt lat="43.298817" lon="-2.2607718">
        <ele>324.0</ele>
        <time>2020-09-05T12:30:06Z</time>
      </trkpt>
      <trkpt lat="43.298817" lon="-2.2607684">
        <ele>324.0</ele>
        <time>2020-09-05T12:30:07Z</time>
      </trkpt>
      <trkpt lat="43.298786" lon="-2.2606986">
        <ele>324.0</ele>
        <time>2020-09-05T12:30:16Z</time>
      </trkpt>
      <trkpt lat="43.29876" lon="-2.2606373">
        <ele>-2803.0</ele>
        <time>2020-09-05T12:30:23Z</time>
      </trkpt>
      <trkpt lat="43.298756" lon="-2.2605617">
        <ele>-3421.0</ele>
        <time>2020-09-05T12:30:30Z</time>
      </trkpt>
      <trkpt lat="43.298733" lon="-2.260496">
        <ele>-3730.0</ele>
        <time>2020-09-05T12:30:38Z</time>
      </trkpt>
      <trkpt lat="43.298717" lon="-2.2604206">
        <ele>-4121.0</ele>
        <time>2020-09-05T12:30:47Z</time>
      </trkpt>
      <trkpt lat="43.298702" lon="-2.2603543">
        <ele>-4366.0</ele>
        <time>2020-09-05T12:30:54Z</time>
      </trkpt>
      <trkpt lat="43.298695" lon="-2.260282">
        <ele>-4503.0</ele>
        <time>2020-09-05T12:31:02Z</time>
      </trkpt>
      <trkpt lat="43.298668" lon="-2.2602267">
        <ele>-4748.0</ele>
        <time>2020-09-05T12:31:16Z</time>
      </trkpt>
      <trkpt lat="43.298653" lon="-2.2601566">
        <ele>-4748.0</ele>
        <time>2020-09-05T12:31:24Z</time>
      </trkpt>
      <trkpt lat="43.298637" lon="-2.2600853">
        <ele>-4748.0</ele>
        <time>2020-09-05T12:31:31Z</time>
      </trkpt>
      <trkpt lat="43.298622" lon="-2.260006">
        <ele>-4630.0</ele>
        <time>2020-09-05T12:31:39Z</time>
      </trkpt>
      <trkpt lat="43.298615" lon="-2.259942">
        <ele>-4630.0</ele>
        <time>2020-09-05T12:31:45Z</time>
      </trkpt>
      <trkpt lat="43.29859" lon="-2.2598662">
        <ele>-4512.0</ele>
        <time>2020-09-05T12:31:52Z</time>
      </trkpt>
      <trkpt lat="43.298576" lon="-2.2598016">
        <ele>-4385.0</ele>
        <time>2020-09-05T12:31:58Z</time>
      </trkpt>
      <trkpt lat="43.29856" lon="-2.259731">
        <ele>-4266.0</ele>
        <time>2020-09-05T12:32:05Z</time>
      </trkpt>
      <trkpt lat="43.298546" lon="-2.2596507">
        <ele>-4130.0</ele>
        <time>2020-09-05T12:32:11Z</time>
      </trkpt>
      <trkpt lat="43.29853" lon="-2.2595747">
        <ele>-3994.0</ele>
        <time>2020-09-05T12:32:18Z</time>
      </trkpt>
      <trkpt lat="43.298523" lon="-2.2595043">
        <ele>-3730.0</ele>
        <time>2020-09-05T12:32:24Z</time>
      </trkpt>
      <trkpt lat="43.29853" lon="-2.2594283">
        <ele>-3594.0</ele>
        <time>2020-09-05T12:32:30Z</time>
      </trkpt>
      <trkpt lat="43.29852" lon="-2.259348">
        <ele>-3457.0</ele>
        <time>2020-09-05T12:32:36Z</time>
      </trkpt>
      <trkpt lat="43.298508" lon="-2.259288">
        <ele>-3175.0</ele>
        <time>2020-09-05T12:32:42Z</time>
      </trkpt>
      <trkpt lat="43.298492" lon="-2.2592123">
        <ele>-2939.0</ele>
        <time>2020-09-05T12:32:48Z</time>
      </trkpt>
      <trkpt lat="43.298477" lon="-2.2591414">
        <ele>-2803.0</ele>
        <time>2020-09-05T12:32:54Z</time>
      </trkpt>
      <trkpt lat="43.298454" lon="-2.259075">
        <ele>-2548.0</ele>
        <time>2020-09-05T12:33:01Z</time>
      </trkpt>
      <trkpt lat="43.298443" lon="-2.2589996">
        <ele>-2294.0</ele>
        <time>2020-09-05T12:33:08Z</time>
      </trkpt>
      <trkpt lat="43.29842" lon="-2.2589347">
        <ele>-1985.0</ele>
        <time>2020-09-05T12:33:15Z</time>
      </trkpt>
      <trkpt lat="43.298405" lon="-2.2588694">
        <ele>-1557.0</ele>
        <time>2020-09-05T12:33:22Z</time>
      </trkpt>
      <trkpt lat="43.29837" lon="-2.2588108">
        <ele>-1130.0</ele>
        <time>2020-09-05T12:33:32Z</time>
      </trkpt>
      <trkpt lat="43.29835" lon="-2.25874">
        <ele>-1012.0</ele>
        <time>2020-09-05T12:33:41Z</time>
      </trkpt>
      <trkpt lat="43.298306" lon="-2.2587087">
        <ele>-885.0</ele>
        <time>2020-09-05T12:33:49Z</time>
      </trkpt>
      <trkpt lat="43.29829" lon="-2.2586436">
        <ele>-1021.0</ele>
        <time>2020-09-05T12:33:55Z</time>
      </trkpt>
      <trkpt lat="43.298283" lon="-2.258565">
        <ele>-1139.0</ele>
        <time>2020-09-05T12:34:03Z</time>
      </trkpt>
      <trkpt lat="43.298264" lon="-2.2584877">
        <ele>-1394.0</ele>
        <time>2020-09-05T12:34:10Z</time>
      </trkpt>
      <trkpt lat="43.29824" lon="-2.258401">
        <ele>-1666.0</ele>
        <time>2020-09-05T12:34:17Z</time>
      </trkpt>
      <trkpt lat="43.298225" lon="-2.2583272">
        <ele>-2485.0</ele>
        <time>2020-09-05T12:34:24Z</time>
      </trkpt>
      <trkpt lat="43.29822" lon="-2.2582586">
        <ele>-2612.0</ele>
        <time>2020-09-05T12:34:32Z</time>
      </trkpt>
      <trkpt lat="43.29822" lon="-2.258182">
        <ele>-2612.0</ele>
        <time>2020-09-05T12:34:37Z</time>
      </trkpt>
      <trkpt lat="43.298218" lon="-2.2581096">
        <ele>-2612.0</ele>
        <time>2020-09-05T12:34:43Z</time>
      </trkpt>
      <trkpt lat="43.29821" lon="-2.2580323">
        <ele>-2730.0</ele>
        <time>2020-09-05T12:34:51Z</time>
      </trkpt>
      <trkpt lat="43.29821" lon="-2.2579603">
        <ele>-2866.0</ele>
        <time>2020-09-05T12:34:57Z</time>
      </trkpt>
      <trkpt lat="43.298218" lon="-2.2578967">
        <ele>-2866.0</ele>
        <time>2020-09-05T12:35:02Z</time>
      </trkpt>
      <trkpt lat="43.29821" lon="-2.257825">
        <ele>-2866.0</ele>
        <time>2020-09-05T12:35:10Z</time>
      </trkpt>
      <trkpt lat="43.298203" lon="-2.2577612">
        <ele>-2866.0</ele>
        <time>2020-09-05T12:35:16Z</time>
      </trkpt>
      <trkpt lat="43.298252" lon="-2.257735">
        <ele>-2866.0</ele>
        <time>2020-09-05T12:35:26Z</time>
      </trkpt>
      <trkpt lat="43.298264" lon="-2.2576814">
        <ele>-3075.0</ele>
        <time>2020-09-05T12:35:40Z</time>
      </trkpt>
      <trkpt lat="43.298252" lon="-2.25761">
        <ele>-3194.0</ele>
        <time>2020-09-05T12:35:47Z</time>
      </trkpt>
      <trkpt lat="43.298225" lon="-2.2575417">
        <ele>-3194.0</ele>
        <time>2020-09-05T12:35:55Z</time>
      </trkpt>
      <trkpt lat="43.29821" lon="-2.257466">
        <ele>-3194.0</ele>
        <time>2020-09-05T12:35:59Z</time>
      </trkpt>
      <trkpt lat="43.29821" lon="-2.257381">
        <ele>2892.0</ele>
        <time>2020-09-05T12:36:04Z</time>
      </trkpt>
      <trkpt lat="43.298206" lon="-2.2573137">
        <ele>2774.0</ele>
        <time>2020-09-05T12:36:09Z</time>
      </trkpt>
      <trkpt lat="43.298237" lon="-2.2572584">
        <ele>2637.0</ele>
        <time>2020-09-05T12:36:16Z</time>
      </trkpt>
      <trkpt lat="43.29828" lon="-2.2571893">
        <ele>2519.0</ele>
        <time>2020-09-05T12:36:23Z</time>
      </trkpt>
      <trkpt lat="43.29832" lon="-2.2571588">
        <ele>2519.0</ele>
        <time>2020-09-05T12:36:29Z</time>
      </trkpt>
      <trkpt lat="43.29829" lon="-2.2571263">
        <ele>2246.0</ele>
        <time>2020-09-05T12:36:41Z</time>
      </trkpt>
      <trkpt lat="43.29826" lon="-2.2570593">
        <ele>2128.0</ele>
        <time>2020-09-05T12:36:48Z</time>
      </trkpt>
      <trkpt lat="43.298233" lon="-2.2569857">
        <ele>2010.0</ele>
        <time>2020-09-05T12:36:52Z</time>
      </trkpt>
      <trkpt lat="43.29821" lon="-2.2569656">
        <ele>2010.0</ele>
        <time>2020-09-05T12:36:57Z</time>
      </trkpt>
      <trkpt lat="43.298172" lon="-2.2570317">
        <ele>1883.0</ele>
        <time>2020-09-05T12:37:07Z</time>
      </trkpt>
      <trkpt lat="43.29815" lon="-2.257028">
        <ele>1883.0</ele>
        <time>2020-09-05T12:37:11Z</time>
      </trkpt>
      <trkpt lat="43.298164" lon="-2.257094">
        <ele>1883.0</ele>
        <time>2020-09-05T12:37:17Z</time>
      </trkpt>
      <trkpt lat="43.29818" lon="-2.2571805">
        <ele>1883.0</ele>
        <time>2020-09-05T12:37:19Z</time>
      </trkpt>
      <trkpt lat="43.298195" lon="-2.257251">
        <ele>1883.0</ele>
        <time>2020-09-05T12:37:21Z</time>
      </trkpt>
      <trkpt lat="43.29821" lon="-2.2573094">
        <ele>1883.0</ele>
        <time>2020-09-05T12:37:24Z</time>
      </trkpt>
      <trkpt lat="43.29824" lon="-2.2572927">
        <ele>1883.0</ele>
        <time>2020-09-05T12:37:30Z</time>
      </trkpt>
      <trkpt lat="43.29826" lon="-2.2572308">
        <ele>1728.0</ele>
        <time>2020-09-05T12:37:51Z</time>
      </trkpt>
      <trkpt lat="43.29835" lon="-2.257052">
        <ele>610.0</ele>
        <time>2020-09-05T12:41:13Z</time>
      </trkpt>
      <trkpt lat="43.297916" lon="-2.2564516">
        <ele>610.0</ele>
        <time>2020-09-05T12:59:43Z</time>
      </trkpt>
      <trkpt lat="43.29791" lon="-2.2564573">
        <ele>610.0</ele>
        <time>2020-09-05T12:59:47Z</time>
      </trkpt>
      <trkpt lat="43.297848" lon="-2.25644">
        <ele>319.0</ele>
        <time>2020-09-05T12:59:53Z</time>
      </trkpt>
      <trkpt lat="43.29779" lon="-2.256421">
        <ele>201.0</ele>
        <time>2020-09-05T12:59:58Z</time>
      </trkpt>
      <trkpt lat="43.297752" lon="-2.2564">
        <ele>201.0</ele>
        <time>2020-09-05T13:00:02Z</time>
      </trkpt>
      <trkpt lat="43.297714" lon="-2.256339">
        <ele>74.0</ele>
        <time>2020-09-05T13:00:08Z</time>
      </trkpt>
      <trkpt lat="43.2977" lon="-2.2562587">
        <ele>74.0</ele>
        <time>2020-09-05T13:00:13Z</time>
      </trkpt>
      <trkpt lat="43.297657" lon="-2.2561862">
        <ele>474.0</ele>
        <time>2020-09-05T13:00:27Z</time>
      </trkpt>
      <trkpt lat="43.297634" lon="-2.2561224">
        <ele>628.0</ele>
        <time>2020-09-05T13:00:32Z</time>
      </trkpt>
      <trkpt lat="43.297607" lon="-2.256048">
        <ele>874.0</ele>
        <time>2020-09-05T13:00:37Z</time>
      </trkpt>
      <trkpt lat="43.297596" lon="-2.2559896">
        <ele>1019.0</ele>
        <time>2020-09-05T13:00:42Z</time>
      </trkpt>
      <trkpt lat="43.29759" lon="-2.2559147">
        <ele>1019.0</ele>
        <time>2020-09-05T13:00:49Z</time>
      </trkpt>
      <trkpt lat="43.297558" lon="-2.2558453">
        <ele>1019.0</ele>
        <time>2020-09-05T13:00:55Z</time>
      </trkpt>
      <trkpt lat="43.297512" lon="-2.2557967">
        <ele>892.0</ele>
        <time>2020-09-05T13:01:00Z</time>
      </trkpt>
      <trkpt lat="43.297455" lon="-2.2557693">
        <ele>892.0</ele>
        <time>2020-09-05T13:01:05Z</time>
      </trkpt>
      <trkpt lat="43.2974" lon="-2.255766">
        <ele>774.0</ele>
        <time>2020-09-05T13:01:10Z</time>
      </trkpt>
      <trkpt lat="43.297348" lon="-2.2557707">
        <ele>492.0</ele>
        <time>2020-09-05T13:01:16Z</time>
      </trkpt>
      <trkpt lat="43.297302" lon="-2.2557883">
        <ele>201.0</ele>
        <time>2020-09-05T13:01:21Z</time>
      </trkpt>
      <trkpt lat="43.29725" lon="-2.2558048">
        <ele>37.0</ele>
        <time>2020-09-05T13:01:26Z</time>
      </trkpt>
      <trkpt lat="43.29719" lon="-2.255823">
        <ele>-343.0</ele>
        <time>2020-09-05T13:01:31Z</time>
      </trkpt>
      <trkpt lat="43.29714" lon="-2.2558327">
        <ele>-589.0</ele>
        <time>2020-09-05T13:01:36Z</time>
      </trkpt>
      <trkpt lat="43.297092" lon="-2.2558467">
        <ele>-1016.0</ele>
        <time>2020-09-05T13:01:42Z</time>
      </trkpt>
      <trkpt lat="43.297043" lon="-2.255798">
        <ele>-1334.0</ele>
        <time>2020-09-05T13:01:49Z</time>
      </trkpt>
      <trkpt lat="43.296993" lon="-2.2557497">
        <ele>-1462.0</ele>
        <time>2020-09-05T13:01:53Z</time>
      </trkpt>
      <trkpt lat="43.296944" lon="-2.2557487">
        <ele>-1462.0</ele>
        <time>2020-09-05T13:01:57Z</time>
      </trkpt>
      <trkpt lat="43.296898" lon="-2.255777">
        <ele>-1707.0</ele>
        <time>2020-09-05T13:02:01Z</time>
      </trkpt>
      <trkpt lat="43.29685" lon="-2.255835">
        <ele>-1843.0</ele>
        <time>2020-09-05T13:02:07Z</time>
      </trkpt>
      <trkpt lat="43.296803" lon="-2.2558994">
        <ele>-2116.0</ele>
        <time>2020-09-05T13:02:13Z</time>
      </trkpt>
      <trkpt lat="43.296764" lon="-2.2559586">
        <ele>-2398.0</ele>
        <time>2020-09-05T13:02:18Z</time>
      </trkpt>
      <trkpt lat="43.29672" lon="-2.2560184">
        <ele>-2534.0</ele>
        <time>2020-09-05T13:02:23Z</time>
      </trkpt>
      <trkpt lat="43.296684" lon="-2.2560706">
        <ele>-2689.0</ele>
        <time>2020-09-05T13:02:27Z</time>
      </trkpt>
      <trkpt lat="43.296646" lon="-2.256127">
        <ele>-2952.0</ele>
        <time>2020-09-05T13:02:32Z</time>
      </trkpt>
      <trkpt lat="43.296608" lon="-2.2561674">
        <ele>-3216.0</ele>
        <time>2020-09-05T13:02:36Z</time>
      </trkpt>
      <trkpt lat="43.29657" lon="-2.2562144">
        <ele>-3480.0</ele>
        <time>2020-09-05T13:02:43Z</time>
      </trkpt>
      <trkpt lat="43.296524" lon="-2.256262">
        <ele>-3898.0</ele>
        <time>2020-09-05T13:02:49Z</time>
      </trkpt>
      <trkpt lat="43.296474" lon="-2.2563167">
        <ele>-4189.0</ele>
        <time>2020-09-05T13:02:55Z</time>
      </trkpt>
      <trkpt lat="43.29643" lon="-2.2563608">
        <ele>-4352.0</ele>
        <time>2020-09-05T13:03:00Z</time>
      </trkpt>
      <trkpt lat="43.29639" lon="-2.256413">
        <ele>-4616.0</ele>
        <time>2020-09-05T13:03:05Z</time>
      </trkpt>
      <trkpt lat="43.29635" lon="-2.2564626">
        <ele>-4925.0</ele>
        <time>2020-09-05T13:03:10Z</time>
      </trkpt>
      <trkpt lat="43.296307" lon="-2.2565053">
        <ele>-5216.0</ele>
        <time>2020-09-05T13:03:15Z</time>
      </trkpt>
      <trkpt lat="43.296272" lon="-2.25655">
        <ele>-5671.0</ele>
        <time>2020-09-05T13:03:23Z</time>
      </trkpt>
      <trkpt lat="43.296215" lon="-2.2565444">
        <ele>-5934.0</ele>
        <time>2020-09-05T13:03:32Z</time>
      </trkpt>
      <trkpt lat="43.29618" lon="-2.256507">
        <ele>-5934.0</ele>
        <time>2020-09-05T13:03:38Z</time>
      </trkpt>
      <trkpt lat="43.296124" lon="-2.2564616">
        <ele>-5934.0</ele>
        <time>2020-09-05T13:03:44Z</time>
      </trkpt>
      <trkpt lat="43.29608" lon="-2.2564132">
        <ele>-5816.0</ele>
        <time>2020-09-05T13:03:49Z</time>
      </trkpt>
      <trkpt lat="43.296036" lon="-2.2563646">
        <ele>-5571.0</ele>
        <time>2020-09-05T13:03:57Z</time>
      </trkpt>
      <trkpt lat="43.29601" lon="-2.256298">
        <ele>-5434.0</ele>
        <time>2020-09-05T13:04:03Z</time>
      </trkpt>
      <trkpt lat="43.295963" lon="-2.256258">
        <ele>-5316.0</ele>
        <time>2020-09-05T13:04:10Z</time>
      </trkpt>
      <trkpt lat="43.295914" lon="-2.2562318">
        <ele>-5316.0</ele>
        <time>2020-09-05T13:04:15Z</time>
      </trkpt>
      <trkpt lat="43.295856" lon="-2.2561877">
        <ele>-5198.0</ele>
        <time>2020-09-05T13:04:20Z</time>
      </trkpt>
      <trkpt lat="43.295807" lon="-2.2561407">
        <ele>-5071.0</ele>
        <time>2020-09-05T13:04:26Z</time>
      </trkpt>
      <trkpt lat="43.29576" lon="-2.2560883">
        <ele>-4943.0</ele>
        <time>2020-09-05T13:04:31Z</time>
      </trkpt>
      <trkpt lat="43.295708" lon="-2.256049">
        <ele>-4807.0</ele>
        <time>2020-09-05T13:04:36Z</time>
      </trkpt>
      <trkpt lat="43.295666" lon="-2.2560046">
        <ele>-4807.0</ele>
        <time>2020-09-05T13:04:41Z</time>
      </trkpt>
      <trkpt lat="43.295628" lon="-2.2559524">
        <ele>-4807.0</ele>
        <time>2020-09-05T13:04:46Z</time>
      </trkpt>
      <trkpt lat="43.29558" lon="-2.2559123">
        <ele>-4943.0</ele>
        <time>2020-09-05T13:04:51Z</time>
      </trkpt>
      <trkpt lat="43.295532" lon="-2.255874">
        <ele>-5062.0</ele>
        <time>2020-09-05T13:04:56Z</time>
      </trkpt>
      <trkpt lat="43.295494" lon="-2.2558286">
        <ele>-5062.0</ele>
        <time>2020-09-05T13:05:01Z</time>
      </trkpt>
      <trkpt lat="43.295452" lon="-2.25578">
        <ele>-5062.0</ele>
        <time>2020-09-05T13:05:06Z</time>
      </trkpt>
      <trkpt lat="43.295403" lon="-2.2557383">
        <ele>-4943.0</ele>
        <time>2020-09-05T13:05:11Z</time>
      </trkpt>
      <trkpt lat="43.29535" lon="-2.255714">
        <ele>-4707.0</ele>
        <time>2020-09-05T13:05:16Z</time>
      </trkpt>
      <trkpt lat="43.29529" lon="-2.2556822">
        <ele>-4580.0</ele>
        <time>2020-09-05T13:05:21Z</time>
      </trkpt>
      <trkpt lat="43.295242" lon="-2.2556396">
        <ele>-4307.0</ele>
        <time>2020-09-05T13:05:27Z</time>
      </trkpt>
      <trkpt lat="43.2952" lon="-2.2555933">
        <ele>-4162.0</ele>
        <time>2020-09-05T13:05:32Z</time>
      </trkpt>
      <trkpt lat="43.295143" lon="-2.2555528">
        <ele>-3898.0</ele>
        <time>2020-09-05T13:05:37Z</time>
      </trkpt>
      <trkpt lat="43.29511" lon="-2.2555163">
        <ele>-3771.0</ele>
        <time>2020-09-05T13:05:41Z</time>
      </trkpt>
      <trkpt lat="43.295063" lon="-2.255468">
        <ele>-3489.0</ele>
        <time>2020-09-05T13:05:47Z</time>
      </trkpt>
      <trkpt lat="43.29503" lon="-2.2554247">
        <ele>-3098.0</ele>
        <time>2020-09-05T13:05:55Z</time>
      </trkpt>
      <trkpt lat="43.294983" lon="-2.255385">
        <ele>-2616.0</ele>
        <time>2020-09-05T13:06:07Z</time>
      </trkpt>
      <trkpt lat="43.29493" lon="-2.255352">
        <ele>-2380.0</ele>
        <time>2020-09-05T13:06:13Z</time>
      </trkpt>
      <trkpt lat="43.29488" lon="-2.2553043">
        <ele>-2080.0</ele>
        <time>2020-09-05T13:06:18Z</time>
      </trkpt>
      <trkpt lat="43.29485" lon="-2.2552526">
        <ele>-1934.0</ele>
        <time>2020-09-05T13:06:22Z</time>
      </trkpt>
      <trkpt lat="43.29481" lon="-2.2552192">
        <ele>-1662.0</ele>
        <time>2020-09-05T13:06:27Z</time>
      </trkpt>
      <trkpt lat="43.294765" lon="-2.2551434">
        <ele>-1098.0</ele>
        <time>2020-09-05T13:06:35Z</time>
      </trkpt>
      <trkpt lat="43.29473" lon="-2.2550843">
        <ele>-843.0</ele>
        <time>2020-09-05T13:06:40Z</time>
      </trkpt>
      <trkpt lat="43.294704" lon="-2.25502">
        <ele>-598.0</ele>
        <time>2020-09-05T13:06:44Z</time>
      </trkpt>
      <trkpt lat="43.294678" lon="-2.254959">
        <ele>-316.0</ele>
        <time>2020-09-05T13:06:48Z</time>
      </trkpt>
      <trkpt lat="43.294655" lon="-2.254896">
        <ele>-25.0</ele>
        <time>2020-09-05T13:06:53Z</time>
      </trkpt>
      <trkpt lat="43.29463" lon="-2.254832">
        <ele>401.0</ele>
        <time>2020-09-05T13:06:58Z</time>
      </trkpt>
      <trkpt lat="43.2946" lon="-2.2547634">
        <ele>728.0</ele>
        <time>2020-09-05T13:07:03Z</time>
      </trkpt>
      <trkpt lat="43.294582" lon="-2.2546856">
        <ele>1156.0</ele>
        <time>2020-09-05T13:07:09Z</time>
      </trkpt>
      <trkpt lat="43.294544" lon="-2.2546227">
        <ele>1565.0</ele>
        <time>2020-09-05T13:07:15Z</time>
      </trkpt>
      <trkpt lat="43.29452" lon="-2.254554">
        <ele>1901.0</ele>
        <time>2020-09-05T13:07:20Z</time>
      </trkpt>
      <trkpt lat="43.2945" lon="-2.2544923">
        <ele>2147.0</ele>
        <time>2020-09-05T13:07:24Z</time>
      </trkpt>
      <trkpt lat="43.29449" lon="-2.2544086">
        <ele>2301.0</ele>
        <time>2020-09-05T13:07:29Z</time>
      </trkpt>
      <trkpt lat="43.294476" lon="-2.2543283">
        <ele>2556.0</ele>
        <time>2020-09-05T13:07:35Z</time>
      </trkpt>
      <trkpt lat="43.29446" lon="-2.2542636">
        <ele>2828.0</ele>
        <time>2020-09-05T13:07:40Z</time>
      </trkpt>
      <trkpt lat="43.294445" lon="-2.2541893">
        <ele>2965.0</ele>
        <time>2020-09-05T13:07:46Z</time>
      </trkpt>
      <trkpt lat="43.29442" lon="-2.2541337">
        <ele>3092.0</ele>
        <time>2020-09-05T13:07:51Z</time>
      </trkpt>
      <trkpt lat="43.2944" lon="-2.2540708">
        <ele>3337.0</ele>
        <time>2020-09-05T13:07:57Z</time>
      </trkpt>
      <trkpt lat="43.294296" lon="-2.2538066">
        <ele>4010.0</ele>
        <time>2020-09-05T13:08:42Z</time>
      </trkpt>
      <trkpt lat="43.29429" lon="-2.253804">
        <ele>4010.0</ele>
        <time>2020-09-05T13:08:43Z</time>
      </trkpt>
      <trkpt lat="43.29425" lon="-2.253754">
        <ele>4128.0</ele>
        <time>2020-09-05T13:08:51Z</time>
      </trkpt>
      <trkpt lat="43.294197" lon="-2.253725">
        <ele>4828.0</ele>
        <time>2020-09-05T13:08:56Z</time>
      </trkpt>
      <trkpt lat="43.29414" lon="-2.2537057">
        <ele>5147.0</ele>
        <time>2020-09-05T13:09:01Z</time>
      </trkpt>
      <trkpt lat="43.294086" lon="-2.2536874">
        <ele>5265.0</ele>
        <time>2020-09-05T13:09:07Z</time>
      </trkpt>
      <trkpt lat="43.294025" lon="-2.253668">
        <ele>5410.0</ele>
        <time>2020-09-05T13:09:12Z</time>
      </trkpt>
      <trkpt lat="43.293976" lon="-2.2536554">
        <ele>5537.0</ele>
        <time>2020-09-05T13:09:16Z</time>
      </trkpt>
      <trkpt lat="43.293915" lon="-2.2536566">
        <ele>5683.0</ele>
        <time>2020-09-05T13:09:21Z</time>
      </trkpt>
      <trkpt lat="43.293865" lon="-2.253643">
        <ele>5810.0</ele>
        <time>2020-09-05T13:09:25Z</time>
      </trkpt>
      <trkpt lat="43.29382" lon="-2.2536736">
        <ele>5810.0</ele>
        <time>2020-09-05T13:09:30Z</time>
      </trkpt>
      <trkpt lat="43.293808" lon="-2.2537336">
        <ele>5810.0</ele>
        <time>2020-09-05T13:09:35Z</time>
      </trkpt>
      <trkpt lat="43.29375" lon="-2.2537422">
        <ele>5937.0</ele>
        <time>2020-09-05T13:09:45Z</time>
      </trkpt>
      <trkpt lat="43.293713" lon="-2.2536924">
        <ele>6101.0</ele>
        <time>2020-09-05T13:09:50Z</time>
      </trkpt>
      <trkpt lat="43.29369" lon="-2.2536314">
        <ele>6365.0</ele>
        <time>2020-09-05T13:09:55Z</time>
      </trkpt>
      <trkpt lat="43.293667" lon="-2.253566">
        <ele>6501.0</ele>
        <time>2020-09-05T13:10:00Z</time>
      </trkpt>
      <trkpt lat="43.293636" lon="-2.2535002">
        <ele>6737.0</ele>
        <time>2020-09-05T13:10:05Z</time>
      </trkpt>
      <trkpt lat="43.293602" lon="-2.253438">
        <ele>6910.0</ele>
        <time>2020-09-05T13:10:10Z</time>
      </trkpt>
      <trkpt lat="43.293556" lon="-2.2533913">
        <ele>7174.0</ele>
        <time>2020-09-05T13:10:15Z</time>
      </trkpt>
      <trkpt lat="43.293518" lon="-2.25336">
        <ele>7174.0</ele>
        <time>2020-09-05T13:10:19Z</time>
      </trkpt>
      <trkpt lat="43.293457" lon="-2.253348">
        <ele>7174.0</ele>
        <time>2020-09-05T13:10:25Z</time>
      </trkpt>
      <trkpt lat="43.293385" lon="-2.253338">
        <ele>7174.0</ele>
        <time>2020-09-05T13:10:30Z</time>
      </trkpt>
      <trkpt lat="43.293324" lon="-2.2533283">
        <ele>7056.0</ele>
        <time>2020-09-05T13:10:35Z</time>
      </trkpt>
      <trkpt lat="43.29327" lon="-2.2532997">
        <ele>6756.0</ele>
        <time>2020-09-05T13:10:39Z</time>
      </trkpt>
      <trkpt lat="43.293213" lon="-2.2532864">
        <ele>6201.0</ele>
        <time>2020-09-05T13:10:43Z</time>
      </trkpt>
      <trkpt lat="43.293163" lon="-2.253272">
        <ele>5819.0</ele>
        <time>2020-09-05T13:10:47Z</time>
      </trkpt>
      <trkpt lat="43.293114" lon="-2.2532628">
        <ele>5547.0</ele>
        <time>2020-09-05T13:10:52Z</time>
      </trkpt>
      <trkpt lat="43.293053" lon="-2.2532647">
        <ele>5419.0</ele>
        <time>2020-09-05T13:10:56Z</time>
      </trkpt>
      <trkpt lat="43.293003" lon="-2.2532694">
        <ele>5292.0</ele>
        <time>2020-09-05T13:11:00Z</time>
      </trkpt>
      <trkpt lat="43.29295" lon="-2.2532673">
        <ele>5147.0</ele>
        <time>2020-09-05T13:11:05Z</time>
      </trkpt>
      <trkpt lat="43.29289" lon="-2.2532616">
        <ele>5019.0</ele>
        <time>2020-09-05T13:11:10Z</time>
      </trkpt>
      <trkpt lat="43.292835" lon="-2.2532632">
        <ele>4783.0</ele>
        <time>2020-09-05T13:11:15Z</time>
      </trkpt>
      <trkpt lat="43.292778" lon="-2.2532706">
        <ele>4665.0</ele>
        <time>2020-09-05T13:11:20Z</time>
      </trkpt>
      <trkpt lat="43.292725" lon="-2.2532656">
        <ele>4537.0</ele>
        <time>2020-09-05T13:11:25Z</time>
      </trkpt>
      <trkpt lat="43.29267" lon="-2.2532604">
        <ele>4410.0</ele>
        <time>2020-09-05T13:11:30Z</time>
      </trkpt>
      <trkpt lat="43.292625" lon="-2.253208">
        <ele>4274.0</ele>
        <time>2020-09-05T13:11:35Z</time>
      </trkpt>
      <trkpt lat="43.29255" lon="-2.252845">
        <ele>4147.0</ele>
        <time>2020-09-05T13:11:52Z</time>
      </trkpt>
      <trkpt lat="43.292545" lon="-2.252855">
        <ele>4147.0</ele>
        <time>2020-09-05T13:11:53Z</time>
      </trkpt>
      <trkpt lat="43.29252" lon="-2.25281">
        <ele>4147.0</ele>
        <time>2020-09-05T13:12:00Z</time>
      </trkpt>
      <trkpt lat="43.2925" lon="-2.252733">
        <ele>4147.0</ele>
        <time>2020-09-05T13:12:05Z</time>
      </trkpt>
      <trkpt lat="43.292473" lon="-2.2526808">
        <ele>4147.0</ele>
        <time>2020-09-05T13:12:10Z</time>
      </trkpt>
      <trkpt lat="43.292442" lon="-2.2526143">
        <ele>3747.0</ele>
        <time>2020-09-05T13:12:19Z</time>
      </trkpt>
      <trkpt lat="43.29241" lon="-2.2525403">
        <ele>3619.0</ele>
        <time>2020-09-05T13:12:25Z</time>
      </trkpt>
      <trkpt lat="43.29238" lon="-2.2524717">
        <ele>3328.0</ele>
        <time>2020-09-05T13:12:31Z</time>
      </trkpt>
      <trkpt lat="43.29235" lon="-2.2524028">
        <ele>3328.0</ele>
        <time>2020-09-05T13:12:36Z</time>
      </trkpt>
      <trkpt lat="43.292328" lon="-2.2523324">
        <ele>3210.0</ele>
        <time>2020-09-05T13:12:41Z</time>
      </trkpt>
      <trkpt lat="43.292294" lon="-2.252257">
        <ele>3210.0</ele>
        <time>2020-09-05T13:12:46Z</time>
      </trkpt>
      <trkpt lat="43.292263" lon="-2.2521827">
        <ele>3210.0</ele>
        <time>2020-09-05T13:12:51Z</time>
      </trkpt>
      <trkpt lat="43.292233" lon="-2.2521136">
        <ele>3337.0</ele>
        <time>2020-09-05T13:12:56Z</time>
      </trkpt>
      <trkpt lat="43.29219" lon="-2.2520556">
        <ele>3456.0</ele>
        <time>2020-09-05T13:13:01Z</time>
      </trkpt>
      <trkpt lat="43.29216" lon="-2.252">
        <ele>3456.0</ele>
        <time>2020-09-05T13:13:06Z</time>
      </trkpt>
      <trkpt lat="43.29214" lon="-2.2519317">
        <ele>3456.0</ele>
        <time>2020-09-05T13:13:11Z</time>
      </trkpt>
      <trkpt lat="43.29211" lon="-2.251871">
        <ele>3574.0</ele>
        <time>2020-09-05T13:13:16Z</time>
      </trkpt>
      <trkpt lat="43.292072" lon="-2.2518134">
        <ele>3574.0</ele>
        <time>2020-09-05T13:13:23Z</time>
      </trkpt>
      <trkpt lat="43.292038" lon="-2.251764">
        <ele>3574.0</ele>
        <time>2020-09-05T13:13:29Z</time>
      </trkpt>
      <trkpt lat="43.291985" lon="-2.2517407">
        <ele>3574.0</ele>
        <time>2020-09-05T13:13:39Z</time>
      </trkpt>
      <trkpt lat="43.291935" lon="-2.2517097">
        <ele>3692.0</ele>
        <time>2020-09-05T13:13:46Z</time>
      </trkpt>
      <trkpt lat="43.291565" lon="-2.2516682">
        <ele>3692.0</ele>
        <time>2020-09-05T13:15:24Z</time>
      </trkpt>
      <trkpt lat="43.29146" lon="-2.2516866">
        <ele>3692.0</ele>
        <time>2020-09-05T13:15:45Z</time>
      </trkpt>
      <trkpt lat="43.291504" lon="-2.2517247">
        <ele>4056.0</ele>
        <time>2020-09-05T13:15:58Z</time>
      </trkpt>
      <trkpt lat="43.291527" lon="-2.2516983">
        <ele>4310.0</ele>
        <time>2020-09-05T13:16:19Z</time>
      </trkpt>
    </trkseg>
  </trk>
</gpx>
